<?xml version="1.0" encoding="UTF-8" standalone="no" ?><gpx xmlns="http://www.topografix.com/GPX/1/1" xmlns:gpxx="http://www.garmin.com/xmlschemas/GpxExtensions/v3" xmlns:wptx1="http://www.garmin.com/xmlschemas/WaypointExtension/v1" xmlns:gpxtpx="http://www.garmin.com/xmlschemas/TrackPointExtension/v1" creator="GuideVTT.com" version="1.1" xmlns:xsi="http://www.w3.org/2001/XMLSchema-instance" xsi:schemaLocation="http://www.topografix.com/GPX/1/1 http://www.topografix.com/GPX/1/1/gpx.xsd http://www.garmin.com/xmlschemas/GpxExtensions/v3 http://www8.garmin.com/xmlschemas/GpxExtensionsv3.xsd http://www.garmin.com/xmlschemas/WaypointExtension/v1 http://www8.garmin.com/xmlschemas/WaypointExtensionv1.xsd http://www.garmin.com/xmlschemas/TrackPointExtension/v1 http://www.garmin.com/xmlschemas/TrackPointExtensionv1.xsd">
<metadata><link href="http://www.garmin.com"><text>Garmin International</text></link><time>2013-06-22T15:13:50Z</time></metadata>
<trk><name>00000_20100402.gpx</name><extensions><gpxx:TrackExtension><gpxx:DisplayColor>Cyan</gpxx:DisplayColor></gpxx:TrackExtension></extensions><trkseg>
<trkpt lat="45.641747" lon="0.172118"><ele>-49</ele><time>2010-04-02T08:57:29Z</time></trkpt>
<trkpt lat="45.641567" lon="0.171912"><ele>-49</ele><time>2010-04-02T08:57:33Z</time></trkpt>
<trkpt lat="45.641972" lon="0.171963"><ele>98.3</ele><time>2010-04-02T08:57:38Z</time></trkpt>
<trkpt lat="45.641708" lon="0.171652"><ele>95</ele><time>2010-04-02T08:57:43Z</time></trkpt>
<trkpt lat="45.641395" lon="0.171452"><ele>91.4</ele><time>2010-04-02T08:57:48Z</time></trkpt>
<trkpt lat="45.641013" lon="0.171575"><ele>92.6</ele><time>2010-04-02T08:57:53Z</time></trkpt>
<trkpt lat="45.640752" lon="0.171810"><ele>95.2</ele><time>2010-04-02T08:57:58Z</time></trkpt>
<trkpt lat="45.640583" lon="0.172008"><ele>93.7</ele><time>2010-04-02T08:58:03Z</time></trkpt>
<trkpt lat="45.640438" lon="0.172195"><ele>93.8</ele><time>2010-04-02T08:58:08Z</time></trkpt>
<trkpt lat="45.640320" lon="0.172380"><ele>94.5</ele><time>2010-04-02T08:58:13Z</time></trkpt>
<trkpt lat="45.640193" lon="0.172572"><ele>95.1</ele><time>2010-04-02T08:58:18Z</time></trkpt>
<trkpt lat="45.640087" lon="0.172770"><ele>96.1</ele><time>2010-04-02T08:58:23Z</time></trkpt>
<trkpt lat="45.639988" lon="0.172965"><ele>96.9</ele><time>2010-04-02T08:58:28Z</time></trkpt>
<trkpt lat="45.639867" lon="0.173157"><ele>96.6</ele><time>2010-04-02T08:58:33Z</time></trkpt>
<trkpt lat="45.639717" lon="0.173357"><ele>95.6</ele><time>2010-04-02T08:58:38Z</time></trkpt>
<trkpt lat="45.639572" lon="0.173558"><ele>95</ele><time>2010-04-02T08:58:43Z</time></trkpt>
<trkpt lat="45.639435" lon="0.173762"><ele>94.7</ele><time>2010-04-02T08:58:48Z</time></trkpt>
<trkpt lat="45.639308" lon="0.173963"><ele>94.6</ele><time>2010-04-02T08:58:53Z</time></trkpt>
<trkpt lat="45.639187" lon="0.174158"><ele>94.9</ele><time>2010-04-02T08:58:58Z</time></trkpt>
<trkpt lat="45.639095" lon="0.174363"><ele>95.9</ele><time>2010-04-02T08:59:03Z</time></trkpt>
<trkpt lat="45.639160" lon="0.174515"><ele>98</ele><time>2010-04-02T08:59:08Z</time></trkpt>
<trkpt lat="45.639237" lon="0.174620"><ele>100.2</ele><time>2010-04-02T08:59:13Z</time></trkpt>
<trkpt lat="45.639308" lon="0.174732"><ele>102.3</ele><time>2010-04-02T08:59:18Z</time></trkpt>
<trkpt lat="45.639388" lon="0.174840"><ele>104.1</ele><time>2010-04-02T08:59:23Z</time></trkpt>
<trkpt lat="45.639468" lon="0.174952"><ele>105.3</ele><time>2010-04-02T08:59:28Z</time></trkpt>
<trkpt lat="45.639545" lon="0.175065"><ele>106.7</ele><time>2010-04-02T08:59:33Z</time></trkpt>
<trkpt lat="45.639625" lon="0.175175"><ele>108</ele><time>2010-04-02T08:59:38Z</time></trkpt>
<trkpt lat="45.639702" lon="0.175285"><ele>109</ele><time>2010-04-02T08:59:43Z</time></trkpt>
<trkpt lat="45.639785" lon="0.175400"><ele>109.8</ele><time>2010-04-02T08:59:48Z</time></trkpt>
<trkpt lat="45.639873" lon="0.175503"><ele>110.4</ele><time>2010-04-02T08:59:53Z</time></trkpt>
<trkpt lat="45.639962" lon="0.175613"><ele>111.2</ele><time>2010-04-02T08:59:58Z</time></trkpt>
<trkpt lat="45.640033" lon="0.175733"><ele>112.2</ele><time>2010-04-02T09:00:03Z</time></trkpt>
<trkpt lat="45.640118" lon="0.175845"><ele>113.1</ele><time>2010-04-02T09:00:08Z</time></trkpt>
<trkpt lat="45.640193" lon="0.175975"><ele>114</ele><time>2010-04-02T09:00:13Z</time></trkpt>
<trkpt lat="45.640282" lon="0.176088"><ele>115</ele><time>2010-04-02T09:00:18Z</time></trkpt>
<trkpt lat="45.640285" lon="0.176218"><ele>115.2</ele><time>2010-04-02T09:00:23Z</time></trkpt>
<trkpt lat="45.640160" lon="0.176365"><ele>114.9</ele><time>2010-04-02T09:00:28Z</time></trkpt>
<trkpt lat="45.639995" lon="0.176500"><ele>114.2</ele><time>2010-04-02T09:00:33Z</time></trkpt>
<trkpt lat="45.639823" lon="0.176635"><ele>113.7</ele><time>2010-04-02T09:00:38Z</time></trkpt>
<trkpt lat="45.639652" lon="0.176757"><ele>113.5</ele><time>2010-04-02T09:00:43Z</time></trkpt>
<trkpt lat="45.639480" lon="0.176877"><ele>113.4</ele><time>2010-04-02T09:00:48Z</time></trkpt>
<trkpt lat="45.639320" lon="0.177007"><ele>113.6</ele><time>2010-04-02T09:00:53Z</time></trkpt>
<trkpt lat="45.639153" lon="0.177130"><ele>113.6</ele><time>2010-04-02T09:00:58Z</time></trkpt>
<trkpt lat="45.638982" lon="0.177267"><ele>113.2</ele><time>2010-04-02T09:01:03Z</time></trkpt>
<trkpt lat="45.638802" lon="0.177477"><ele>112.8</ele><time>2010-04-02T09:01:08Z</time></trkpt>
<trkpt lat="45.638633" lon="0.177735"><ele>112</ele><time>2010-04-02T09:01:12Z</time></trkpt>
<trkpt lat="45.638497" lon="0.178013"><ele>110.9</ele><time>2010-04-02T09:01:17Z</time></trkpt>
<trkpt lat="45.638352" lon="0.178310"><ele>109</ele><time>2010-04-02T09:01:22Z</time></trkpt>
<trkpt lat="45.638165" lon="0.178645"><ele>106.4</ele><time>2010-04-02T09:01:27Z</time></trkpt>
<trkpt lat="45.637952" lon="0.179002"><ele>103.4</ele><time>2010-04-02T09:01:32Z</time></trkpt>
<trkpt lat="45.637715" lon="0.179350"><ele>99.2</ele><time>2010-04-02T09:01:37Z</time></trkpt>
<trkpt lat="45.637428" lon="0.179755"><ele>94.2</ele><time>2010-04-02T09:01:42Z</time></trkpt>
<trkpt lat="45.637115" lon="0.180203"><ele>88.6</ele><time>2010-04-02T09:01:47Z</time></trkpt>
<trkpt lat="45.636840" lon="0.180558"><ele>85.9</ele><time>2010-04-02T09:01:52Z</time></trkpt>
<trkpt lat="45.636712" lon="0.180562"><ele>84.8</ele><time>2010-04-02T09:01:57Z</time></trkpt>
<trkpt lat="45.636685" lon="0.180220"><ele>83.1</ele><time>2010-04-02T09:02:02Z</time></trkpt>
<trkpt lat="45.636650" lon="0.179797"><ele>81.2</ele><time>2010-04-02T09:02:07Z</time></trkpt>
<trkpt lat="45.636638" lon="0.179317"><ele>79.5</ele><time>2010-04-02T09:02:12Z</time></trkpt>
<trkpt lat="45.636632" lon="0.178803"><ele>77.3</ele><time>2010-04-02T09:02:17Z</time></trkpt>
<trkpt lat="45.636440" lon="0.178390"><ele>74.9</ele><time>2010-04-02T09:02:22Z</time></trkpt>
<trkpt lat="45.636182" lon="0.178050"><ele>71.9</ele><time>2010-04-02T09:02:27Z</time></trkpt>
<trkpt lat="45.635922" lon="0.177762"><ele>69.2</ele><time>2010-04-02T09:02:32Z</time></trkpt>
<trkpt lat="45.635662" lon="0.177513"><ele>66.5</ele><time>2010-04-02T09:02:37Z</time></trkpt>
<trkpt lat="45.635650" lon="0.177305"><ele>65.3</ele><time>2010-04-02T09:02:42Z</time></trkpt>
<trkpt lat="45.635658" lon="0.177093"><ele>63.6</ele><time>2010-04-02T09:02:47Z</time></trkpt>
<trkpt lat="45.635478" lon="0.176798"><ele>60.1</ele><time>2010-04-02T09:02:52Z</time></trkpt>
<trkpt lat="45.635368" lon="0.176718"><ele>59</ele><time>2010-04-02T09:02:57Z</time></trkpt>
<trkpt lat="45.635212" lon="0.176903"><ele>58.8</ele><time>2010-04-02T09:03:02Z</time></trkpt>
<trkpt lat="45.635043" lon="0.177137"><ele>58.8</ele><time>2010-04-02T09:03:07Z</time></trkpt>
<trkpt lat="45.634880" lon="0.177360"><ele>58.8</ele><time>2010-04-02T09:03:12Z</time></trkpt>
<trkpt lat="45.634717" lon="0.177612"><ele>58.7</ele><time>2010-04-02T09:03:17Z</time></trkpt>
<trkpt lat="45.634572" lon="0.177887"><ele>58.5</ele><time>2010-04-02T09:03:22Z</time></trkpt>
<trkpt lat="45.634433" lon="0.178177"><ele>58.2</ele><time>2010-04-02T09:03:27Z</time></trkpt>
<trkpt lat="45.634223" lon="0.178397"><ele>57.6</ele><time>2010-04-02T09:03:32Z</time></trkpt>
<trkpt lat="45.633998" lon="0.178578"><ele>57.6</ele><time>2010-04-02T09:03:37Z</time></trkpt>
<trkpt lat="45.633788" lon="0.178797"><ele>57.3</ele><time>2010-04-02T09:03:42Z</time></trkpt>
<trkpt lat="45.633572" lon="0.178988"><ele>57.1</ele><time>2010-04-02T09:03:47Z</time></trkpt>
<trkpt lat="45.633355" lon="0.179193"><ele>56.9</ele><time>2010-04-02T09:03:52Z</time></trkpt>
<trkpt lat="45.633137" lon="0.179388"><ele>56.9</ele><time>2010-04-02T09:03:57Z</time></trkpt>
<trkpt lat="45.632923" lon="0.179592"><ele>57.4</ele><time>2010-04-02T09:04:02Z</time></trkpt>
<trkpt lat="45.632722" lon="0.179812"><ele>57.5</ele><time>2010-04-02T09:04:07Z</time></trkpt>
<trkpt lat="45.632500" lon="0.179982"><ele>57.6</ele><time>2010-04-02T09:04:12Z</time></trkpt>
<trkpt lat="45.632287" lon="0.180153"><ele>57.9</ele><time>2010-04-02T09:04:17Z</time></trkpt>
<trkpt lat="45.632107" lon="0.180387"><ele>57.9</ele><time>2010-04-02T09:04:22Z</time></trkpt>
<trkpt lat="45.631932" lon="0.180592"><ele>58.6</ele><time>2010-04-02T09:04:27Z</time></trkpt>
<trkpt lat="45.631763" lon="0.180608"><ele>59.9</ele><time>2010-04-02T09:04:32Z</time></trkpt>
<trkpt lat="45.631653" lon="0.180618"><ele>61.3</ele><time>2010-04-02T09:04:37Z</time></trkpt>
<trkpt lat="45.631550" lon="0.180622"><ele>63.2</ele><time>2010-04-02T09:04:42Z</time></trkpt>
<trkpt lat="45.631450" lon="0.180630"><ele>66.2</ele><time>2010-04-02T09:04:47Z</time></trkpt>
<trkpt lat="45.631367" lon="0.180672"><ele>68.7</ele><time>2010-04-02T09:04:52Z</time></trkpt>
<trkpt lat="45.631382" lon="0.180873"><ele>68.6</ele><time>2010-04-02T09:04:57Z</time></trkpt>
<trkpt lat="45.631390" lon="0.181095"><ele>68.6</ele><time>2010-04-02T09:05:02Z</time></trkpt>
<trkpt lat="45.631390" lon="0.181328"><ele>67.7</ele><time>2010-04-02T09:05:07Z</time></trkpt>
<trkpt lat="45.631390" lon="0.181567"><ele>66.6</ele><time>2010-04-02T09:05:12Z</time></trkpt>
<trkpt lat="45.631378" lon="0.181813"><ele>67.1</ele><time>2010-04-02T09:05:17Z</time></trkpt>
<trkpt lat="45.631343" lon="0.182063"><ele>66.7</ele><time>2010-04-02T09:05:22Z</time></trkpt>
<trkpt lat="45.631283" lon="0.182347"><ele>66.4</ele><time>2010-04-02T09:05:27Z</time></trkpt>
<trkpt lat="45.631160" lon="0.182608"><ele>64.8</ele><time>2010-04-02T09:05:32Z</time></trkpt>
<trkpt lat="45.630993" lon="0.182807"><ele>64</ele><time>2010-04-02T09:05:37Z</time></trkpt>
<trkpt lat="45.630813" lon="0.182973"><ele>63.8</ele><time>2010-04-02T09:05:42Z</time></trkpt>
<trkpt lat="45.630707" lon="0.183252"><ele>63.3</ele><time>2010-04-02T09:05:47Z</time></trkpt>
<trkpt lat="45.630645" lon="0.183580"><ele>62.7</ele><time>2010-04-02T09:05:52Z</time></trkpt>
<trkpt lat="45.630532" lon="0.183852"><ele>63.2</ele><time>2010-04-02T09:05:57Z</time></trkpt>
<trkpt lat="45.630402" lon="0.184060"><ele>64.2</ele><time>2010-04-02T09:06:02Z</time></trkpt>
<trkpt lat="45.630272" lon="0.184255"><ele>64.8</ele><time>2010-04-02T09:06:07Z</time></trkpt>
<trkpt lat="45.630138" lon="0.184447"><ele>65</ele><time>2010-04-02T09:06:12Z</time></trkpt>
<trkpt lat="45.629990" lon="0.184620"><ele>65</ele><time>2010-04-02T09:06:17Z</time></trkpt>
<trkpt lat="45.629837" lon="0.184772"><ele>65.1</ele><time>2010-04-02T09:06:22Z</time></trkpt>
<trkpt lat="45.629685" lon="0.184927"><ele>65.4</ele><time>2010-04-02T09:06:27Z</time></trkpt>
<trkpt lat="45.629513" lon="0.184988"><ele>66.2</ele><time>2010-04-02T09:06:32Z</time></trkpt>
<trkpt lat="45.629363" lon="0.184958"><ele>68.7</ele><time>2010-04-02T09:06:37Z</time></trkpt>
<trkpt lat="45.629218" lon="0.184952"><ele>69.8</ele><time>2010-04-02T09:06:42Z</time></trkpt>
<trkpt lat="45.629078" lon="0.184953"><ele>70.8</ele><time>2010-04-02T09:06:47Z</time></trkpt>
<trkpt lat="45.628945" lon="0.184953"><ele>71.6</ele><time>2010-04-02T09:06:52Z</time></trkpt>
<trkpt lat="45.628815" lon="0.184940"><ele>72.4</ele><time>2010-04-02T09:06:57Z</time></trkpt>
<trkpt lat="45.628685" lon="0.184932"><ele>73.2</ele><time>2010-04-02T09:07:02Z</time></trkpt>
<trkpt lat="45.628555" lon="0.184933"><ele>74.7</ele><time>2010-04-02T09:07:07Z</time></trkpt>
<trkpt lat="45.628407" lon="0.184987"><ele>75.5</ele><time>2010-04-02T09:07:12Z</time></trkpt>
<trkpt lat="45.628262" lon="0.185067"><ele>76.2</ele><time>2010-04-02T09:07:17Z</time></trkpt>
<trkpt lat="45.628128" lon="0.185133"><ele>76</ele><time>2010-04-02T09:07:22Z</time></trkpt>
<trkpt lat="45.628002" lon="0.185200"><ele>75.8</ele><time>2010-04-02T09:07:27Z</time></trkpt>
<trkpt lat="45.627868" lon="0.185257"><ele>76.3</ele><time>2010-04-02T09:07:32Z</time></trkpt>
<trkpt lat="45.627765" lon="0.185342"><ele>76.9</ele><time>2010-04-02T09:07:37Z</time></trkpt>
<trkpt lat="45.627640" lon="0.185402"><ele>77.5</ele><time>2010-04-02T09:07:42Z</time></trkpt>
<trkpt lat="45.627533" lon="0.185483"><ele>78.9</ele><time>2010-04-02T09:07:47Z</time></trkpt>
<trkpt lat="45.627438" lon="0.185562"><ele>79.9</ele><time>2010-04-02T09:07:52Z</time></trkpt>
<trkpt lat="45.627347" lon="0.185647"><ele>80.8</ele><time>2010-04-02T09:07:57Z</time></trkpt>
<trkpt lat="45.627250" lon="0.185733"><ele>81.6</ele><time>2010-04-02T09:08:02Z</time></trkpt>
<trkpt lat="45.627167" lon="0.185840"><ele>82.7</ele><time>2010-04-02T09:08:07Z</time></trkpt>
<trkpt lat="45.627075" lon="0.185932"><ele>83.7</ele><time>2010-04-02T09:08:12Z</time></trkpt>
<trkpt lat="45.626980" lon="0.186017"><ele>84.1</ele><time>2010-04-02T09:08:17Z</time></trkpt>
<trkpt lat="45.626888" lon="0.186118"><ele>84.7</ele><time>2010-04-02T09:08:22Z</time></trkpt>
<trkpt lat="45.626812" lon="0.186240"><ele>85.1</ele><time>2010-04-02T09:08:27Z</time></trkpt>
<trkpt lat="45.626717" lon="0.186317"><ele>86</ele><time>2010-04-02T09:08:32Z</time></trkpt>
<trkpt lat="45.626625" lon="0.186395"><ele>86.6</ele><time>2010-04-02T09:08:37Z</time></trkpt>
<trkpt lat="45.626522" lon="0.186468"><ele>87.2</ele><time>2010-04-02T09:08:42Z</time></trkpt>
<trkpt lat="45.626423" lon="0.186543"><ele>88.3</ele><time>2010-04-02T09:08:47Z</time></trkpt>
<trkpt lat="45.626323" lon="0.186608"><ele>88.9</ele><time>2010-04-02T09:08:52Z</time></trkpt>
<trkpt lat="45.626225" lon="0.186682"><ele>89.7</ele><time>2010-04-02T09:08:57Z</time></trkpt>
<trkpt lat="45.626128" lon="0.186757"><ele>90.6</ele><time>2010-04-02T09:09:02Z</time></trkpt>
<trkpt lat="45.626053" lon="0.186848"><ele>91.2</ele><time>2010-04-02T09:09:07Z</time></trkpt>
<trkpt lat="45.625980" lon="0.186922"><ele>92</ele><time>2010-04-02T09:09:12Z</time></trkpt>
<trkpt lat="45.625912" lon="0.187005"><ele>92.9</ele><time>2010-04-02T09:09:17Z</time></trkpt>
<trkpt lat="45.625850" lon="0.187087"><ele>93.8</ele><time>2010-04-02T09:09:22Z</time></trkpt>
<trkpt lat="45.625785" lon="0.187155"><ele>94.7</ele><time>2010-04-02T09:09:27Z</time></trkpt>
<trkpt lat="45.625698" lon="0.187163"><ele>95.3</ele><time>2010-04-02T09:09:32Z</time></trkpt>
<trkpt lat="45.625618" lon="0.187213"><ele>95.6</ele><time>2010-04-02T09:09:37Z</time></trkpt>
<trkpt lat="45.625545" lon="0.187305"><ele>96.2</ele><time>2010-04-02T09:09:42Z</time></trkpt>
<trkpt lat="45.625453" lon="0.187355"><ele>96.8</ele><time>2010-04-02T09:09:47Z</time></trkpt>
<trkpt lat="45.625358" lon="0.187413"><ele>97.7</ele><time>2010-04-02T09:09:52Z</time></trkpt>
<trkpt lat="45.625272" lon="0.187470"><ele>99.5</ele><time>2010-04-02T09:09:57Z</time></trkpt>
<trkpt lat="45.625190" lon="0.187517"><ele>102.3</ele><time>2010-04-02T09:10:02Z</time></trkpt>
<trkpt lat="45.625100" lon="0.187577"><ele>101.6</ele><time>2010-04-02T09:10:07Z</time></trkpt>
<trkpt lat="45.625027" lon="0.187642"><ele>102.6</ele><time>2010-04-02T09:10:12Z</time></trkpt>
<trkpt lat="45.624950" lon="0.187705"><ele>103.6</ele><time>2010-04-02T09:10:17Z</time></trkpt>
<trkpt lat="45.624890" lon="0.187772"><ele>105.2</ele><time>2010-04-02T09:10:22Z</time></trkpt>
<trkpt lat="45.624805" lon="0.187828"><ele>105.6</ele><time>2010-04-02T09:10:27Z</time></trkpt>
<trkpt lat="45.624722" lon="0.187888"><ele>105</ele><time>2010-04-02T09:10:32Z</time></trkpt>
<trkpt lat="45.624618" lon="0.187925"><ele>106.2</ele><time>2010-04-02T09:10:37Z</time></trkpt>
<trkpt lat="45.624500" lon="0.187867"><ele>107.5</ele><time>2010-04-02T09:10:42Z</time></trkpt>
<trkpt lat="45.624382" lon="0.187828"><ele>107.3</ele><time>2010-04-02T09:10:47Z</time></trkpt>
<trkpt lat="45.624313" lon="0.187788"><ele>108.9</ele><time>2010-04-02T09:10:52Z</time></trkpt>
<trkpt lat="45.624348" lon="0.187802"><ele>110.4</ele><time>2010-04-02T09:10:57Z</time></trkpt>
<trkpt lat="45.624402" lon="0.187847"><ele>112.9</ele><time>2010-04-02T09:11:02Z</time></trkpt>
<trkpt lat="45.624195" lon="0.188035"><ele>108.8</ele><time>2010-04-02T09:11:07Z</time></trkpt>
<trkpt lat="45.623978" lon="0.187912"><ele>115.3</ele><time>2010-04-02T09:11:12Z</time></trkpt>
<trkpt lat="45.623935" lon="0.187952"><ele>114.8</ele><time>2010-04-02T09:11:17Z</time></trkpt>
<trkpt lat="45.623902" lon="0.188025"><ele>114.6</ele><time>2010-04-02T09:11:22Z</time></trkpt>
<trkpt lat="45.623875" lon="0.188108"><ele>114.7</ele><time>2010-04-02T09:11:27Z</time></trkpt>
<trkpt lat="45.623848" lon="0.188200"><ele>114.9</ele><time>2010-04-02T09:11:32Z</time></trkpt>
<trkpt lat="45.623810" lon="0.188295"><ele>115.2</ele><time>2010-04-02T09:11:37Z</time></trkpt>
<trkpt lat="45.623772" lon="0.188383"><ele>115.8</ele><time>2010-04-02T09:11:42Z</time></trkpt>
<trkpt lat="45.623745" lon="0.188485"><ele>116.5</ele><time>2010-04-02T09:11:47Z</time></trkpt>
<trkpt lat="45.623715" lon="0.188585"><ele>117</ele><time>2010-04-02T09:11:52Z</time></trkpt>
<trkpt lat="45.623688" lon="0.188685"><ele>117.4</ele><time>2010-04-02T09:11:57Z</time></trkpt>
<trkpt lat="45.623662" lon="0.188787"><ele>117.9</ele><time>2010-04-02T09:12:02Z</time></trkpt>
<trkpt lat="45.623635" lon="0.188897"><ele>118.4</ele><time>2010-04-02T09:12:07Z</time></trkpt>
<trkpt lat="45.623612" lon="0.189017"><ele>119</ele><time>2010-04-02T09:12:12Z</time></trkpt>
<trkpt lat="45.623592" lon="0.189145"><ele>119.8</ele><time>2010-04-02T09:12:17Z</time></trkpt>
<trkpt lat="45.623570" lon="0.189297"><ele>120.5</ele><time>2010-04-02T09:12:22Z</time></trkpt>
<trkpt lat="45.623550" lon="0.189475"><ele>120.9</ele><time>2010-04-02T09:12:27Z</time></trkpt>
<trkpt lat="45.623532" lon="0.189672"><ele>121</ele><time>2010-04-02T09:12:32Z</time></trkpt>
<trkpt lat="45.623478" lon="0.189872"><ele>121.3</ele><time>2010-04-02T09:12:37Z</time></trkpt>
<trkpt lat="45.623387" lon="0.190047"><ele>122.1</ele><time>2010-04-02T09:12:42Z</time></trkpt>
<trkpt lat="45.623292" lon="0.190197"><ele>122.7</ele><time>2010-04-02T09:12:47Z</time></trkpt>
<trkpt lat="45.623185" lon="0.190310"><ele>123.1</ele><time>2010-04-02T09:12:52Z</time></trkpt>
<trkpt lat="45.623062" lon="0.190423"><ele>122.6</ele><time>2010-04-02T09:12:57Z</time></trkpt>
<trkpt lat="45.622943" lon="0.190532"><ele>123</ele><time>2010-04-02T09:13:02Z</time></trkpt>
<trkpt lat="45.622825" lon="0.190637"><ele>123.5</ele><time>2010-04-02T09:13:07Z</time></trkpt>
<trkpt lat="45.622700" lon="0.190760"><ele>123.9</ele><time>2010-04-02T09:13:12Z</time></trkpt>
<trkpt lat="45.622585" lon="0.190892"><ele>125.2</ele><time>2010-04-02T09:13:17Z</time></trkpt>
<trkpt lat="45.622460" lon="0.191030"><ele>125.6</ele><time>2010-04-02T09:13:22Z</time></trkpt>
<trkpt lat="45.622322" lon="0.191173"><ele>125.5</ele><time>2010-04-02T09:13:27Z</time></trkpt>
<trkpt lat="45.622158" lon="0.191280"><ele>126.1</ele><time>2010-04-02T09:13:32Z</time></trkpt>
<trkpt lat="45.622002" lon="0.191422"><ele>126.3</ele><time>2010-04-02T09:13:37Z</time></trkpt>
<trkpt lat="45.621818" lon="0.191568"><ele>126.2</ele><time>2010-04-02T09:13:42Z</time></trkpt>
<trkpt lat="45.621628" lon="0.191715"><ele>125.5</ele><time>2010-04-02T09:13:47Z</time></trkpt>
<trkpt lat="45.621430" lon="0.191845"><ele>125.8</ele><time>2010-04-02T09:13:52Z</time></trkpt>
<trkpt lat="45.621247" lon="0.192008"><ele>126.8</ele><time>2010-04-02T09:13:57Z</time></trkpt>
<trkpt lat="45.621060" lon="0.192087"><ele>128.6</ele><time>2010-04-02T09:14:02Z</time></trkpt>
<trkpt lat="45.620900" lon="0.192142"><ele>131.7</ele><time>2010-04-02T09:14:07Z</time></trkpt>
<trkpt lat="45.620788" lon="0.192228"><ele>133.3</ele><time>2010-04-02T09:14:12Z</time></trkpt>
<trkpt lat="45.620705" lon="0.192335"><ele>134.4</ele><time>2010-04-02T09:14:17Z</time></trkpt>
<trkpt lat="45.620625" lon="0.192438"><ele>136.6</ele><time>2010-04-02T09:14:22Z</time></trkpt>
<trkpt lat="45.620548" lon="0.192558"><ele>138.5</ele><time>2010-04-02T09:14:27Z</time></trkpt>
<trkpt lat="45.620483" lon="0.192677"><ele>140.9</ele><time>2010-04-02T09:14:32Z</time></trkpt>
<trkpt lat="45.620407" lon="0.192815"><ele>142.6</ele><time>2010-04-02T09:14:37Z</time></trkpt>
<trkpt lat="45.620358" lon="0.192973"><ele>143.9</ele><time>2010-04-02T09:14:42Z</time></trkpt>
<trkpt lat="45.620282" lon="0.193130"><ele>144.2</ele><time>2010-04-02T09:14:47Z</time></trkpt>
<trkpt lat="45.620187" lon="0.193285"><ele>144.7</ele><time>2010-04-02T09:14:52Z</time></trkpt>
<trkpt lat="45.620102" lon="0.193500"><ele>142.2</ele><time>2010-04-02T09:14:57Z</time></trkpt>
<trkpt lat="45.620007" lon="0.193742"><ele>140</ele><time>2010-04-02T09:15:02Z</time></trkpt>
<trkpt lat="45.619918" lon="0.193993"><ele>138.1</ele><time>2010-04-02T09:15:07Z</time></trkpt>
<trkpt lat="45.619835" lon="0.194253"><ele>137.5</ele><time>2010-04-02T09:15:12Z</time></trkpt>
<trkpt lat="45.619702" lon="0.194433"><ele>135.6</ele><time>2010-04-02T09:15:17Z</time></trkpt>
<trkpt lat="45.619537" lon="0.194558"><ele>132.9</ele><time>2010-04-02T09:15:22Z</time></trkpt>
<trkpt lat="45.619362" lon="0.194700"><ele>131.2</ele><time>2010-04-02T09:15:27Z</time></trkpt>
<trkpt lat="45.619175" lon="0.194833"><ele>130.2</ele><time>2010-04-02T09:15:32Z</time></trkpt>
<trkpt lat="45.618973" lon="0.194937"><ele>129.4</ele><time>2010-04-02T09:15:37Z</time></trkpt>
<trkpt lat="45.618752" lon="0.195042"><ele>128.6</ele><time>2010-04-02T09:15:42Z</time></trkpt>
<trkpt lat="45.618538" lon="0.195125"><ele>127.7</ele><time>2010-04-02T09:15:47Z</time></trkpt>
<trkpt lat="45.618328" lon="0.195180"><ele>127.8</ele><time>2010-04-02T09:15:52Z</time></trkpt>
<trkpt lat="45.618110" lon="0.195135"><ele>129.5</ele><time>2010-04-02T09:15:57Z</time></trkpt>
<trkpt lat="45.617893" lon="0.195228"><ele>130.2</ele><time>2010-04-02T09:16:02Z</time></trkpt>
<trkpt lat="45.617722" lon="0.195407"><ele>131.1</ele><time>2010-04-02T09:16:07Z</time></trkpt>
<trkpt lat="45.617562" lon="0.195565"><ele>131.1</ele><time>2010-04-02T09:16:12Z</time></trkpt>
<trkpt lat="45.617432" lon="0.195667"><ele>131.5</ele><time>2010-04-02T09:16:17Z</time></trkpt>
<trkpt lat="45.617328" lon="0.195780"><ele>132.1</ele><time>2010-04-02T09:16:22Z</time></trkpt>
<trkpt lat="45.617215" lon="0.195935"><ele>133.1</ele><time>2010-04-02T09:16:27Z</time></trkpt>
<trkpt lat="45.617103" lon="0.196103"><ele>133.3</ele><time>2010-04-02T09:16:32Z</time></trkpt>
<trkpt lat="45.616973" lon="0.196263"><ele>133.8</ele><time>2010-04-02T09:16:37Z</time></trkpt>
<trkpt lat="45.616828" lon="0.196397"><ele>135.1</ele><time>2010-04-02T09:16:42Z</time></trkpt>
<trkpt lat="45.616692" lon="0.196487"><ele>137.1</ele><time>2010-04-02T09:16:47Z</time></trkpt>
<trkpt lat="45.616535" lon="0.196603"><ele>138.5</ele><time>2010-04-02T09:16:52Z</time></trkpt>
<trkpt lat="45.616393" lon="0.196758"><ele>138.4</ele><time>2010-04-02T09:16:57Z</time></trkpt>
<trkpt lat="45.616238" lon="0.196908"><ele>136.9</ele><time>2010-04-02T09:17:02Z</time></trkpt>
<trkpt lat="45.616085" lon="0.197052"><ele>135.8</ele><time>2010-04-02T09:17:07Z</time></trkpt>
<trkpt lat="45.615943" lon="0.197215"><ele>135.5</ele><time>2010-04-02T09:17:12Z</time></trkpt>
<trkpt lat="45.615815" lon="0.197395"><ele>136</ele><time>2010-04-02T09:17:17Z</time></trkpt>
<trkpt lat="45.615723" lon="0.197613"><ele>136</ele><time>2010-04-02T09:17:22Z</time></trkpt>
<trkpt lat="45.615608" lon="0.197852"><ele>135.5</ele><time>2010-04-02T09:17:27Z</time></trkpt>
<trkpt lat="45.615498" lon="0.198132"><ele>135</ele><time>2010-04-02T09:17:32Z</time></trkpt>
<trkpt lat="45.615383" lon="0.198422"><ele>134.3</ele><time>2010-04-02T09:17:37Z</time></trkpt>
<trkpt lat="45.615223" lon="0.198697"><ele>132.9</ele><time>2010-04-02T09:17:42Z</time></trkpt>
<trkpt lat="45.615073" lon="0.198977"><ele>132.7</ele><time>2010-04-02T09:17:47Z</time></trkpt>
<trkpt lat="45.614957" lon="0.199238"><ele>132.8</ele><time>2010-04-02T09:17:52Z</time></trkpt>
<trkpt lat="45.614822" lon="0.199512"><ele>132.7</ele><time>2010-04-02T09:17:57Z</time></trkpt>
<trkpt lat="45.614715" lon="0.199835"><ele>132.1</ele><time>2010-04-02T09:18:02Z</time></trkpt>
<trkpt lat="45.614620" lon="0.200152"><ele>131.1</ele><time>2010-04-02T09:18:07Z</time></trkpt>
<trkpt lat="45.614528" lon="0.200402"><ele>131.6</ele><time>2010-04-02T09:18:12Z</time></trkpt>
<trkpt lat="45.614457" lon="0.200610"><ele>132.3</ele><time>2010-04-02T09:18:17Z</time></trkpt>
<trkpt lat="45.614403" lon="0.200830"><ele>133.9</ele><time>2010-04-02T09:18:22Z</time></trkpt>
<trkpt lat="45.614342" lon="0.201073"><ele>135.5</ele><time>2010-04-02T09:18:27Z</time></trkpt>
<trkpt lat="45.614253" lon="0.201260"><ele>136.5</ele><time>2010-04-02T09:18:32Z</time></trkpt>
<trkpt lat="45.614178" lon="0.201450"><ele>137.7</ele><time>2010-04-02T09:18:37Z</time></trkpt>
<trkpt lat="45.614098" lon="0.201647"><ele>138</ele><time>2010-04-02T09:18:42Z</time></trkpt>
<trkpt lat="45.614017" lon="0.201852"><ele>137.9</ele><time>2010-04-02T09:18:47Z</time></trkpt>
<trkpt lat="45.613922" lon="0.202043"><ele>139</ele><time>2010-04-02T09:18:52Z</time></trkpt>
<trkpt lat="45.613818" lon="0.202232"><ele>139</ele><time>2010-04-02T09:18:57Z</time></trkpt>
<trkpt lat="45.613723" lon="0.202433"><ele>139.6</ele><time>2010-04-02T09:19:02Z</time></trkpt>
<trkpt lat="45.613637" lon="0.202628"><ele>140.3</ele><time>2010-04-02T09:19:07Z</time></trkpt>
<trkpt lat="45.613537" lon="0.202838"><ele>140.5</ele><time>2010-04-02T09:19:12Z</time></trkpt>
<trkpt lat="45.613448" lon="0.203070"><ele>140.3</ele><time>2010-04-02T09:19:17Z</time></trkpt>
<trkpt lat="45.613353" lon="0.203325"><ele>139.5</ele><time>2010-04-02T09:19:22Z</time></trkpt>
<trkpt lat="45.613240" lon="0.203590"><ele>138.8</ele><time>2010-04-02T09:19:27Z</time></trkpt>
<trkpt lat="45.613122" lon="0.203860"><ele>137.7</ele><time>2010-04-02T09:19:32Z</time></trkpt>
<trkpt lat="45.613007" lon="0.204138"><ele>137.7</ele><time>2010-04-02T09:19:37Z</time></trkpt>
<trkpt lat="45.612888" lon="0.204412"><ele>138.2</ele><time>2010-04-02T09:19:42Z</time></trkpt>
<trkpt lat="45.612778" lon="0.204682"><ele>138.3</ele><time>2010-04-02T09:19:47Z</time></trkpt>
<trkpt lat="45.612675" lon="0.204952"><ele>138.5</ele><time>2010-04-02T09:19:52Z</time></trkpt>
<trkpt lat="45.612563" lon="0.205213"><ele>138.3</ele><time>2010-04-02T09:19:57Z</time></trkpt>
<trkpt lat="45.612453" lon="0.205472"><ele>138.4</ele><time>2010-04-02T09:20:02Z</time></trkpt>
<trkpt lat="45.612328" lon="0.205752"><ele>138.2</ele><time>2010-04-02T09:20:07Z</time></trkpt>
<trkpt lat="45.612178" lon="0.206018"><ele>137.5</ele><time>2010-04-02T09:20:12Z</time></trkpt>
<trkpt lat="45.611995" lon="0.206248"><ele>136.8</ele><time>2010-04-02T09:20:17Z</time></trkpt>
<trkpt lat="45.611820" lon="0.206460"><ele>137.2</ele><time>2010-04-02T09:20:22Z</time></trkpt>
<trkpt lat="45.611705" lon="0.206745"><ele>138</ele><time>2010-04-02T09:20:27Z</time></trkpt>
<trkpt lat="45.611637" lon="0.207062"><ele>138.7</ele><time>2010-04-02T09:20:32Z</time></trkpt>
<trkpt lat="45.611553" lon="0.207345"><ele>139.1</ele><time>2010-04-02T09:20:37Z</time></trkpt>
<trkpt lat="45.611450" lon="0.207600"><ele>139.5</ele><time>2010-04-02T09:20:42Z</time></trkpt>
<trkpt lat="45.611340" lon="0.207838"><ele>139.5</ele><time>2010-04-02T09:20:47Z</time></trkpt>
<trkpt lat="45.611252" lon="0.208063"><ele>140.8</ele><time>2010-04-02T09:20:52Z</time></trkpt>
<trkpt lat="45.611168" lon="0.208285"><ele>142.5</ele><time>2010-04-02T09:20:57Z</time></trkpt>
<trkpt lat="45.611080" lon="0.208488"><ele>142.7</ele><time>2010-04-02T09:21:02Z</time></trkpt>
<trkpt lat="45.610965" lon="0.208647"><ele>143.3</ele><time>2010-04-02T09:21:07Z</time></trkpt>
<trkpt lat="45.610852" lon="0.208782"><ele>143.2</ele><time>2010-04-02T09:21:12Z</time></trkpt>
<trkpt lat="45.610725" lon="0.208917"><ele>143.1</ele><time>2010-04-02T09:21:17Z</time></trkpt>
<trkpt lat="45.610595" lon="0.209048"><ele>143.1</ele><time>2010-04-02T09:21:22Z</time></trkpt>
<trkpt lat="45.610515" lon="0.209140"><ele>143.1</ele><time>2010-04-02T09:21:27Z</time></trkpt>
<trkpt lat="45.610588" lon="0.209295"><ele>142.8</ele><time>2010-04-02T09:21:32Z</time></trkpt>
<trkpt lat="45.610740" lon="0.209502"><ele>142.1</ele><time>2010-04-02T09:21:37Z</time></trkpt>
<trkpt lat="45.610950" lon="0.209778"><ele>140.8</ele><time>2010-04-02T09:21:42Z</time></trkpt>
<trkpt lat="45.611198" lon="0.210095"><ele>139</ele><time>2010-04-02T09:21:47Z</time></trkpt>
<trkpt lat="45.611458" lon="0.210447"><ele>137.4</ele><time>2010-04-02T09:21:52Z</time></trkpt>
<trkpt lat="45.611732" lon="0.210798"><ele>136</ele><time>2010-04-02T09:21:57Z</time></trkpt>
<trkpt lat="45.612012" lon="0.211183"><ele>134.6</ele><time>2010-04-02T09:22:02Z</time></trkpt>
<trkpt lat="45.612293" lon="0.211558"><ele>133.3</ele><time>2010-04-02T09:22:07Z</time></trkpt>
<trkpt lat="45.612518" lon="0.211855"><ele>133.7</ele><time>2010-04-02T09:22:12Z</time></trkpt>
<trkpt lat="45.612687" lon="0.212070"><ele>134.2</ele><time>2010-04-02T09:22:17Z</time></trkpt>
<trkpt lat="45.612853" lon="0.212288"><ele>134.5</ele><time>2010-04-02T09:22:22Z</time></trkpt>
<trkpt lat="45.613030" lon="0.212518"><ele>134.2</ele><time>2010-04-02T09:22:27Z</time></trkpt>
<trkpt lat="45.613208" lon="0.212760"><ele>133.5</ele><time>2010-04-02T09:22:32Z</time></trkpt>
<trkpt lat="45.613403" lon="0.213025"><ele>132.6</ele><time>2010-04-02T09:22:37Z</time></trkpt>
<trkpt lat="45.613610" lon="0.213295"><ele>131.9</ele><time>2010-04-02T09:22:42Z</time></trkpt>
<trkpt lat="45.613835" lon="0.213567"><ele>130.5</ele><time>2010-04-02T09:22:47Z</time></trkpt>
<trkpt lat="45.614113" lon="0.213833"><ele>128.3</ele><time>2010-04-02T09:22:52Z</time></trkpt>
<trkpt lat="45.614430" lon="0.214130"><ele>126.3</ele><time>2010-04-02T09:22:57Z</time></trkpt>
<trkpt lat="45.614758" lon="0.214447"><ele>123.7</ele><time>2010-04-02T09:23:02Z</time></trkpt>
<trkpt lat="45.615120" lon="0.214782"><ele>120.8</ele><time>2010-04-02T09:23:07Z</time></trkpt>
<trkpt lat="45.615493" lon="0.215117"><ele>119.5</ele><time>2010-04-02T09:23:12Z</time></trkpt>
<trkpt lat="45.615807" lon="0.215410"><ele>119.4</ele><time>2010-04-02T09:23:17Z</time></trkpt>
<trkpt lat="45.616062" lon="0.215655"><ele>119.3</ele><time>2010-04-02T09:23:22Z</time></trkpt>
<trkpt lat="45.616287" lon="0.215870"><ele>119.3</ele><time>2010-04-02T09:23:27Z</time></trkpt>
<trkpt lat="45.616493" lon="0.216117"><ele>119.4</ele><time>2010-04-02T09:23:32Z</time></trkpt>
<trkpt lat="45.616710" lon="0.216390"><ele>118.6</ele><time>2010-04-02T09:23:37Z</time></trkpt>
<trkpt lat="45.616947" lon="0.216633"><ele>117.4</ele><time>2010-04-02T09:23:42Z</time></trkpt>
<trkpt lat="45.617177" lon="0.216963"><ele>114.6</ele><time>2010-04-02T09:23:47Z</time></trkpt>
<trkpt lat="45.617535" lon="0.217242"><ele>110.4</ele><time>2010-04-02T09:23:52Z</time></trkpt>
<trkpt lat="45.617955" lon="0.217313"><ele>106.1</ele><time>2010-04-02T09:23:57Z</time></trkpt>
<trkpt lat="45.618358" lon="0.217348"><ele>102.3</ele><time>2010-04-02T09:24:02Z</time></trkpt>
<trkpt lat="45.618770" lon="0.217392"><ele>98.6</ele><time>2010-04-02T09:24:07Z</time></trkpt>
<trkpt lat="45.619092" lon="0.217405"><ele>95.3</ele><time>2010-04-02T09:24:12Z</time></trkpt>
<trkpt lat="45.619183" lon="0.217563"><ele>92.5</ele><time>2010-04-02T09:24:17Z</time></trkpt>
<trkpt lat="45.618992" lon="0.217795"><ele>89.9</ele><time>2010-04-02T09:24:22Z</time></trkpt>
<trkpt lat="45.618828" lon="0.217928"><ele>88.7</ele><time>2010-04-02T09:24:27Z</time></trkpt>
<trkpt lat="45.618687" lon="0.217940"><ele>88.6</ele><time>2010-04-02T09:24:32Z</time></trkpt>
<trkpt lat="45.618542" lon="0.218032"><ele>87.6</ele><time>2010-04-02T09:24:37Z</time></trkpt>
<trkpt lat="45.618400" lon="0.218082"><ele>89.3</ele><time>2010-04-02T09:24:42Z</time></trkpt>
<trkpt lat="45.618282" lon="0.218173"><ele>89.9</ele><time>2010-04-02T09:24:47Z</time></trkpt>
<trkpt lat="45.618142" lon="0.218193"><ele>91.9</ele><time>2010-04-02T09:24:52Z</time></trkpt>
<trkpt lat="45.618012" lon="0.218220"><ele>95.2</ele><time>2010-04-02T09:24:57Z</time></trkpt>
<trkpt lat="45.617882" lon="0.218248"><ele>96.5</ele><time>2010-04-02T09:25:02Z</time></trkpt>
<trkpt lat="45.617757" lon="0.218290"><ele>97.6</ele><time>2010-04-02T09:25:07Z</time></trkpt>
<trkpt lat="45.617630" lon="0.218335"><ele>99.1</ele><time>2010-04-02T09:25:12Z</time></trkpt>
<trkpt lat="45.617500" lon="0.218392"><ele>100.3</ele><time>2010-04-02T09:25:17Z</time></trkpt>
<trkpt lat="45.617390" lon="0.218470"><ele>101.4</ele><time>2010-04-02T09:25:22Z</time></trkpt>
<trkpt lat="45.617290" lon="0.218563"><ele>103.5</ele><time>2010-04-02T09:25:27Z</time></trkpt>
<trkpt lat="45.617177" lon="0.218618"><ele>102.6</ele><time>2010-04-02T09:25:32Z</time></trkpt>
<trkpt lat="45.617080" lon="0.218645"><ele>100.3</ele><time>2010-04-02T09:25:37Z</time></trkpt>
<trkpt lat="45.617145" lon="0.218623"><ele>98.9</ele><time>2010-04-02T09:25:42Z</time></trkpt>
<trkpt lat="45.617218" lon="0.218617"><ele>98.9</ele><time>2010-04-02T09:25:47Z</time></trkpt>
<trkpt lat="45.617237" lon="0.218620"><ele>99</ele><time>2010-04-02T09:25:52Z</time></trkpt>
<trkpt lat="45.617237" lon="0.218620"><ele>98.8</ele><time>2010-04-02T09:25:57Z</time></trkpt>
<trkpt lat="45.617218" lon="0.218648"><ele>99</ele><time>2010-04-02T09:26:02Z</time></trkpt>
<trkpt lat="45.617127" lon="0.218757"><ele>99.5</ele><time>2010-04-02T09:26:07Z</time></trkpt>
<trkpt lat="45.617032" lon="0.218860"><ele>101.1</ele><time>2010-04-02T09:26:12Z</time></trkpt>
<trkpt lat="45.616935" lon="0.218968"><ele>101.8</ele><time>2010-04-02T09:26:17Z</time></trkpt>
<trkpt lat="45.616845" lon="0.219095"><ele>101.7</ele><time>2010-04-02T09:26:22Z</time></trkpt>
<trkpt lat="45.616753" lon="0.219228"><ele>101.9</ele><time>2010-04-02T09:26:27Z</time></trkpt>
<trkpt lat="45.616668" lon="0.219367"><ele>101.2</ele><time>2010-04-02T09:26:32Z</time></trkpt>
<trkpt lat="45.616588" lon="0.219502"><ele>101.2</ele><time>2010-04-02T09:26:37Z</time></trkpt>
<trkpt lat="45.616512" lon="0.219660"><ele>101.2</ele><time>2010-04-02T09:26:42Z</time></trkpt>
<trkpt lat="45.616458" lon="0.219822"><ele>102.2</ele><time>2010-04-02T09:26:47Z</time></trkpt>
<trkpt lat="45.616410" lon="0.219975"><ele>104.1</ele><time>2010-04-02T09:26:52Z</time></trkpt>
<trkpt lat="45.616313" lon="0.220080"><ele>104</ele><time>2010-04-02T09:26:57Z</time></trkpt>
<trkpt lat="45.616177" lon="0.220178"><ele>103.1</ele><time>2010-04-02T09:27:02Z</time></trkpt>
<trkpt lat="45.616067" lon="0.220287"><ele>102.9</ele><time>2010-04-02T09:27:07Z</time></trkpt>
<trkpt lat="45.615967" lon="0.220383"><ele>103.3</ele><time>2010-04-02T09:27:12Z</time></trkpt>
<trkpt lat="45.615852" lon="0.220452"><ele>103.6</ele><time>2010-04-02T09:27:17Z</time></trkpt>
<trkpt lat="45.615742" lon="0.220493"><ele>104.7</ele><time>2010-04-02T09:27:22Z</time></trkpt>
<trkpt lat="45.615623" lon="0.220528"><ele>104.5</ele><time>2010-04-02T09:27:27Z</time></trkpt>
<trkpt lat="45.615493" lon="0.220553"><ele>104.6</ele><time>2010-04-02T09:27:32Z</time></trkpt>
<trkpt lat="45.615357" lon="0.220563"><ele>104.6</ele><time>2010-04-02T09:27:37Z</time></trkpt>
<trkpt lat="45.615230" lon="0.220603"><ele>104.5</ele><time>2010-04-02T09:27:42Z</time></trkpt>
<trkpt lat="45.615117" lon="0.220683"><ele>105.4</ele><time>2010-04-02T09:27:47Z</time></trkpt>
<trkpt lat="45.615020" lon="0.220748"><ele>106.5</ele><time>2010-04-02T09:27:52Z</time></trkpt>
<trkpt lat="45.614952" lon="0.220802"><ele>107.5</ele><time>2010-04-02T09:27:57Z</time></trkpt>
<trkpt lat="45.614880" lon="0.220857"><ele>108.6</ele><time>2010-04-02T09:28:02Z</time></trkpt>
<trkpt lat="45.614803" lon="0.220898"><ele>109.6</ele><time>2010-04-02T09:28:07Z</time></trkpt>
<trkpt lat="45.614723" lon="0.220928"><ele>110.6</ele><time>2010-04-02T09:28:12Z</time></trkpt>
<trkpt lat="45.614635" lon="0.220938"><ele>111.1</ele><time>2010-04-02T09:28:17Z</time></trkpt>
<trkpt lat="45.614552" lon="0.220958"><ele>112.1</ele><time>2010-04-02T09:28:22Z</time></trkpt>
<trkpt lat="45.614472" lon="0.221008"><ele>113</ele><time>2010-04-02T09:28:27Z</time></trkpt>
<trkpt lat="45.614392" lon="0.221060"><ele>113.8</ele><time>2010-04-02T09:28:32Z</time></trkpt>
<trkpt lat="45.614307" lon="0.221120"><ele>114.7</ele><time>2010-04-02T09:28:37Z</time></trkpt>
<trkpt lat="45.614217" lon="0.221167"><ele>116.3</ele><time>2010-04-02T09:28:42Z</time></trkpt>
<trkpt lat="45.614120" lon="0.221217"><ele>117</ele><time>2010-04-02T09:28:47Z</time></trkpt>
<trkpt lat="45.614022" lon="0.221283"><ele>117.8</ele><time>2010-04-02T09:28:52Z</time></trkpt>
<trkpt lat="45.613927" lon="0.221342"><ele>118.7</ele><time>2010-04-02T09:28:57Z</time></trkpt>
<trkpt lat="45.613818" lon="0.221385"><ele>119.6</ele><time>2010-04-02T09:29:02Z</time></trkpt>
<trkpt lat="45.613712" lon="0.221430"><ele>119.9</ele><time>2010-04-02T09:29:07Z</time></trkpt>
<trkpt lat="45.613605" lon="0.221473"><ele>121.2</ele><time>2010-04-02T09:29:12Z</time></trkpt>
<trkpt lat="45.613492" lon="0.221495"><ele>122.7</ele><time>2010-04-02T09:29:17Z</time></trkpt>
<trkpt lat="45.613392" lon="0.221525"><ele>124.5</ele><time>2010-04-02T09:29:22Z</time></trkpt>
<trkpt lat="45.613300" lon="0.221577"><ele>125.3</ele><time>2010-04-02T09:29:27Z</time></trkpt>
<trkpt lat="45.613202" lon="0.221598"><ele>126.3</ele><time>2010-04-02T09:29:32Z</time></trkpt>
<trkpt lat="45.613117" lon="0.221625"><ele>126</ele><time>2010-04-02T09:29:37Z</time></trkpt>
<trkpt lat="45.613042" lon="0.221658"><ele>126.6</ele><time>2010-04-02T09:29:42Z</time></trkpt>
<trkpt lat="45.612960" lon="0.221708"><ele>127.1</ele><time>2010-04-02T09:29:47Z</time></trkpt>
<trkpt lat="45.612885" lon="0.221765"><ele>127.5</ele><time>2010-04-02T09:29:52Z</time></trkpt>
<trkpt lat="45.612817" lon="0.221825"><ele>128.4</ele><time>2010-04-02T09:29:57Z</time></trkpt>
<trkpt lat="45.612743" lon="0.221907"><ele>130</ele><time>2010-04-02T09:30:02Z</time></trkpt>
<trkpt lat="45.612682" lon="0.221983"><ele>130.4</ele><time>2010-04-02T09:30:07Z</time></trkpt>
<trkpt lat="45.612598" lon="0.222022"><ele>130.7</ele><time>2010-04-02T09:30:12Z</time></trkpt>
<trkpt lat="45.612503" lon="0.222023"><ele>132.3</ele><time>2010-04-02T09:30:17Z</time></trkpt>
<trkpt lat="45.612400" lon="0.222017"><ele>131.9</ele><time>2010-04-02T09:30:22Z</time></trkpt>
<trkpt lat="45.612297" lon="0.222013"><ele>132.6</ele><time>2010-04-02T09:30:27Z</time></trkpt>
<trkpt lat="45.612202" lon="0.222095"><ele>132.5</ele><time>2010-04-02T09:30:32Z</time></trkpt>
<trkpt lat="45.612122" lon="0.222205"><ele>132.7</ele><time>2010-04-02T09:30:37Z</time></trkpt>
<trkpt lat="45.612038" lon="0.222337"><ele>132.9</ele><time>2010-04-02T09:30:42Z</time></trkpt>
<trkpt lat="45.611950" lon="0.222468"><ele>132.9</ele><time>2010-04-02T09:30:47Z</time></trkpt>
<trkpt lat="45.611855" lon="0.222628"><ele>132.8</ele><time>2010-04-02T09:30:52Z</time></trkpt>
<trkpt lat="45.611740" lon="0.222802"><ele>132.4</ele><time>2010-04-02T09:30:57Z</time></trkpt>
<trkpt lat="45.611580" lon="0.222878"><ele>132.4</ele><time>2010-04-02T09:31:02Z</time></trkpt>
<trkpt lat="45.611397" lon="0.222947"><ele>132.3</ele><time>2010-04-02T09:31:07Z</time></trkpt>
<trkpt lat="45.611207" lon="0.223027"><ele>132</ele><time>2010-04-02T09:31:12Z</time></trkpt>
<trkpt lat="45.611030" lon="0.223103"><ele>131.6</ele><time>2010-04-02T09:31:17Z</time></trkpt>
<trkpt lat="45.610840" lon="0.223153"><ele>130.3</ele><time>2010-04-02T09:31:22Z</time></trkpt>
<trkpt lat="45.610642" lon="0.223238"><ele>129</ele><time>2010-04-02T09:31:27Z</time></trkpt>
<trkpt lat="45.610420" lon="0.223235"><ele>128.6</ele><time>2010-04-02T09:31:32Z</time></trkpt>
<trkpt lat="45.610245" lon="0.223172"><ele>128.9</ele><time>2010-04-02T09:31:37Z</time></trkpt>
<trkpt lat="45.610107" lon="0.223068"><ele>129.8</ele><time>2010-04-02T09:31:42Z</time></trkpt>
<trkpt lat="45.609962" lon="0.223085"><ele>129.7</ele><time>2010-04-02T09:31:47Z</time></trkpt>
<trkpt lat="45.609783" lon="0.223148"><ele>130.2</ele><time>2010-04-02T09:31:52Z</time></trkpt>
<trkpt lat="45.609588" lon="0.223175"><ele>129.4</ele><time>2010-04-02T09:31:57Z</time></trkpt>
<trkpt lat="45.609393" lon="0.223225"><ele>128.6</ele><time>2010-04-02T09:32:02Z</time></trkpt>
<trkpt lat="45.609260" lon="0.223390"><ele>128.5</ele><time>2010-04-02T09:32:07Z</time></trkpt>
<trkpt lat="45.609165" lon="0.223585"><ele>128.7</ele><time>2010-04-02T09:32:12Z</time></trkpt>
<trkpt lat="45.609097" lon="0.223803"><ele>128.5</ele><time>2010-04-02T09:32:17Z</time></trkpt>
<trkpt lat="45.609005" lon="0.223998"><ele>128.9</ele><time>2010-04-02T09:32:22Z</time></trkpt>
<trkpt lat="45.608902" lon="0.224183"><ele>129.6</ele><time>2010-04-02T09:32:27Z</time></trkpt>
<trkpt lat="45.608818" lon="0.224360"><ele>130.6</ele><time>2010-04-02T09:32:32Z</time></trkpt>
<trkpt lat="45.608742" lon="0.224497"><ele>132.5</ele><time>2010-04-02T09:32:37Z</time></trkpt>
<trkpt lat="45.608677" lon="0.224640"><ele>134.2</ele><time>2010-04-02T09:32:42Z</time></trkpt>
<trkpt lat="45.608582" lon="0.224758"><ele>134.7</ele><time>2010-04-02T09:32:47Z</time></trkpt>
<trkpt lat="45.608493" lon="0.224883"><ele>134.9</ele><time>2010-04-02T09:32:52Z</time></trkpt>
<trkpt lat="45.608398" lon="0.225005"><ele>134.9</ele><time>2010-04-02T09:32:57Z</time></trkpt>
<trkpt lat="45.608300" lon="0.225115"><ele>135.5</ele><time>2010-04-02T09:33:02Z</time></trkpt>
<trkpt lat="45.608188" lon="0.225205"><ele>136.2</ele><time>2010-04-02T09:33:07Z</time></trkpt>
<trkpt lat="45.608078" lon="0.225262"><ele>136.6</ele><time>2010-04-02T09:33:12Z</time></trkpt>
<trkpt lat="45.607963" lon="0.225335"><ele>137</ele><time>2010-04-02T09:33:17Z</time></trkpt>
<trkpt lat="45.607853" lon="0.225432"><ele>137.1</ele><time>2010-04-02T09:33:22Z</time></trkpt>
<trkpt lat="45.607732" lon="0.225532"><ele>137.4</ele><time>2010-04-02T09:33:27Z</time></trkpt>
<trkpt lat="45.607658" lon="0.225695"><ele>138.2</ele><time>2010-04-02T09:33:32Z</time></trkpt>
<trkpt lat="45.607602" lon="0.225875"><ele>138.6</ele><time>2010-04-02T09:33:37Z</time></trkpt>
<trkpt lat="45.607543" lon="0.226055"><ele>139.3</ele><time>2010-04-02T09:33:42Z</time></trkpt>
<trkpt lat="45.607460" lon="0.226245"><ele>139.9</ele><time>2010-04-02T09:33:47Z</time></trkpt>
<trkpt lat="45.607362" lon="0.226408"><ele>140.9</ele><time>2010-04-02T09:33:52Z</time></trkpt>
<trkpt lat="45.607280" lon="0.226600"><ele>141.1</ele><time>2010-04-02T09:33:57Z</time></trkpt>
<trkpt lat="45.607208" lon="0.226802"><ele>141.3</ele><time>2010-04-02T09:34:02Z</time></trkpt>
<trkpt lat="45.607162" lon="0.226963"><ele>141.8</ele><time>2010-04-02T09:34:07Z</time></trkpt>
<trkpt lat="45.607108" lon="0.227135"><ele>142.3</ele><time>2010-04-02T09:34:12Z</time></trkpt>
<trkpt lat="45.607052" lon="0.227287"><ele>142.8</ele><time>2010-04-02T09:34:17Z</time></trkpt>
<trkpt lat="45.607010" lon="0.227433"><ele>142.7</ele><time>2010-04-02T09:34:22Z</time></trkpt>
<trkpt lat="45.606953" lon="0.227577"><ele>143.1</ele><time>2010-04-02T09:34:27Z</time></trkpt>
<trkpt lat="45.606862" lon="0.227720"><ele>144.2</ele><time>2010-04-02T09:34:32Z</time></trkpt>
<trkpt lat="45.606785" lon="0.227875"><ele>145.6</ele><time>2010-04-02T09:34:37Z</time></trkpt>
<trkpt lat="45.606690" lon="0.228015"><ele>147.5</ele><time>2010-04-02T09:34:42Z</time></trkpt>
<trkpt lat="45.606587" lon="0.228147"><ele>149</ele><time>2010-04-02T09:34:47Z</time></trkpt>
<trkpt lat="45.606483" lon="0.228323"><ele>149.8</ele><time>2010-04-02T09:34:52Z</time></trkpt>
<trkpt lat="45.606430" lon="0.228507"><ele>148.9</ele><time>2010-04-02T09:34:57Z</time></trkpt>
<trkpt lat="45.606388" lon="0.228708"><ele>148.1</ele><time>2010-04-02T09:35:02Z</time></trkpt>
<trkpt lat="45.606353" lon="0.228882"><ele>147.9</ele><time>2010-04-02T09:35:07Z</time></trkpt>
<trkpt lat="45.606297" lon="0.229072"><ele>148</ele><time>2010-04-02T09:35:12Z</time></trkpt>
<trkpt lat="45.606228" lon="0.229262"><ele>148</ele><time>2010-04-02T09:35:17Z</time></trkpt>
<trkpt lat="45.606182" lon="0.229480"><ele>148.1</ele><time>2010-04-02T09:35:22Z</time></trkpt>
<trkpt lat="45.606143" lon="0.229702"><ele>148.3</ele><time>2010-04-02T09:35:27Z</time></trkpt>
<trkpt lat="45.606125" lon="0.229898"><ele>148.5</ele><time>2010-04-02T09:35:32Z</time></trkpt>
<trkpt lat="45.606030" lon="0.230017"><ele>149.2</ele><time>2010-04-02T09:35:37Z</time></trkpt>
<trkpt lat="45.605957" lon="0.230185"><ele>148.6</ele><time>2010-04-02T09:35:42Z</time></trkpt>
<trkpt lat="45.605912" lon="0.230338"><ele>147.9</ele><time>2010-04-02T09:35:47Z</time></trkpt>
<trkpt lat="45.605835" lon="0.230440"><ele>147.1</ele><time>2010-04-02T09:35:52Z</time></trkpt>
<trkpt lat="45.605820" lon="0.230453"><ele>146.9</ele><time>2010-04-02T09:35:57Z</time></trkpt>
<trkpt lat="45.605793" lon="0.230462"><ele>147.8</ele><time>2010-04-02T09:36:02Z</time></trkpt>
<trkpt lat="45.605767" lon="0.230547"><ele>148.4</ele><time>2010-04-02T09:36:07Z</time></trkpt>
<trkpt lat="45.605743" lon="0.230685"><ele>148.5</ele><time>2010-04-02T09:36:12Z</time></trkpt>
<trkpt lat="45.605720" lon="0.230848"><ele>148.7</ele><time>2010-04-02T09:36:17Z</time></trkpt>
<trkpt lat="45.605652" lon="0.230953"><ele>148.2</ele><time>2010-04-02T09:36:22Z</time></trkpt>
<trkpt lat="45.605598" lon="0.231107"><ele>147</ele><time>2010-04-02T09:36:27Z</time></trkpt>
<trkpt lat="45.605530" lon="0.231282"><ele>145.2</ele><time>2010-04-02T09:36:32Z</time></trkpt>
<trkpt lat="45.605477" lon="0.231447"><ele>144.8</ele><time>2010-04-02T09:36:37Z</time></trkpt>
<trkpt lat="45.605438" lon="0.231663"><ele>144.9</ele><time>2010-04-02T09:36:42Z</time></trkpt>
<trkpt lat="45.605462" lon="0.231952"><ele>144.8</ele><time>2010-04-02T09:36:47Z</time></trkpt>
<trkpt lat="45.605473" lon="0.232273"><ele>144.6</ele><time>2010-04-02T09:36:52Z</time></trkpt>
<trkpt lat="45.605488" lon="0.232595"><ele>144.8</ele><time>2010-04-02T09:36:57Z</time></trkpt>
<trkpt lat="45.605507" lon="0.232925"><ele>145.1</ele><time>2010-04-02T09:37:02Z</time></trkpt>
<trkpt lat="45.605522" lon="0.233258"><ele>145</ele><time>2010-04-02T09:37:07Z</time></trkpt>
<trkpt lat="45.605533" lon="0.233620"><ele>144.9</ele><time>2010-04-02T09:37:12Z</time></trkpt>
<trkpt lat="45.605542" lon="0.234008"><ele>144.5</ele><time>2010-04-02T09:37:17Z</time></trkpt>
<trkpt lat="45.605563" lon="0.234453"><ele>143.2</ele><time>2010-04-02T09:37:22Z</time></trkpt>
<trkpt lat="45.605590" lon="0.234875"><ele>143.2</ele><time>2010-04-02T09:37:27Z</time></trkpt>
<trkpt lat="45.605602" lon="0.235265"><ele>143.4</ele><time>2010-04-02T09:37:32Z</time></trkpt>
<trkpt lat="45.605625" lon="0.235650"><ele>143.5</ele><time>2010-04-02T09:37:37Z</time></trkpt>
<trkpt lat="45.605640" lon="0.236040"><ele>144.6</ele><time>2010-04-02T09:37:42Z</time></trkpt>
<trkpt lat="45.605667" lon="0.236433"><ele>145.7</ele><time>2010-04-02T09:37:47Z</time></trkpt>
<trkpt lat="45.605690" lon="0.236820"><ele>146.5</ele><time>2010-04-02T09:37:52Z</time></trkpt>
<trkpt lat="45.605708" lon="0.237237"><ele>145.4</ele><time>2010-04-02T09:37:57Z</time></trkpt>
<trkpt lat="45.605732" lon="0.237680"><ele>144.4</ele><time>2010-04-02T09:38:02Z</time></trkpt>
<trkpt lat="45.605752" lon="0.238165"><ele>142.4</ele><time>2010-04-02T09:38:07Z</time></trkpt>
<trkpt lat="45.605767" lon="0.238682"><ele>141</ele><time>2010-04-02T09:38:12Z</time></trkpt>
<trkpt lat="45.605793" lon="0.239250"><ele>138.5</ele><time>2010-04-02T09:38:17Z</time></trkpt>
<trkpt lat="45.605827" lon="0.239823"><ele>136.4</ele><time>2010-04-02T09:38:22Z</time></trkpt>
<trkpt lat="45.605873" lon="0.240368"><ele>134.8</ele><time>2010-04-02T09:38:27Z</time></trkpt>
<trkpt lat="45.605923" lon="0.240707"><ele>134.2</ele><time>2010-04-02T09:38:32Z</time></trkpt>
<trkpt lat="45.605962" lon="0.240955"><ele>134.2</ele><time>2010-04-02T09:38:37Z</time></trkpt>
<trkpt lat="45.606022" lon="0.241368"><ele>133</ele><time>2010-04-02T09:38:42Z</time></trkpt>
<trkpt lat="45.606090" lon="0.241855"><ele>131.2</ele><time>2010-04-02T09:38:47Z</time></trkpt>
<trkpt lat="45.606167" lon="0.242372"><ele>129.3</ele><time>2010-04-02T09:38:52Z</time></trkpt>
<trkpt lat="45.606243" lon="0.242900"><ele>126.7</ele><time>2010-04-02T09:38:57Z</time></trkpt>
<trkpt lat="45.606320" lon="0.243390"><ele>126.7</ele><time>2010-04-02T09:39:02Z</time></trkpt>
<trkpt lat="45.606380" lon="0.243712"><ele>127.9</ele><time>2010-04-02T09:39:07Z</time></trkpt>
<trkpt lat="45.606548" lon="0.243773"><ele>128.1</ele><time>2010-04-02T09:39:12Z</time></trkpt>
<trkpt lat="45.606808" lon="0.243543"><ele>126.3</ele><time>2010-04-02T09:39:17Z</time></trkpt>
<trkpt lat="45.607170" lon="0.243490"><ele>124.2</ele><time>2010-04-02T09:39:22Z</time></trkpt>
<trkpt lat="45.607522" lon="0.243765"><ele>122.3</ele><time>2010-04-02T09:39:27Z</time></trkpt>
<trkpt lat="45.607688" lon="0.244272"><ele>120.7</ele><time>2010-04-02T09:39:32Z</time></trkpt>
<trkpt lat="45.607682" lon="0.244802"><ele>119.5</ele><time>2010-04-02T09:39:37Z</time></trkpt>
<trkpt lat="45.607792" lon="0.245290"><ele>118.3</ele><time>2010-04-02T09:39:42Z</time></trkpt>
<trkpt lat="45.608058" lon="0.245698"><ele>117.4</ele><time>2010-04-02T09:39:47Z</time></trkpt>
<trkpt lat="45.608342" lon="0.246115"><ele>116.1</ele><time>2010-04-02T09:39:52Z</time></trkpt>
<trkpt lat="45.608620" lon="0.246540"><ele>115.7</ele><time>2010-04-02T09:39:57Z</time></trkpt>
<trkpt lat="45.608902" lon="0.246960"><ele>115.1</ele><time>2010-04-02T09:40:02Z</time></trkpt>
<trkpt lat="45.609177" lon="0.247395"><ele>114</ele><time>2010-04-02T09:40:07Z</time></trkpt>
<trkpt lat="45.609428" lon="0.247825"><ele>113</ele><time>2010-04-02T09:40:12Z</time></trkpt>
<trkpt lat="45.609665" lon="0.248223"><ele>112.5</ele><time>2010-04-02T09:40:17Z</time></trkpt>
<trkpt lat="45.609875" lon="0.248593"><ele>112</ele><time>2010-04-02T09:40:22Z</time></trkpt>
<trkpt lat="45.610085" lon="0.248945"><ele>111.2</ele><time>2010-04-02T09:40:27Z</time></trkpt>
<trkpt lat="45.610305" lon="0.249278"><ele>110.3</ele><time>2010-04-02T09:40:32Z</time></trkpt>
<trkpt lat="45.610573" lon="0.249525"><ele>109.6</ele><time>2010-04-02T09:40:37Z</time></trkpt>
<trkpt lat="45.610840" lon="0.249693"><ele>109.3</ele><time>2010-04-02T09:40:42Z</time></trkpt>
<trkpt lat="45.611110" lon="0.249778"><ele>108.7</ele><time>2010-04-02T09:40:47Z</time></trkpt>
<trkpt lat="45.611405" lon="0.249708"><ele>108.6</ele><time>2010-04-02T09:40:52Z</time></trkpt>
<trkpt lat="45.611728" lon="0.249592"><ele>107.8</ele><time>2010-04-02T09:40:57Z</time></trkpt>
<trkpt lat="45.612072" lon="0.249730"><ele>104.3</ele><time>2010-04-02T09:41:02Z</time></trkpt>
<trkpt lat="45.612278" lon="0.250115"><ele>102.9</ele><time>2010-04-02T09:41:07Z</time></trkpt>
<trkpt lat="45.612423" lon="0.250477"><ele>103.3</ele><time>2010-04-02T09:41:12Z</time></trkpt>
<trkpt lat="45.612568" lon="0.250812"><ele>103.8</ele><time>2010-04-02T09:41:17Z</time></trkpt>
<trkpt lat="45.612682" lon="0.251093"><ele>104.6</ele><time>2010-04-02T09:41:22Z</time></trkpt>
<trkpt lat="45.612782" lon="0.251300"><ele>106</ele><time>2010-04-02T09:41:27Z</time></trkpt>
<trkpt lat="45.612873" lon="0.251493"><ele>107.4</ele><time>2010-04-02T09:41:32Z</time></trkpt>
<trkpt lat="45.612850" lon="0.251675"><ele>107.9</ele><time>2010-04-02T09:41:37Z</time></trkpt>
<trkpt lat="45.612698" lon="0.251770"><ele>108</ele><time>2010-04-02T09:41:42Z</time></trkpt>
<trkpt lat="45.612545" lon="0.251860"><ele>107.8</ele><time>2010-04-02T09:41:47Z</time></trkpt>
<trkpt lat="45.612388" lon="0.251960"><ele>108.1</ele><time>2010-04-02T09:41:52Z</time></trkpt>
<trkpt lat="45.612220" lon="0.252040"><ele>108.8</ele><time>2010-04-02T09:41:57Z</time></trkpt>
<trkpt lat="45.612057" lon="0.252103"><ele>108.9</ele><time>2010-04-02T09:42:02Z</time></trkpt>
<trkpt lat="45.611897" lon="0.252175"><ele>109.2</ele><time>2010-04-02T09:42:07Z</time></trkpt>
<trkpt lat="45.611722" lon="0.252275"><ele>109.5</ele><time>2010-04-02T09:42:12Z</time></trkpt>
<trkpt lat="45.611553" lon="0.252375"><ele>109</ele><time>2010-04-02T09:42:17Z</time></trkpt>
<trkpt lat="45.611397" lon="0.252510"><ele>109.8</ele><time>2010-04-02T09:42:22Z</time></trkpt>
<trkpt lat="45.611228" lon="0.252647"><ele>110.2</ele><time>2010-04-02T09:42:27Z</time></trkpt>
<trkpt lat="45.611047" lon="0.252772"><ele>109.7</ele><time>2010-04-02T09:42:32Z</time></trkpt>
<trkpt lat="45.610817" lon="0.252860"><ele>108.3</ele><time>2010-04-02T09:42:37Z</time></trkpt>
<trkpt lat="45.610588" lon="0.252980"><ele>107.7</ele><time>2010-04-02T09:42:42Z</time></trkpt>
<trkpt lat="45.610397" lon="0.253127"><ele>107.6</ele><time>2010-04-02T09:42:47Z</time></trkpt>
<trkpt lat="45.610237" lon="0.253303"><ele>108.3</ele><time>2010-04-02T09:42:52Z</time></trkpt>
<trkpt lat="45.610070" lon="0.253495"><ele>108.8</ele><time>2010-04-02T09:42:57Z</time></trkpt>
<trkpt lat="45.609875" lon="0.253682"><ele>108.5</ele><time>2010-04-02T09:43:02Z</time></trkpt>
<trkpt lat="45.609695" lon="0.253893"><ele>108.2</ele><time>2010-04-02T09:43:07Z</time></trkpt>
<trkpt lat="45.609517" lon="0.254133"><ele>107.7</ele><time>2010-04-02T09:43:12Z</time></trkpt>
<trkpt lat="45.609322" lon="0.254382"><ele>106.1</ele><time>2010-04-02T09:43:17Z</time></trkpt>
<trkpt lat="45.609103" lon="0.254383"><ele>104.3</ele><time>2010-04-02T09:43:22Z</time></trkpt>
<trkpt lat="45.608878" lon="0.254232"><ele>104</ele><time>2010-04-02T09:43:27Z</time></trkpt>
<trkpt lat="45.608665" lon="0.254140"><ele>104.5</ele><time>2010-04-02T09:43:32Z</time></trkpt>
<trkpt lat="45.608472" lon="0.254073"><ele>104.6</ele><time>2010-04-02T09:43:37Z</time></trkpt>
<trkpt lat="45.608295" lon="0.254015"><ele>104.8</ele><time>2010-04-02T09:43:42Z</time></trkpt>
<trkpt lat="45.608132" lon="0.253965"><ele>104.9</ele><time>2010-04-02T09:43:47Z</time></trkpt>
<trkpt lat="45.607978" lon="0.253908"><ele>105.1</ele><time>2010-04-02T09:43:52Z</time></trkpt>
<trkpt lat="45.607865" lon="0.253848"><ele>106.3</ele><time>2010-04-02T09:43:57Z</time></trkpt>
<trkpt lat="45.607807" lon="0.253937"><ele>107.4</ele><time>2010-04-02T09:44:02Z</time></trkpt>
<trkpt lat="45.607780" lon="0.254037"><ele>108.5</ele><time>2010-04-02T09:44:07Z</time></trkpt>
<trkpt lat="45.607758" lon="0.254137"><ele>109.6</ele><time>2010-04-02T09:44:12Z</time></trkpt>
<trkpt lat="45.607738" lon="0.254233"><ele>110.7</ele><time>2010-04-02T09:44:17Z</time></trkpt>
<trkpt lat="45.607723" lon="0.254333"><ele>112.1</ele><time>2010-04-02T09:44:22Z</time></trkpt>
<trkpt lat="45.607697" lon="0.254402"><ele>114.3</ele><time>2010-04-02T09:44:27Z</time></trkpt>
<trkpt lat="45.607658" lon="0.254468"><ele>115.9</ele><time>2010-04-02T09:44:32Z</time></trkpt>
<trkpt lat="45.607613" lon="0.254538"><ele>117.1</ele><time>2010-04-02T09:44:37Z</time></trkpt>
<trkpt lat="45.607582" lon="0.254618"><ele>118.7</ele><time>2010-04-02T09:44:42Z</time></trkpt>
<trkpt lat="45.607537" lon="0.254670"><ele>120.7</ele><time>2010-04-02T09:44:47Z</time></trkpt>
<trkpt lat="45.607490" lon="0.254725"><ele>122.3</ele><time>2010-04-02T09:44:52Z</time></trkpt>
<trkpt lat="45.607448" lon="0.254783"><ele>123.8</ele><time>2010-04-02T09:44:57Z</time></trkpt>
<trkpt lat="45.607422" lon="0.254845"><ele>126.2</ele><time>2010-04-02T09:45:02Z</time></trkpt>
<trkpt lat="45.607392" lon="0.254895"><ele>128.6</ele><time>2010-04-02T09:45:07Z</time></trkpt>
<trkpt lat="45.607350" lon="0.254947"><ele>129.2</ele><time>2010-04-02T09:45:12Z</time></trkpt>
<trkpt lat="45.607297" lon="0.255035"><ele>127.4</ele><time>2010-04-02T09:45:17Z</time></trkpt>
<trkpt lat="45.607253" lon="0.255115"><ele>126.2</ele><time>2010-04-02T09:45:22Z</time></trkpt>
<trkpt lat="45.607197" lon="0.255198"><ele>125.1</ele><time>2010-04-02T09:45:27Z</time></trkpt>
<trkpt lat="45.607135" lon="0.255268"><ele>125.2</ele><time>2010-04-02T09:45:32Z</time></trkpt>
<trkpt lat="45.607072" lon="0.255338"><ele>125.6</ele><time>2010-04-02T09:45:37Z</time></trkpt>
<trkpt lat="45.607018" lon="0.255403"><ele>125.3</ele><time>2010-04-02T09:45:42Z</time></trkpt>
<trkpt lat="45.606960" lon="0.255340"><ele>125.5</ele><time>2010-04-02T09:45:47Z</time></trkpt>
<trkpt lat="45.606910" lon="0.255232"><ele>126.3</ele><time>2010-04-02T09:45:52Z</time></trkpt>
<trkpt lat="45.606842" lon="0.255152"><ele>127</ele><time>2010-04-02T09:45:57Z</time></trkpt>
<trkpt lat="45.606765" lon="0.255082"><ele>128.1</ele><time>2010-04-02T09:46:02Z</time></trkpt>
<trkpt lat="45.606655" lon="0.255025"><ele>128.9</ele><time>2010-04-02T09:46:07Z</time></trkpt>
<trkpt lat="45.606522" lon="0.255002"><ele>129.4</ele><time>2010-04-02T09:46:12Z</time></trkpt>
<trkpt lat="45.606385" lon="0.255015"><ele>129.9</ele><time>2010-04-02T09:46:17Z</time></trkpt>
<trkpt lat="45.606228" lon="0.255065"><ele>130.5</ele><time>2010-04-02T09:46:22Z</time></trkpt>
<trkpt lat="45.606075" lon="0.255122"><ele>131.2</ele><time>2010-04-02T09:46:27Z</time></trkpt>
<trkpt lat="45.605915" lon="0.255138"><ele>131.5</ele><time>2010-04-02T09:46:32Z</time></trkpt>
<trkpt lat="45.605758" lon="0.255110"><ele>132.9</ele><time>2010-04-02T09:46:37Z</time></trkpt>
<trkpt lat="45.605595" lon="0.255107"><ele>134.4</ele><time>2010-04-02T09:46:42Z</time></trkpt>
<trkpt lat="45.605442" lon="0.255085"><ele>135.8</ele><time>2010-04-02T09:46:47Z</time></trkpt>
<trkpt lat="45.605308" lon="0.254892"><ele>133.9</ele><time>2010-04-02T09:46:52Z</time></trkpt>
<trkpt lat="45.605148" lon="0.254642"><ele>131.8</ele><time>2010-04-02T09:46:57Z</time></trkpt>
<trkpt lat="45.605068" lon="0.254495"><ele>129.9</ele><time>2010-04-02T09:47:02Z</time></trkpt>
<trkpt lat="45.605072" lon="0.254437"><ele>129.3</ele><time>2010-04-02T09:47:07Z</time></trkpt>
<trkpt lat="45.604980" lon="0.254367"><ele>128.3</ele><time>2010-04-02T09:47:12Z</time></trkpt>
<trkpt lat="45.604850" lon="0.254300"><ele>126.8</ele><time>2010-04-02T09:47:17Z</time></trkpt>
<trkpt lat="45.604710" lon="0.254265"><ele>126</ele><time>2010-04-02T09:47:22Z</time></trkpt>
<trkpt lat="45.604572" lon="0.254228"><ele>127.1</ele><time>2010-04-02T09:47:27Z</time></trkpt>
<trkpt lat="45.604423" lon="0.254213"><ele>127.8</ele><time>2010-04-02T09:47:32Z</time></trkpt>
<trkpt lat="45.604267" lon="0.254137"><ele>128.1</ele><time>2010-04-02T09:47:37Z</time></trkpt>
<trkpt lat="45.604122" lon="0.254018"><ele>128</ele><time>2010-04-02T09:47:42Z</time></trkpt>
<trkpt lat="45.603928" lon="0.253878"><ele>128</ele><time>2010-04-02T09:47:47Z</time></trkpt>
<trkpt lat="45.603767" lon="0.253827"><ele>128.3</ele><time>2010-04-02T09:47:52Z</time></trkpt>
<trkpt lat="45.603648" lon="0.253687"><ele>126</ele><time>2010-04-02T09:47:57Z</time></trkpt>
<trkpt lat="45.603473" lon="0.253472"><ele>123.1</ele><time>2010-04-02T09:48:02Z</time></trkpt>
<trkpt lat="45.603207" lon="0.253370"><ele>120.8</ele><time>2010-04-02T09:48:07Z</time></trkpt>
<trkpt lat="45.602990" lon="0.253375"><ele>117.4</ele><time>2010-04-02T09:48:12Z</time></trkpt>
<trkpt lat="45.602775" lon="0.253365"><ele>116.2</ele><time>2010-04-02T09:48:17Z</time></trkpt>
<trkpt lat="45.602585" lon="0.253308"><ele>115.8</ele><time>2010-04-02T09:48:22Z</time></trkpt>
<trkpt lat="45.602485" lon="0.253118"><ele>117.5</ele><time>2010-04-02T09:48:27Z</time></trkpt>
<trkpt lat="45.602523" lon="0.252865"><ele>118.1</ele><time>2010-04-02T09:48:32Z</time></trkpt>
<trkpt lat="45.602535" lon="0.252660"><ele>119.2</ele><time>2010-04-02T09:48:37Z</time></trkpt>
<trkpt lat="45.602387" lon="0.252602"><ele>120.3</ele><time>2010-04-02T09:48:42Z</time></trkpt>
<trkpt lat="45.602212" lon="0.252587"><ele>121.7</ele><time>2010-04-02T09:48:47Z</time></trkpt>
<trkpt lat="45.602028" lon="0.252558"><ele>122.9</ele><time>2010-04-02T09:48:52Z</time></trkpt>
<trkpt lat="45.601852" lon="0.252545"><ele>122.8</ele><time>2010-04-02T09:48:57Z</time></trkpt>
<trkpt lat="45.601677" lon="0.252548"><ele>122.9</ele><time>2010-04-02T09:49:02Z</time></trkpt>
<trkpt lat="45.601493" lon="0.252563"><ele>121.6</ele><time>2010-04-02T09:49:07Z</time></trkpt>
<trkpt lat="45.601303" lon="0.252587"><ele>121.1</ele><time>2010-04-02T09:49:12Z</time></trkpt>
<trkpt lat="45.601197" lon="0.252762"><ele>120.8</ele><time>2010-04-02T09:49:17Z</time></trkpt>
<trkpt lat="45.601227" lon="0.253047"><ele>120.7</ele><time>2010-04-02T09:49:22Z</time></trkpt>
<trkpt lat="45.601155" lon="0.253245"><ele>120.7</ele><time>2010-04-02T09:49:27Z</time></trkpt>
<trkpt lat="45.600937" lon="0.253223"><ele>120.9</ele><time>2010-04-02T09:49:32Z</time></trkpt>
<trkpt lat="45.600735" lon="0.253172"><ele>121.3</ele><time>2010-04-02T09:49:37Z</time></trkpt>
<trkpt lat="45.600552" lon="0.253113"><ele>122.1</ele><time>2010-04-02T09:49:42Z</time></trkpt>
<trkpt lat="45.600388" lon="0.253055"><ele>122.8</ele><time>2010-04-02T09:49:47Z</time></trkpt>
<trkpt lat="45.600227" lon="0.252982"><ele>123.6</ele><time>2010-04-02T09:49:52Z</time></trkpt>
<trkpt lat="45.600060" lon="0.252902"><ele>124.2</ele><time>2010-04-02T09:49:57Z</time></trkpt>
<trkpt lat="45.599892" lon="0.252885"><ele>124.8</ele><time>2010-04-02T09:50:02Z</time></trkpt>
<trkpt lat="45.599732" lon="0.252962"><ele>125.2</ele><time>2010-04-02T09:50:07Z</time></trkpt>
<trkpt lat="45.599587" lon="0.253057"><ele>125.3</ele><time>2010-04-02T09:50:12Z</time></trkpt>
<trkpt lat="45.599465" lon="0.253153"><ele>126.1</ele><time>2010-04-02T09:50:17Z</time></trkpt>
<trkpt lat="45.599350" lon="0.253277"><ele>126.5</ele><time>2010-04-02T09:50:22Z</time></trkpt>
<trkpt lat="45.599247" lon="0.253395"><ele>127.2</ele><time>2010-04-02T09:50:27Z</time></trkpt>
<trkpt lat="45.599148" lon="0.253513"><ele>127.8</ele><time>2010-04-02T09:50:32Z</time></trkpt>
<trkpt lat="45.599057" lon="0.253635"><ele>128.7</ele><time>2010-04-02T09:50:37Z</time></trkpt>
<trkpt lat="45.598972" lon="0.253768"><ele>129.5</ele><time>2010-04-02T09:50:42Z</time></trkpt>
<trkpt lat="45.598897" lon="0.253912"><ele>130</ele><time>2010-04-02T09:50:47Z</time></trkpt>
<trkpt lat="45.598823" lon="0.254063"><ele>130.2</ele><time>2010-04-02T09:50:52Z</time></trkpt>
<trkpt lat="45.598763" lon="0.254225"><ele>131</ele><time>2010-04-02T09:50:57Z</time></trkpt>
<trkpt lat="45.598702" lon="0.254380"><ele>131.8</ele><time>2010-04-02T09:51:02Z</time></trkpt>
<trkpt lat="45.598645" lon="0.254540"><ele>132.8</ele><time>2010-04-02T09:51:07Z</time></trkpt>
<trkpt lat="45.598587" lon="0.254708"><ele>133.6</ele><time>2010-04-02T09:51:12Z</time></trkpt>
<trkpt lat="45.598533" lon="0.254880"><ele>134.4</ele><time>2010-04-02T09:51:17Z</time></trkpt>
<trkpt lat="45.598477" lon="0.255060"><ele>134.9</ele><time>2010-04-02T09:51:22Z</time></trkpt>
<trkpt lat="45.598415" lon="0.255245"><ele>135.3</ele><time>2010-04-02T09:51:27Z</time></trkpt>
<trkpt lat="45.598355" lon="0.255438"><ele>135.6</ele><time>2010-04-02T09:51:32Z</time></trkpt>
<trkpt lat="45.598302" lon="0.255632"><ele>135.9</ele><time>2010-04-02T09:51:37Z</time></trkpt>
<trkpt lat="45.598270" lon="0.255838"><ele>135.9</ele><time>2010-04-02T09:51:42Z</time></trkpt>
<trkpt lat="45.598293" lon="0.256052"><ele>136.3</ele><time>2010-04-02T09:51:47Z</time></trkpt>
<trkpt lat="45.598308" lon="0.256270"><ele>136.4</ele><time>2010-04-02T09:51:52Z</time></trkpt>
<trkpt lat="45.598320" lon="0.256498"><ele>136.6</ele><time>2010-04-02T09:51:57Z</time></trkpt>
<trkpt lat="45.598290" lon="0.256740"><ele>136.6</ele><time>2010-04-02T09:52:02Z</time></trkpt>
<trkpt lat="45.598205" lon="0.256970"><ele>136.6</ele><time>2010-04-02T09:52:07Z</time></trkpt>
<trkpt lat="45.598125" lon="0.257197"><ele>136.8</ele><time>2010-04-02T09:52:12Z</time></trkpt>
<trkpt lat="45.598060" lon="0.257428"><ele>137.3</ele><time>2010-04-02T09:52:17Z</time></trkpt>
<trkpt lat="45.597995" lon="0.257662"><ele>137.5</ele><time>2010-04-02T09:52:22Z</time></trkpt>
<trkpt lat="45.597927" lon="0.257895"><ele>137.9</ele><time>2010-04-02T09:52:27Z</time></trkpt>
<trkpt lat="45.597862" lon="0.258122"><ele>138.3</ele><time>2010-04-02T09:52:32Z</time></trkpt>
<trkpt lat="45.597778" lon="0.258292"><ele>139.4</ele><time>2010-04-02T09:52:37Z</time></trkpt>
<trkpt lat="45.597645" lon="0.258382"><ele>140</ele><time>2010-04-02T09:52:42Z</time></trkpt>
<trkpt lat="45.597500" lon="0.258447"><ele>140.2</ele><time>2010-04-02T09:52:47Z</time></trkpt>
<trkpt lat="45.597363" lon="0.258513"><ele>140.7</ele><time>2010-04-02T09:52:52Z</time></trkpt>
<trkpt lat="45.597222" lon="0.258610"><ele>140.8</ele><time>2010-04-02T09:52:57Z</time></trkpt>
<trkpt lat="45.597083" lon="0.258707"><ele>140.8</ele><time>2010-04-02T09:53:02Z</time></trkpt>
<trkpt lat="45.596950" lon="0.258805"><ele>141</ele><time>2010-04-02T09:53:07Z</time></trkpt>
<trkpt lat="45.596820" lon="0.258922"><ele>141.5</ele><time>2010-04-02T09:53:12Z</time></trkpt>
<trkpt lat="45.596698" lon="0.259038"><ele>141.6</ele><time>2010-04-02T09:53:17Z</time></trkpt>
<trkpt lat="45.596573" lon="0.259167"><ele>141.6</ele><time>2010-04-02T09:53:22Z</time></trkpt>
<trkpt lat="45.596450" lon="0.259303"><ele>142</ele><time>2010-04-02T09:53:27Z</time></trkpt>
<trkpt lat="45.596313" lon="0.259430"><ele>141.8</ele><time>2010-04-02T09:53:32Z</time></trkpt>
<trkpt lat="45.596188" lon="0.259570"><ele>141.4</ele><time>2010-04-02T09:53:37Z</time></trkpt>
<trkpt lat="45.596065" lon="0.259707"><ele>141.3</ele><time>2010-04-02T09:53:42Z</time></trkpt>
<trkpt lat="45.595913" lon="0.259792"><ele>142.2</ele><time>2010-04-02T09:53:47Z</time></trkpt>
<trkpt lat="45.595745" lon="0.259882"><ele>142.9</ele><time>2010-04-02T09:53:52Z</time></trkpt>
<trkpt lat="45.595612" lon="0.260007"><ele>143.4</ele><time>2010-04-02T09:53:57Z</time></trkpt>
<trkpt lat="45.595463" lon="0.260148"><ele>143.5</ele><time>2010-04-02T09:54:02Z</time></trkpt>
<trkpt lat="45.595330" lon="0.260260"><ele>144.6</ele><time>2010-04-02T09:54:07Z</time></trkpt>
<trkpt lat="45.595203" lon="0.260342"><ele>145.7</ele><time>2010-04-02T09:54:12Z</time></trkpt>
<trkpt lat="45.595067" lon="0.260437"><ele>146.3</ele><time>2010-04-02T09:54:17Z</time></trkpt>
<trkpt lat="45.594937" lon="0.260540"><ele>146.5</ele><time>2010-04-02T09:54:22Z</time></trkpt>
<trkpt lat="45.594810" lon="0.260657"><ele>146.7</ele><time>2010-04-02T09:54:27Z</time></trkpt>
<trkpt lat="45.594677" lon="0.260773"><ele>146.4</ele><time>2010-04-02T09:54:32Z</time></trkpt>
<trkpt lat="45.594540" lon="0.260880"><ele>147.5</ele><time>2010-04-02T09:54:37Z</time></trkpt>
<trkpt lat="45.594487" lon="0.260967"><ele>147.8</ele><time>2010-04-02T09:54:42Z</time></trkpt>
<trkpt lat="45.594482" lon="0.260965"><ele>147.8</ele><time>2010-04-02T09:54:47Z</time></trkpt>
<trkpt lat="45.594472" lon="0.260950"><ele>148.7</ele><time>2010-04-02T09:54:52Z</time></trkpt>
<trkpt lat="45.594472" lon="0.260955"><ele>148.7</ele><time>2010-04-02T09:54:57Z</time></trkpt>
<trkpt lat="45.594472" lon="0.260940"><ele>149.5</ele><time>2010-04-02T09:55:02Z</time></trkpt>
<trkpt lat="45.594455" lon="0.260892"><ele>153</ele><time>2010-04-02T09:55:07Z</time></trkpt>
<trkpt lat="45.594460" lon="0.260872"><ele>154.6</ele><time>2010-04-02T09:55:12Z</time></trkpt>
<trkpt lat="45.594418" lon="0.260860"><ele>155.3</ele><time>2010-04-02T09:55:17Z</time></trkpt>
<trkpt lat="45.594318" lon="0.260827"><ele>156</ele><time>2010-04-02T09:55:22Z</time></trkpt>
<trkpt lat="45.594200" lon="0.260762"><ele>157.4</ele><time>2010-04-02T09:55:27Z</time></trkpt>
<trkpt lat="45.594040" lon="0.260722"><ele>157.2</ele><time>2010-04-02T09:55:32Z</time></trkpt>
<trkpt lat="45.593898" lon="0.260643"><ele>157.6</ele><time>2010-04-02T09:55:37Z</time></trkpt>
<trkpt lat="45.593712" lon="0.260545"><ele>157.9</ele><time>2010-04-02T09:55:42Z</time></trkpt>
<trkpt lat="45.593498" lon="0.260458"><ele>158.1</ele><time>2010-04-02T09:55:47Z</time></trkpt>
<trkpt lat="45.593280" lon="0.260398"><ele>157.6</ele><time>2010-04-02T09:55:52Z</time></trkpt>
<trkpt lat="45.593078" lon="0.260373"><ele>156.3</ele><time>2010-04-02T09:55:57Z</time></trkpt>
<trkpt lat="45.592877" lon="0.260328"><ele>156.7</ele><time>2010-04-02T09:56:02Z</time></trkpt>
<trkpt lat="45.592693" lon="0.260265"><ele>155.9</ele><time>2010-04-02T09:56:07Z</time></trkpt>
<trkpt lat="45.592530" lon="0.260245"><ele>155.7</ele><time>2010-04-02T09:56:12Z</time></trkpt>
<trkpt lat="45.592373" lon="0.260183"><ele>155.5</ele><time>2010-04-02T09:56:17Z</time></trkpt>
<trkpt lat="45.592223" lon="0.260087"><ele>155.7</ele><time>2010-04-02T09:56:22Z</time></trkpt>
<trkpt lat="45.592098" lon="0.260012"><ele>156.1</ele><time>2010-04-02T09:56:27Z</time></trkpt>
<trkpt lat="45.591962" lon="0.259918"><ele>157.2</ele><time>2010-04-02T09:56:32Z</time></trkpt>
<trkpt lat="45.591785" lon="0.259845"><ele>155.6</ele><time>2010-04-02T09:56:37Z</time></trkpt>
<trkpt lat="45.591598" lon="0.259725"><ele>155.9</ele><time>2010-04-02T09:56:42Z</time></trkpt>
<trkpt lat="45.591408" lon="0.259560"><ele>155.9</ele><time>2010-04-02T09:56:47Z</time></trkpt>
<trkpt lat="45.591198" lon="0.259393"><ele>154.9</ele><time>2010-04-02T09:56:52Z</time></trkpt>
<trkpt lat="45.590980" lon="0.259240"><ele>155.9</ele><time>2010-04-02T09:56:57Z</time></trkpt>
<trkpt lat="45.590760" lon="0.259107"><ele>157.6</ele><time>2010-04-02T09:57:02Z</time></trkpt>
<trkpt lat="45.590542" lon="0.259008"><ele>158.3</ele><time>2010-04-02T09:57:07Z</time></trkpt>
<trkpt lat="45.590355" lon="0.258995"><ele>158.2</ele><time>2010-04-02T09:57:12Z</time></trkpt>
<trkpt lat="45.590183" lon="0.258965"><ele>157.2</ele><time>2010-04-02T09:57:17Z</time></trkpt>
<trkpt lat="45.590115" lon="0.258878"><ele>156</ele><time>2010-04-02T09:57:22Z</time></trkpt>
<trkpt lat="45.590073" lon="0.258798"><ele>156.1</ele><time>2010-04-02T09:57:27Z</time></trkpt>
<trkpt lat="45.590015" lon="0.258707"><ele>156.5</ele><time>2010-04-02T09:57:32Z</time></trkpt>
<trkpt lat="45.589928" lon="0.258633"><ele>156.6</ele><time>2010-04-02T09:57:37Z</time></trkpt>
<trkpt lat="45.589863" lon="0.258545"><ele>156.9</ele><time>2010-04-02T09:57:42Z</time></trkpt>
<trkpt lat="45.589790" lon="0.258442"><ele>157.4</ele><time>2010-04-02T09:57:47Z</time></trkpt>
<trkpt lat="45.589713" lon="0.258303"><ele>158.4</ele><time>2010-04-02T09:57:52Z</time></trkpt>
<trkpt lat="45.589660" lon="0.258175"><ele>160</ele><time>2010-04-02T09:57:57Z</time></trkpt>
<trkpt lat="45.589577" lon="0.258047"><ele>161.4</ele><time>2010-04-02T09:58:02Z</time></trkpt>
<trkpt lat="45.589488" lon="0.257933"><ele>163.6</ele><time>2010-04-02T09:58:07Z</time></trkpt>
<trkpt lat="45.589402" lon="0.257810"><ele>165.2</ele><time>2010-04-02T09:58:12Z</time></trkpt>
<trkpt lat="45.589328" lon="0.257650"><ele>165.2</ele><time>2010-04-02T09:58:17Z</time></trkpt>
<trkpt lat="45.589295" lon="0.257447"><ele>163.7</ele><time>2010-04-02T09:58:22Z</time></trkpt>
<trkpt lat="45.589177" lon="0.257330"><ele>164.6</ele><time>2010-04-02T09:58:27Z</time></trkpt>
<trkpt lat="45.589062" lon="0.257253"><ele>164.2</ele><time>2010-04-02T09:58:32Z</time></trkpt>
<trkpt lat="45.588955" lon="0.257115"><ele>162.9</ele><time>2010-04-02T09:58:37Z</time></trkpt>
<trkpt lat="45.588893" lon="0.257022"><ele>162.8</ele><time>2010-04-02T09:58:42Z</time></trkpt>
<trkpt lat="45.588878" lon="0.256943"><ele>162.1</ele><time>2010-04-02T09:58:47Z</time></trkpt>
<trkpt lat="45.588863" lon="0.256850"><ele>163.3</ele><time>2010-04-02T09:58:52Z</time></trkpt>
<trkpt lat="45.588802" lon="0.256703"><ele>163.1</ele><time>2010-04-02T09:58:57Z</time></trkpt>
<trkpt lat="45.588745" lon="0.256588"><ele>162.3</ele><time>2010-04-02T09:59:02Z</time></trkpt>
<trkpt lat="45.588680" lon="0.256493"><ele>161.7</ele><time>2010-04-02T09:59:07Z</time></trkpt>
<trkpt lat="45.588603" lon="0.256383"><ele>161.5</ele><time>2010-04-02T09:59:12Z</time></trkpt>
<trkpt lat="45.588520" lon="0.256290"><ele>162.5</ele><time>2010-04-02T09:59:17Z</time></trkpt>
<trkpt lat="45.588432" lon="0.256195"><ele>164.1</ele><time>2010-04-02T09:59:22Z</time></trkpt>
<trkpt lat="45.588325" lon="0.256122"><ele>165</ele><time>2010-04-02T09:59:27Z</time></trkpt>
<trkpt lat="45.588257" lon="0.256037"><ele>166.1</ele><time>2010-04-02T09:59:32Z</time></trkpt>
<trkpt lat="45.588188" lon="0.255958"><ele>167.2</ele><time>2010-04-02T09:59:37Z</time></trkpt>
<trkpt lat="45.588150" lon="0.255902"><ele>167</ele><time>2010-04-02T09:59:42Z</time></trkpt>
<trkpt lat="45.588115" lon="0.255848"><ele>165.6</ele><time>2010-04-02T09:59:47Z</time></trkpt>
<trkpt lat="45.588067" lon="0.255787"><ele>165</ele><time>2010-04-02T09:59:52Z</time></trkpt>
<trkpt lat="45.588013" lon="0.255715"><ele>164.9</ele><time>2010-04-02T09:59:57Z</time></trkpt>
<trkpt lat="45.587975" lon="0.255638"><ele>165.8</ele><time>2010-04-02T10:00:02Z</time></trkpt>
<trkpt lat="45.587928" lon="0.255517"><ele>165.5</ele><time>2010-04-02T10:00:07Z</time></trkpt>
<trkpt lat="45.587872" lon="0.255402"><ele>165</ele><time>2010-04-02T10:00:12Z</time></trkpt>
<trkpt lat="45.587803" lon="0.255345"><ele>164.1</ele><time>2010-04-02T10:00:17Z</time></trkpt>
<trkpt lat="45.587745" lon="0.255275"><ele>165.8</ele><time>2010-04-02T10:00:22Z</time></trkpt>
<trkpt lat="45.587662" lon="0.255190"><ele>169.3</ele><time>2010-04-02T10:00:27Z</time></trkpt>
<trkpt lat="45.587578" lon="0.255080"><ele>171.4</ele><time>2010-04-02T10:00:32Z</time></trkpt>
<trkpt lat="45.587482" lon="0.255015"><ele>172.8</ele><time>2010-04-02T10:00:37Z</time></trkpt>
<trkpt lat="45.587395" lon="0.254900"><ele>174</ele><time>2010-04-02T10:00:42Z</time></trkpt>
<trkpt lat="45.587318" lon="0.254773"><ele>175.6</ele><time>2010-04-02T10:00:47Z</time></trkpt>
<trkpt lat="45.587247" lon="0.254638"><ele>176.7</ele><time>2010-04-02T10:00:52Z</time></trkpt>
<trkpt lat="45.587147" lon="0.254515"><ele>177.6</ele><time>2010-04-02T10:00:57Z</time></trkpt>
<trkpt lat="45.587082" lon="0.254413"><ele>174.6</ele><time>2010-04-02T10:01:02Z</time></trkpt>
<trkpt lat="45.587070" lon="0.254378"><ele>170.7</ele><time>2010-04-02T10:01:07Z</time></trkpt>
<trkpt lat="45.587017" lon="0.254202"><ele>167.7</ele><time>2010-04-02T10:01:12Z</time></trkpt>
<trkpt lat="45.586922" lon="0.254012"><ele>166.8</ele><time>2010-04-02T10:01:17Z</time></trkpt>
<trkpt lat="45.586857" lon="0.253827"><ele>167.3</ele><time>2010-04-02T10:01:22Z</time></trkpt>
<trkpt lat="45.586868" lon="0.253628"><ele>165.8</ele><time>2010-04-02T10:01:27Z</time></trkpt>
<trkpt lat="45.586830" lon="0.253415"><ele>164.6</ele><time>2010-04-02T10:01:32Z</time></trkpt>
<trkpt lat="45.586753" lon="0.253200"><ele>163.4</ele><time>2010-04-02T10:01:37Z</time></trkpt>
<trkpt lat="45.586658" lon="0.252992"><ele>162.1</ele><time>2010-04-02T10:01:42Z</time></trkpt>
<trkpt lat="45.586552" lon="0.252793"><ele>162.3</ele><time>2010-04-02T10:01:47Z</time></trkpt>
<trkpt lat="45.586490" lon="0.252690"><ele>162.7</ele><time>2010-04-02T10:01:52Z</time></trkpt>
<trkpt lat="45.586498" lon="0.252693"><ele>161.9</ele><time>2010-04-02T10:01:57Z</time></trkpt>
<trkpt lat="45.586487" lon="0.252675"><ele>162</ele><time>2010-04-02T10:02:02Z</time></trkpt>
<trkpt lat="45.586407" lon="0.252545"><ele>162.3</ele><time>2010-04-02T10:02:07Z</time></trkpt>
<trkpt lat="45.586312" lon="0.252408"><ele>162</ele><time>2010-04-02T10:02:12Z</time></trkpt>
<trkpt lat="45.586270" lon="0.252333"><ele>161.8</ele><time>2010-04-02T10:02:17Z</time></trkpt>
<trkpt lat="45.586273" lon="0.252325"><ele>162.4</ele><time>2010-04-02T10:02:22Z</time></trkpt>
<trkpt lat="45.586270" lon="0.252322"><ele>162.5</ele><time>2010-04-02T10:02:27Z</time></trkpt>
<trkpt lat="45.586273" lon="0.252322"><ele>161.3</ele><time>2010-04-02T10:02:32Z</time></trkpt>
<trkpt lat="45.586270" lon="0.252327"><ele>160.6</ele><time>2010-04-02T10:02:37Z</time></trkpt>
<trkpt lat="45.586270" lon="0.252328"><ele>160.3</ele><time>2010-04-02T10:02:42Z</time></trkpt>
<trkpt lat="45.586273" lon="0.252328"><ele>160.1</ele><time>2010-04-02T10:02:47Z</time></trkpt>
<trkpt lat="45.586250" lon="0.252308"><ele>160.3</ele><time>2010-04-02T10:02:52Z</time></trkpt>
<trkpt lat="45.586158" lon="0.252178"><ele>159.6</ele><time>2010-04-02T10:02:57Z</time></trkpt>
<trkpt lat="45.586025" lon="0.252020"><ele>159</ele><time>2010-04-02T10:03:02Z</time></trkpt>
<trkpt lat="45.585907" lon="0.251982"><ele>158.1</ele><time>2010-04-02T10:03:07Z</time></trkpt>
<trkpt lat="45.585773" lon="0.252118"><ele>156.4</ele><time>2010-04-02T10:03:12Z</time></trkpt>
<trkpt lat="45.585637" lon="0.252197"><ele>153.9</ele><time>2010-04-02T10:03:17Z</time></trkpt>
<trkpt lat="45.585525" lon="0.251952"><ele>151.2</ele><time>2010-04-02T10:03:22Z</time></trkpt>
<trkpt lat="45.585423" lon="0.251650"><ele>149.6</ele><time>2010-04-02T10:03:27Z</time></trkpt>
<trkpt lat="45.585323" lon="0.251418"><ele>148.5</ele><time>2010-04-02T10:03:32Z</time></trkpt>
<trkpt lat="45.585232" lon="0.251200"><ele>147.1</ele><time>2010-04-02T10:03:37Z</time></trkpt>
<trkpt lat="45.585128" lon="0.250947"><ele>146.4</ele><time>2010-04-02T10:03:42Z</time></trkpt>
<trkpt lat="45.585030" lon="0.250715"><ele>147.2</ele><time>2010-04-02T10:03:47Z</time></trkpt>
<trkpt lat="45.584923" lon="0.250472"><ele>148.3</ele><time>2010-04-02T10:03:52Z</time></trkpt>
<trkpt lat="45.584805" lon="0.250233"><ele>148.9</ele><time>2010-04-02T10:03:57Z</time></trkpt>
<trkpt lat="45.584720" lon="0.249988"><ele>149.4</ele><time>2010-04-02T10:04:02Z</time></trkpt>
<trkpt lat="45.584625" lon="0.249747"><ele>151.2</ele><time>2010-04-02T10:04:07Z</time></trkpt>
<trkpt lat="45.584488" lon="0.249512"><ele>152.2</ele><time>2010-04-02T10:04:12Z</time></trkpt>
<trkpt lat="45.584332" lon="0.249293"><ele>153.8</ele><time>2010-04-02T10:04:17Z</time></trkpt>
<trkpt lat="45.584172" lon="0.249090"><ele>157</ele><time>2010-04-02T10:04:22Z</time></trkpt>
<trkpt lat="45.584018" lon="0.248948"><ele>159</ele><time>2010-04-02T10:04:27Z</time></trkpt>
<trkpt lat="45.583927" lon="0.248737"><ele>156.8</ele><time>2010-04-02T10:04:32Z</time></trkpt>
<trkpt lat="45.583813" lon="0.248502"><ele>154</ele><time>2010-04-02T10:04:37Z</time></trkpt>
<trkpt lat="45.583672" lon="0.248298"><ele>151.4</ele><time>2010-04-02T10:04:42Z</time></trkpt>
<trkpt lat="45.583515" lon="0.248130"><ele>148.3</ele><time>2010-04-02T10:04:47Z</time></trkpt>
<trkpt lat="45.583332" lon="0.247953"><ele>145.6</ele><time>2010-04-02T10:04:52Z</time></trkpt>
<trkpt lat="45.583142" lon="0.247783"><ele>144.6</ele><time>2010-04-02T10:04:57Z</time></trkpt>
<trkpt lat="45.582962" lon="0.247578"><ele>145.5</ele><time>2010-04-02T10:05:02Z</time></trkpt>
<trkpt lat="45.582828" lon="0.247345"><ele>146.8</ele><time>2010-04-02T10:05:07Z</time></trkpt>
<trkpt lat="45.582710" lon="0.247137"><ele>148</ele><time>2010-04-02T10:05:12Z</time></trkpt>
<trkpt lat="45.582618" lon="0.246933"><ele>147.9</ele><time>2010-04-02T10:05:17Z</time></trkpt>
<trkpt lat="45.582580" lon="0.246607"><ele>146.4</ele><time>2010-04-02T10:05:22Z</time></trkpt>
<trkpt lat="45.582512" lon="0.246295"><ele>146.1</ele><time>2010-04-02T10:05:27Z</time></trkpt>
<trkpt lat="45.582447" lon="0.245978"><ele>145.7</ele><time>2010-04-02T10:05:32Z</time></trkpt>
<trkpt lat="45.582348" lon="0.245672"><ele>144.5</ele><time>2010-04-02T10:05:37Z</time></trkpt>
<trkpt lat="45.582260" lon="0.245350"><ele>144.3</ele><time>2010-04-02T10:05:42Z</time></trkpt>
<trkpt lat="45.582165" lon="0.245032"><ele>144.3</ele><time>2010-04-02T10:05:47Z</time></trkpt>
<trkpt lat="45.582100" lon="0.244705"><ele>144.9</ele><time>2010-04-02T10:05:52Z</time></trkpt>
<trkpt lat="45.582050" lon="0.244333"><ele>145.2</ele><time>2010-04-02T10:05:57Z</time></trkpt>
<trkpt lat="45.581925" lon="0.244037"><ele>145.3</ele><time>2010-04-02T10:06:02Z</time></trkpt>
<trkpt lat="45.581802" lon="0.243688"><ele>144.3</ele><time>2010-04-02T10:06:07Z</time></trkpt>
<trkpt lat="45.581688" lon="0.243277"><ele>143.4</ele><time>2010-04-02T10:06:12Z</time></trkpt>
<trkpt lat="45.581600" lon="0.242900"><ele>143.3</ele><time>2010-04-02T10:06:17Z</time></trkpt>
<trkpt lat="45.581538" lon="0.242540"><ele>144.4</ele><time>2010-04-02T10:06:22Z</time></trkpt>
<trkpt lat="45.581478" lon="0.242157"><ele>145.6</ele><time>2010-04-02T10:06:27Z</time></trkpt>
<trkpt lat="45.581413" lon="0.241755"><ele>143.8</ele><time>2010-04-02T10:06:32Z</time></trkpt>
<trkpt lat="45.581313" lon="0.241393"><ele>143.1</ele><time>2010-04-02T10:06:37Z</time></trkpt>
<trkpt lat="45.581200" lon="0.241130"><ele>142.9</ele><time>2010-04-02T10:06:42Z</time></trkpt>
<trkpt lat="45.581073" lon="0.240755"><ele>142.6</ele><time>2010-04-02T10:06:47Z</time></trkpt>
<trkpt lat="45.580978" lon="0.240395"><ele>141.9</ele><time>2010-04-02T10:06:52Z</time></trkpt>
<trkpt lat="45.580933" lon="0.239995"><ele>142.5</ele><time>2010-04-02T10:06:57Z</time></trkpt>
<trkpt lat="45.580890" lon="0.239605"><ele>142.6</ele><time>2010-04-02T10:07:02Z</time></trkpt>
<trkpt lat="45.580825" lon="0.239240"><ele>142.7</ele><time>2010-04-02T10:07:07Z</time></trkpt>
<trkpt lat="45.580730" lon="0.238863"><ele>142.1</ele><time>2010-04-02T10:07:12Z</time></trkpt>
<trkpt lat="45.580638" lon="0.238493"><ele>140.8</ele><time>2010-04-02T10:07:17Z</time></trkpt>
<trkpt lat="45.580555" lon="0.238113"><ele>139</ele><time>2010-04-02T10:07:22Z</time></trkpt>
<trkpt lat="45.580478" lon="0.237678"><ele>135.9</ele><time>2010-04-02T10:07:27Z</time></trkpt>
<trkpt lat="45.580387" lon="0.237353"><ele>133</ele><time>2010-04-02T10:07:32Z</time></trkpt>
<trkpt lat="45.580360" lon="0.237133"><ele>131.4</ele><time>2010-04-02T10:07:37Z</time></trkpt>
<trkpt lat="45.580303" lon="0.236918"><ele>130.1</ele><time>2010-04-02T10:07:42Z</time></trkpt>
<trkpt lat="45.580112" lon="0.236648"><ele>128.2</ele><time>2010-04-02T10:07:47Z</time></trkpt>
<trkpt lat="45.579910" lon="0.236313"><ele>126</ele><time>2010-04-02T10:07:52Z</time></trkpt>
<trkpt lat="45.579685" lon="0.235960"><ele>124</ele><time>2010-04-02T10:07:57Z</time></trkpt>
<trkpt lat="45.579463" lon="0.235602"><ele>122.1</ele><time>2010-04-02T10:08:02Z</time></trkpt>
<trkpt lat="45.579250" lon="0.235250"><ele>120.4</ele><time>2010-04-02T10:08:07Z</time></trkpt>
<trkpt lat="45.579018" lon="0.234940"><ele>118.6</ele><time>2010-04-02T10:08:12Z</time></trkpt>
<trkpt lat="45.578738" lon="0.234687"><ele>116.6</ele><time>2010-04-02T10:08:17Z</time></trkpt>
<trkpt lat="45.578510" lon="0.234475"><ele>115.9</ele><time>2010-04-02T10:08:22Z</time></trkpt>
<trkpt lat="45.578572" lon="0.234263"><ele>115.3</ele><time>2010-04-02T10:08:27Z</time></trkpt>
<trkpt lat="45.578723" lon="0.233997"><ele>115.3</ele><time>2010-04-02T10:08:32Z</time></trkpt>
<trkpt lat="45.578877" lon="0.233743"><ele>115.5</ele><time>2010-04-02T10:08:37Z</time></trkpt>
<trkpt lat="45.579010" lon="0.233487"><ele>115.8</ele><time>2010-04-02T10:08:42Z</time></trkpt>
<trkpt lat="45.579110" lon="0.233187"><ele>116.3</ele><time>2010-04-02T10:08:47Z</time></trkpt>
<trkpt lat="45.579205" lon="0.232867"><ele>116.8</ele><time>2010-04-02T10:08:52Z</time></trkpt>
<trkpt lat="45.579303" lon="0.232545"><ele>117.1</ele><time>2010-04-02T10:08:57Z</time></trkpt>
<trkpt lat="45.579418" lon="0.232233"><ele>118</ele><time>2010-04-02T10:09:02Z</time></trkpt>
<trkpt lat="45.579575" lon="0.231957"><ele>118.7</ele><time>2010-04-02T10:09:07Z</time></trkpt>
<trkpt lat="45.579750" lon="0.231697"><ele>119.2</ele><time>2010-04-02T10:09:12Z</time></trkpt>
<trkpt lat="45.579913" lon="0.231430"><ele>118.8</ele><time>2010-04-02T10:09:17Z</time></trkpt>
<trkpt lat="45.580043" lon="0.231093"><ele>118.7</ele><time>2010-04-02T10:09:22Z</time></trkpt>
<trkpt lat="45.580052" lon="0.230742"><ele>118.6</ele><time>2010-04-02T10:09:27Z</time></trkpt>
<trkpt lat="45.579975" lon="0.230485"><ele>119.9</ele><time>2010-04-02T10:09:32Z</time></trkpt>
<trkpt lat="45.579853" lon="0.230317"><ele>120.3</ele><time>2010-04-02T10:09:37Z</time></trkpt>
<trkpt lat="45.579777" lon="0.230135"><ele>120.7</ele><time>2010-04-02T10:09:42Z</time></trkpt>
<trkpt lat="45.579700" lon="0.229945"><ele>122.1</ele><time>2010-04-02T10:09:47Z</time></trkpt>
<trkpt lat="45.579625" lon="0.229752"><ele>122.9</ele><time>2010-04-02T10:09:52Z</time></trkpt>
<trkpt lat="45.579552" lon="0.229567"><ele>123.9</ele><time>2010-04-02T10:09:57Z</time></trkpt>
<trkpt lat="45.579490" lon="0.229378"><ele>124.4</ele><time>2010-04-02T10:10:02Z</time></trkpt>
<trkpt lat="45.579422" lon="0.229200"><ele>125</ele><time>2010-04-02T10:10:07Z</time></trkpt>
<trkpt lat="45.579357" lon="0.229043"><ele>126</ele><time>2010-04-02T10:10:12Z</time></trkpt>
<trkpt lat="45.579308" lon="0.228877"><ele>127.6</ele><time>2010-04-02T10:10:17Z</time></trkpt>
<trkpt lat="45.579273" lon="0.228705"><ele>128.6</ele><time>2010-04-02T10:10:22Z</time></trkpt>
<trkpt lat="45.579243" lon="0.228547"><ele>129.4</ele><time>2010-04-02T10:10:27Z</time></trkpt>
<trkpt lat="45.579227" lon="0.228387"><ele>130.1</ele><time>2010-04-02T10:10:32Z</time></trkpt>
<trkpt lat="45.579220" lon="0.228228"><ele>130.5</ele><time>2010-04-02T10:10:37Z</time></trkpt>
<trkpt lat="45.579205" lon="0.228063"><ele>131.7</ele><time>2010-04-02T10:10:42Z</time></trkpt>
<trkpt lat="45.579193" lon="0.227893"><ele>132.5</ele><time>2010-04-02T10:10:47Z</time></trkpt>
<trkpt lat="45.579193" lon="0.227715"><ele>132.3</ele><time>2010-04-02T10:10:52Z</time></trkpt>
<trkpt lat="45.579182" lon="0.227555"><ele>133.4</ele><time>2010-04-02T10:10:57Z</time></trkpt>
<trkpt lat="45.579155" lon="0.227400"><ele>134.3</ele><time>2010-04-02T10:11:02Z</time></trkpt>
<trkpt lat="45.579063" lon="0.227282"><ele>134.5</ele><time>2010-04-02T10:11:07Z</time></trkpt>
<trkpt lat="45.578927" lon="0.227230"><ele>134.3</ele><time>2010-04-02T10:11:12Z</time></trkpt>
<trkpt lat="45.578793" lon="0.227185"><ele>134.1</ele><time>2010-04-02T10:11:17Z</time></trkpt>
<trkpt lat="45.578667" lon="0.227133"><ele>133.8</ele><time>2010-04-02T10:11:22Z</time></trkpt>
<trkpt lat="45.578540" lon="0.227093"><ele>133.7</ele><time>2010-04-02T10:11:27Z</time></trkpt>
<trkpt lat="45.578418" lon="0.227038"><ele>134</ele><time>2010-04-02T10:11:32Z</time></trkpt>
<trkpt lat="45.578305" lon="0.226987"><ele>134.6</ele><time>2010-04-02T10:11:37Z</time></trkpt>
<trkpt lat="45.578187" lon="0.226943"><ele>135.2</ele><time>2010-04-02T10:11:42Z</time></trkpt>
<trkpt lat="45.578068" lon="0.226902"><ele>135.9</ele><time>2010-04-02T10:11:47Z</time></trkpt>
<trkpt lat="45.577950" lon="0.226863"><ele>136.9</ele><time>2010-04-02T10:11:52Z</time></trkpt>
<trkpt lat="45.577832" lon="0.226827"><ele>137.6</ele><time>2010-04-02T10:11:57Z</time></trkpt>
<trkpt lat="45.577717" lon="0.226792"><ele>138.1</ele><time>2010-04-02T10:12:02Z</time></trkpt>
<trkpt lat="45.577613" lon="0.226723"><ele>139.1</ele><time>2010-04-02T10:12:07Z</time></trkpt>
<trkpt lat="45.577518" lon="0.226655"><ele>140.2</ele><time>2010-04-02T10:12:12Z</time></trkpt>
<trkpt lat="45.577415" lon="0.226602"><ele>141.6</ele><time>2010-04-02T10:12:17Z</time></trkpt>
<trkpt lat="45.577308" lon="0.226555"><ele>143.1</ele><time>2010-04-02T10:12:22Z</time></trkpt>
<trkpt lat="45.577205" lon="0.226518"><ele>144.7</ele><time>2010-04-02T10:12:27Z</time></trkpt>
<trkpt lat="45.577110" lon="0.226468"><ele>146.6</ele><time>2010-04-02T10:12:32Z</time></trkpt>
<trkpt lat="45.577000" lon="0.226440"><ele>148.1</ele><time>2010-04-02T10:12:37Z</time></trkpt>
<trkpt lat="45.576862" lon="0.226415"><ele>148.1</ele><time>2010-04-02T10:12:42Z</time></trkpt>
<trkpt lat="45.576737" lon="0.226407"><ele>148.4</ele><time>2010-04-02T10:12:47Z</time></trkpt>
<trkpt lat="45.576610" lon="0.226355"><ele>148.6</ele><time>2010-04-02T10:12:52Z</time></trkpt>
<trkpt lat="45.576488" lon="0.226293"><ele>148.8</ele><time>2010-04-02T10:12:57Z</time></trkpt>
<trkpt lat="45.576343" lon="0.226272"><ele>149</ele><time>2010-04-02T10:13:02Z</time></trkpt>
<trkpt lat="45.576198" lon="0.226240"><ele>148.3</ele><time>2010-04-02T10:13:07Z</time></trkpt>
<trkpt lat="45.576053" lon="0.226187"><ele>147.8</ele><time>2010-04-02T10:13:12Z</time></trkpt>
<trkpt lat="45.575902" lon="0.226128"><ele>148.1</ele><time>2010-04-02T10:13:17Z</time></trkpt>
<trkpt lat="45.575752" lon="0.226065"><ele>149</ele><time>2010-04-02T10:13:22Z</time></trkpt>
<trkpt lat="45.575592" lon="0.226022"><ele>149.3</ele><time>2010-04-02T10:13:27Z</time></trkpt>
<trkpt lat="45.575485" lon="0.225970"><ele>149.5</ele><time>2010-04-02T10:13:32Z</time></trkpt>
<trkpt lat="45.575478" lon="0.225987"><ele>150.4</ele><time>2010-04-02T10:13:37Z</time></trkpt>
<trkpt lat="45.575482" lon="0.225982"><ele>152</ele><time>2010-04-02T10:13:42Z</time></trkpt>
<trkpt lat="45.575478" lon="0.225985"><ele>151.9</ele><time>2010-04-02T10:13:47Z</time></trkpt>
<trkpt lat="45.575478" lon="0.225992"><ele>152.8</ele><time>2010-04-02T10:13:52Z</time></trkpt>
<trkpt lat="45.575425" lon="0.225940"><ele>150.9</ele><time>2010-04-02T10:13:57Z</time></trkpt>
<trkpt lat="45.575287" lon="0.225910"><ele>150</ele><time>2010-04-02T10:14:02Z</time></trkpt>
<trkpt lat="45.575123" lon="0.225825"><ele>149.1</ele><time>2010-04-02T10:14:07Z</time></trkpt>
<trkpt lat="45.574952" lon="0.225742"><ele>148.5</ele><time>2010-04-02T10:14:12Z</time></trkpt>
<trkpt lat="45.574787" lon="0.225633"><ele>148.5</ele><time>2010-04-02T10:14:17Z</time></trkpt>
<trkpt lat="45.574615" lon="0.225515"><ele>148.1</ele><time>2010-04-02T10:14:22Z</time></trkpt>
<trkpt lat="45.574443" lon="0.225403"><ele>147.5</ele><time>2010-04-02T10:14:27Z</time></trkpt>
<trkpt lat="45.574280" lon="0.225282"><ele>146.7</ele><time>2010-04-02T10:14:32Z</time></trkpt>
<trkpt lat="45.574120" lon="0.225183"><ele>146.8</ele><time>2010-04-02T10:14:37Z</time></trkpt>
<trkpt lat="45.573970" lon="0.225060"><ele>147.6</ele><time>2010-04-02T10:14:42Z</time></trkpt>
<trkpt lat="45.573795" lon="0.224955"><ele>148.2</ele><time>2010-04-02T10:14:47Z</time></trkpt>
<trkpt lat="45.573612" lon="0.224898"><ele>148.4</ele><time>2010-04-02T10:14:52Z</time></trkpt>
<trkpt lat="45.573425" lon="0.224842"><ele>148.2</ele><time>2010-04-02T10:14:57Z</time></trkpt>
<trkpt lat="45.573247" lon="0.224770"><ele>148.8</ele><time>2010-04-02T10:15:02Z</time></trkpt>
<trkpt lat="45.573058" lon="0.224715"><ele>148.9</ele><time>2010-04-02T10:15:07Z</time></trkpt>
<trkpt lat="45.572877" lon="0.224778"><ele>148.5</ele><time>2010-04-02T10:15:12Z</time></trkpt>
<trkpt lat="45.572735" lon="0.224952"><ele>148</ele><time>2010-04-02T10:15:17Z</time></trkpt>
<trkpt lat="45.572605" lon="0.225173"><ele>147.9</ele><time>2010-04-02T10:15:22Z</time></trkpt>
<trkpt lat="45.572457" lon="0.225417"><ele>147.1</ele><time>2010-04-02T10:15:27Z</time></trkpt>
<trkpt lat="45.572327" lon="0.225698"><ele>146.2</ele><time>2010-04-02T10:15:32Z</time></trkpt>
<trkpt lat="45.572285" lon="0.226025"><ele>144.9</ele><time>2010-04-02T10:15:37Z</time></trkpt>
<trkpt lat="45.572235" lon="0.226362"><ele>143.2</ele><time>2010-04-02T10:15:42Z</time></trkpt>
<trkpt lat="45.572185" lon="0.226682"><ele>142.4</ele><time>2010-04-02T10:15:47Z</time></trkpt>
<trkpt lat="45.572105" lon="0.226970"><ele>142.3</ele><time>2010-04-02T10:15:52Z</time></trkpt>
<trkpt lat="45.572013" lon="0.227232"><ele>142.9</ele><time>2010-04-02T10:15:57Z</time></trkpt>
<trkpt lat="45.571927" lon="0.227472"><ele>143.2</ele><time>2010-04-02T10:16:02Z</time></trkpt>
<trkpt lat="45.571835" lon="0.227723"><ele>144.6</ele><time>2010-04-02T10:16:07Z</time></trkpt>
<trkpt lat="45.571732" lon="0.227968"><ele>145.3</ele><time>2010-04-02T10:16:12Z</time></trkpt>
<trkpt lat="45.571643" lon="0.228247"><ele>145.6</ele><time>2010-04-02T10:16:17Z</time></trkpt>
<trkpt lat="45.571637" lon="0.228562"><ele>145.7</ele><time>2010-04-02T10:16:22Z</time></trkpt>
<trkpt lat="45.571575" lon="0.228888"><ele>145.3</ele><time>2010-04-02T10:16:27Z</time></trkpt>
<trkpt lat="45.571507" lon="0.229240"><ele>144.7</ele><time>2010-04-02T10:16:32Z</time></trkpt>
<trkpt lat="45.571492" lon="0.229615"><ele>144</ele><time>2010-04-02T10:16:37Z</time></trkpt>
<trkpt lat="45.571572" lon="0.229965"><ele>143.1</ele><time>2010-04-02T10:16:42Z</time></trkpt>
<trkpt lat="45.571598" lon="0.230352"><ele>141.9</ele><time>2010-04-02T10:16:47Z</time></trkpt>
<trkpt lat="45.571605" lon="0.230757"><ele>140.5</ele><time>2010-04-02T10:16:52Z</time></trkpt>
<trkpt lat="45.571675" lon="0.231115"><ele>140.4</ele><time>2010-04-02T10:16:57Z</time></trkpt>
<trkpt lat="45.571853" lon="0.231347"><ele>140.8</ele><time>2010-04-02T10:17:02Z</time></trkpt>
<trkpt lat="45.572040" lon="0.231615"><ele>140.4</ele><time>2010-04-02T10:17:07Z</time></trkpt>
<trkpt lat="45.572227" lon="0.231907"><ele>138.6</ele><time>2010-04-02T10:17:12Z</time></trkpt>
<trkpt lat="45.572380" lon="0.232065"><ele>137.3</ele><time>2010-04-02T10:17:17Z</time></trkpt>
<trkpt lat="45.572395" lon="0.232068"><ele>137.1</ele><time>2010-04-02T10:17:22Z</time></trkpt>
<trkpt lat="45.572398" lon="0.232070"><ele>136.9</ele><time>2010-04-02T10:17:27Z</time></trkpt>
<trkpt lat="45.572398" lon="0.232070"><ele>136.7</ele><time>2010-04-02T10:17:32Z</time></trkpt>
<trkpt lat="45.572403" lon="0.232068"><ele>136.6</ele><time>2010-04-02T10:17:37Z</time></trkpt>
<trkpt lat="45.572403" lon="0.232067"><ele>136.4</ele><time>2010-04-02T10:17:42Z</time></trkpt>
<trkpt lat="45.572407" lon="0.232068"><ele>136.4</ele><time>2010-04-02T10:17:47Z</time></trkpt>
<trkpt lat="45.572395" lon="0.232065"><ele>136</ele><time>2010-04-02T10:17:52Z</time></trkpt>
<trkpt lat="45.572395" lon="0.232063"><ele>136.4</ele><time>2010-04-02T10:17:57Z</time></trkpt>
<trkpt lat="45.572392" lon="0.232063"><ele>136.6</ele><time>2010-04-02T10:18:02Z</time></trkpt>
<trkpt lat="45.572392" lon="0.232062"><ele>136.6</ele><time>2010-04-02T10:18:07Z</time></trkpt>
<trkpt lat="45.572395" lon="0.232063"><ele>136.5</ele><time>2010-04-02T10:18:12Z</time></trkpt>
<trkpt lat="45.572395" lon="0.232063"><ele>136.4</ele><time>2010-04-02T10:18:17Z</time></trkpt>
<trkpt lat="45.572395" lon="0.232063"><ele>136.4</ele><time>2010-04-02T10:18:22Z</time></trkpt>
<trkpt lat="45.572395" lon="0.232063"><ele>136.1</ele><time>2010-04-02T10:18:27Z</time></trkpt>
<trkpt lat="45.572395" lon="0.232063"><ele>136.1</ele><time>2010-04-02T10:18:32Z</time></trkpt>
<trkpt lat="45.572395" lon="0.232062"><ele>136.1</ele><time>2010-04-02T10:18:37Z</time></trkpt>
<trkpt lat="45.572398" lon="0.232062"><ele>136</ele><time>2010-04-02T10:18:42Z</time></trkpt>
<trkpt lat="45.572398" lon="0.232062"><ele>135.8</ele><time>2010-04-02T10:18:47Z</time></trkpt>
<trkpt lat="45.572398" lon="0.232062"><ele>135.7</ele><time>2010-04-02T10:18:52Z</time></trkpt>
<trkpt lat="45.572403" lon="0.232063"><ele>135.6</ele><time>2010-04-02T10:18:57Z</time></trkpt>
<trkpt lat="45.572403" lon="0.232063"><ele>135.5</ele><time>2010-04-02T10:19:02Z</time></trkpt>
<trkpt lat="45.572395" lon="0.232058"><ele>136.1</ele><time>2010-04-02T10:19:07Z</time></trkpt>
<trkpt lat="45.572398" lon="0.232057"><ele>135.9</ele><time>2010-04-02T10:19:12Z</time></trkpt>
<trkpt lat="45.572395" lon="0.232057"><ele>136.5</ele><time>2010-04-02T10:19:17Z</time></trkpt>
<trkpt lat="45.572392" lon="0.232053"><ele>136.7</ele><time>2010-04-02T10:19:22Z</time></trkpt>
<trkpt lat="45.572392" lon="0.232053"><ele>136.9</ele><time>2010-04-02T10:19:27Z</time></trkpt>
<trkpt lat="45.572392" lon="0.232053"><ele>137.2</ele><time>2010-04-02T10:19:32Z</time></trkpt>
<trkpt lat="45.572388" lon="0.232055"><ele>137.4</ele><time>2010-04-02T10:19:37Z</time></trkpt>
<trkpt lat="45.572388" lon="0.232055"><ele>137.5</ele><time>2010-04-02T10:19:42Z</time></trkpt>
<trkpt lat="45.572392" lon="0.232053"><ele>137.4</ele><time>2010-04-02T10:19:47Z</time></trkpt>
<trkpt lat="45.572392" lon="0.232055"><ele>137.4</ele><time>2010-04-02T10:19:52Z</time></trkpt>
<trkpt lat="45.572388" lon="0.232057"><ele>137.6</ele><time>2010-04-02T10:19:57Z</time></trkpt>
<trkpt lat="45.572388" lon="0.232060"><ele>137.8</ele><time>2010-04-02T10:20:02Z</time></trkpt>
<trkpt lat="45.572392" lon="0.232057"><ele>137.6</ele><time>2010-04-02T10:20:07Z</time></trkpt>
<trkpt lat="45.572392" lon="0.232058"><ele>137.8</ele><time>2010-04-02T10:20:12Z</time></trkpt>
<trkpt lat="45.572480" lon="0.232147"><ele>137.5</ele><time>2010-04-02T10:20:17Z</time></trkpt>
<trkpt lat="45.572628" lon="0.232210"><ele>137.3</ele><time>2010-04-02T10:20:22Z</time></trkpt>
<trkpt lat="45.572762" lon="0.232252"><ele>137.4</ele><time>2010-04-02T10:20:27Z</time></trkpt>
<trkpt lat="45.572937" lon="0.232305"><ele>136.6</ele><time>2010-04-02T10:20:32Z</time></trkpt>
<trkpt lat="45.573167" lon="0.232387"><ele>135.9</ele><time>2010-04-02T10:20:37Z</time></trkpt>
<trkpt lat="45.573425" lon="0.232472"><ele>135</ele><time>2010-04-02T10:20:42Z</time></trkpt>
<trkpt lat="45.573677" lon="0.232560"><ele>134.7</ele><time>2010-04-02T10:20:47Z</time></trkpt>
<trkpt lat="45.573913" lon="0.232638"><ele>134.9</ele><time>2010-04-02T10:20:52Z</time></trkpt>
<trkpt lat="45.574115" lon="0.232717"><ele>135.2</ele><time>2010-04-02T10:20:57Z</time></trkpt>
<trkpt lat="45.574318" lon="0.232787"><ele>135.2</ele><time>2010-04-02T10:21:02Z</time></trkpt>
<trkpt lat="45.574517" lon="0.232842"><ele>134.8</ele><time>2010-04-02T10:21:07Z</time></trkpt>
<trkpt lat="45.574718" lon="0.232908"><ele>134.1</ele><time>2010-04-02T10:21:12Z</time></trkpt>
<trkpt lat="45.574925" lon="0.232980"><ele>133.6</ele><time>2010-04-02T10:21:17Z</time></trkpt>
<trkpt lat="45.575153" lon="0.233062"><ele>132.4</ele><time>2010-04-02T10:21:22Z</time></trkpt>
<trkpt lat="45.575370" lon="0.233133"><ele>130.9</ele><time>2010-04-02T10:21:27Z</time></trkpt>
<trkpt lat="45.575668" lon="0.233235"><ele>129</ele><time>2010-04-02T10:21:32Z</time></trkpt>
<trkpt lat="45.576030" lon="0.233360"><ele>127</ele><time>2010-04-02T10:21:37Z</time></trkpt>
<trkpt lat="45.576438" lon="0.233498"><ele>125</ele><time>2010-04-02T10:21:42Z</time></trkpt>
<trkpt lat="45.576878" lon="0.233645"><ele>123.5</ele><time>2010-04-02T10:21:47Z</time></trkpt>
<trkpt lat="45.577297" lon="0.233780"><ele>122.8</ele><time>2010-04-02T10:21:52Z</time></trkpt>
<trkpt lat="45.577672" lon="0.233932"><ele>122.2</ele><time>2010-04-02T10:21:57Z</time></trkpt>
<trkpt lat="45.578003" lon="0.234147"><ele>120.6</ele><time>2010-04-02T10:22:02Z</time></trkpt>
<trkpt lat="45.578305" lon="0.234395"><ele>119.3</ele><time>2010-04-02T10:22:07Z</time></trkpt>
<trkpt lat="45.578610" lon="0.234647"><ele>118.5</ele><time>2010-04-02T10:22:12Z</time></trkpt>
<trkpt lat="45.578847" lon="0.234863"><ele>119.6</ele><time>2010-04-02T10:22:17Z</time></trkpt>
<trkpt lat="45.579007" lon="0.235013"><ele>120.6</ele><time>2010-04-02T10:22:22Z</time></trkpt>
<trkpt lat="45.579155" lon="0.235187"><ele>121.6</ele><time>2010-04-02T10:22:27Z</time></trkpt>
<trkpt lat="45.579285" lon="0.235370"><ele>122.3</ele><time>2010-04-02T10:22:32Z</time></trkpt>
<trkpt lat="45.579410" lon="0.235573"><ele>123.1</ele><time>2010-04-02T10:22:37Z</time></trkpt>
<trkpt lat="45.579528" lon="0.235777"><ele>123.9</ele><time>2010-04-02T10:22:42Z</time></trkpt>
<trkpt lat="45.579652" lon="0.235977"><ele>124.9</ele><time>2010-04-02T10:22:47Z</time></trkpt>
<trkpt lat="45.579768" lon="0.236178"><ele>125.9</ele><time>2010-04-02T10:22:52Z</time></trkpt>
<trkpt lat="45.579883" lon="0.236362"><ele>126.8</ele><time>2010-04-02T10:22:57Z</time></trkpt>
<trkpt lat="45.579990" lon="0.236540"><ele>127.6</ele><time>2010-04-02T10:23:02Z</time></trkpt>
<trkpt lat="45.580097" lon="0.236713"><ele>128.7</ele><time>2010-04-02T10:23:07Z</time></trkpt>
<trkpt lat="45.580203" lon="0.236893"><ele>129.9</ele><time>2010-04-02T10:23:12Z</time></trkpt>
<trkpt lat="45.580292" lon="0.237093"><ele>131</ele><time>2010-04-02T10:23:17Z</time></trkpt>
<trkpt lat="45.580333" lon="0.237310"><ele>132.4</ele><time>2010-04-02T10:23:22Z</time></trkpt>
<trkpt lat="45.580407" lon="0.237518"><ele>133.2</ele><time>2010-04-02T10:23:27Z</time></trkpt>
<trkpt lat="45.580455" lon="0.237712"><ele>134.6</ele><time>2010-04-02T10:23:32Z</time></trkpt>
<trkpt lat="45.580487" lon="0.237910"><ele>136</ele><time>2010-04-02T10:23:37Z</time></trkpt>
<trkpt lat="45.580517" lon="0.238122"><ele>137.2</ele><time>2010-04-02T10:23:42Z</time></trkpt>
<trkpt lat="45.580552" lon="0.238338"><ele>137.5</ele><time>2010-04-02T10:23:47Z</time></trkpt>
<trkpt lat="45.580600" lon="0.238542"><ele>137.6</ele><time>2010-04-02T10:23:52Z</time></trkpt>
<trkpt lat="45.580662" lon="0.238762"><ele>137.7</ele><time>2010-04-02T10:23:57Z</time></trkpt>
<trkpt lat="45.580712" lon="0.238978"><ele>137.9</ele><time>2010-04-02T10:24:02Z</time></trkpt>
<trkpt lat="45.580762" lon="0.239175"><ele>138.5</ele><time>2010-04-02T10:24:07Z</time></trkpt>
<trkpt lat="45.580810" lon="0.239365"><ele>139.2</ele><time>2010-04-02T10:24:12Z</time></trkpt>
<trkpt lat="45.580853" lon="0.239562"><ele>140.7</ele><time>2010-04-02T10:24:17Z</time></trkpt>
<trkpt lat="45.580890" lon="0.239792"><ele>142.3</ele><time>2010-04-02T10:24:22Z</time></trkpt>
<trkpt lat="45.580933" lon="0.240033"><ele>143.7</ele><time>2010-04-02T10:24:27Z</time></trkpt>
<trkpt lat="45.580963" lon="0.240303"><ele>143.6</ele><time>2010-04-02T10:24:32Z</time></trkpt>
<trkpt lat="45.580987" lon="0.240565"><ele>144.1</ele><time>2010-04-02T10:24:37Z</time></trkpt>
<trkpt lat="45.581055" lon="0.240837"><ele>143.2</ele><time>2010-04-02T10:24:42Z</time></trkpt>
<trkpt lat="45.581135" lon="0.241087"><ele>143.8</ele><time>2010-04-02T10:24:47Z</time></trkpt>
<trkpt lat="45.581203" lon="0.241280"><ele>144.6</ele><time>2010-04-02T10:24:52Z</time></trkpt>
<trkpt lat="45.581272" lon="0.241510"><ele>144.8</ele><time>2010-04-02T10:24:57Z</time></trkpt>
<trkpt lat="45.581340" lon="0.241762"><ele>144.9</ele><time>2010-04-02T10:25:02Z</time></trkpt>
<trkpt lat="45.581405" lon="0.242005"><ele>147.1</ele><time>2010-04-02T10:25:07Z</time></trkpt>
<trkpt lat="45.581455" lon="0.242282"><ele>147.4</ele><time>2010-04-02T10:25:12Z</time></trkpt>
<trkpt lat="45.581497" lon="0.242575"><ele>148.1</ele><time>2010-04-02T10:25:17Z</time></trkpt>
<trkpt lat="45.581535" lon="0.242867"><ele>148.1</ele><time>2010-04-02T10:25:22Z</time></trkpt>
<trkpt lat="45.581608" lon="0.243155"><ele>147.7</ele><time>2010-04-02T10:25:27Z</time></trkpt>
<trkpt lat="45.581703" lon="0.243435"><ele>148.2</ele><time>2010-04-02T10:25:32Z</time></trkpt>
<trkpt lat="45.581783" lon="0.243692"><ele>147.8</ele><time>2010-04-02T10:25:37Z</time></trkpt>
<trkpt lat="45.581828" lon="0.243903"><ele>148.9</ele><time>2010-04-02T10:25:42Z</time></trkpt>
<trkpt lat="45.581920" lon="0.244102"><ele>146.9</ele><time>2010-04-02T10:25:47Z</time></trkpt>
<trkpt lat="45.582008" lon="0.244330"><ele>147.7</ele><time>2010-04-02T10:25:52Z</time></trkpt>
<trkpt lat="45.582070" lon="0.244570"><ele>147.7</ele><time>2010-04-02T10:25:57Z</time></trkpt>
<trkpt lat="45.582108" lon="0.244832"><ele>147.4</ele><time>2010-04-02T10:26:02Z</time></trkpt>
<trkpt lat="45.582162" lon="0.245095"><ele>146.2</ele><time>2010-04-02T10:26:07Z</time></trkpt>
<trkpt lat="45.582257" lon="0.245348"><ele>144.5</ele><time>2010-04-02T10:26:12Z</time></trkpt>
<trkpt lat="45.582333" lon="0.245595"><ele>143.5</ele><time>2010-04-02T10:26:17Z</time></trkpt>
<trkpt lat="45.582405" lon="0.245843"><ele>144.9</ele><time>2010-04-02T10:26:22Z</time></trkpt>
<trkpt lat="45.582462" lon="0.246075"><ele>146.9</ele><time>2010-04-02T10:26:27Z</time></trkpt>
<trkpt lat="45.582508" lon="0.246313"><ele>147.1</ele><time>2010-04-02T10:26:32Z</time></trkpt>
<trkpt lat="45.582553" lon="0.246525"><ele>148.1</ele><time>2010-04-02T10:26:37Z</time></trkpt>
<trkpt lat="45.582588" lon="0.246718"><ele>149.7</ele><time>2010-04-02T10:26:42Z</time></trkpt>
<trkpt lat="45.582615" lon="0.246893"><ele>151.5</ele><time>2010-04-02T10:26:47Z</time></trkpt>
<trkpt lat="45.582683" lon="0.247057"><ele>150.6</ele><time>2010-04-02T10:26:52Z</time></trkpt>
<trkpt lat="45.582790" lon="0.247252"><ele>149.3</ele><time>2010-04-02T10:26:57Z</time></trkpt>
<trkpt lat="45.582920" lon="0.247480"><ele>147.7</ele><time>2010-04-02T10:27:02Z</time></trkpt>
<trkpt lat="45.583062" lon="0.247680"><ele>146.4</ele><time>2010-04-02T10:27:07Z</time></trkpt>
<trkpt lat="45.583192" lon="0.247835"><ele>146.2</ele><time>2010-04-02T10:27:12Z</time></trkpt>
<trkpt lat="45.583337" lon="0.247975"><ele>146.6</ele><time>2010-04-02T10:27:17Z</time></trkpt>
<trkpt lat="45.583485" lon="0.248135"><ele>147</ele><time>2010-04-02T10:27:22Z</time></trkpt>
<trkpt lat="45.583618" lon="0.248302"><ele>147</ele><time>2010-04-02T10:27:27Z</time></trkpt>
<trkpt lat="45.583748" lon="0.248488"><ele>146.7</ele><time>2010-04-02T10:27:32Z</time></trkpt>
<trkpt lat="45.583852" lon="0.248668"><ele>147.8</ele><time>2010-04-02T10:27:37Z</time></trkpt>
<trkpt lat="45.583927" lon="0.248877"><ele>148.8</ele><time>2010-04-02T10:27:42Z</time></trkpt>
<trkpt lat="45.584045" lon="0.249030"><ele>149.8</ele><time>2010-04-02T10:27:47Z</time></trkpt>
<trkpt lat="45.584237" lon="0.249223"><ele>146.9</ele><time>2010-04-02T10:27:52Z</time></trkpt>
<trkpt lat="45.584388" lon="0.249460"><ele>146.2</ele><time>2010-04-02T10:27:57Z</time></trkpt>
<trkpt lat="45.584527" lon="0.249680"><ele>146.9</ele><time>2010-04-02T10:28:02Z</time></trkpt>
<trkpt lat="45.584622" lon="0.249913"><ele>148.4</ele><time>2010-04-02T10:28:07Z</time></trkpt>
<trkpt lat="45.584725" lon="0.250175"><ele>149.2</ele><time>2010-04-02T10:28:12Z</time></trkpt>
<trkpt lat="45.584832" lon="0.250415"><ele>150.4</ele><time>2010-04-02T10:28:17Z</time></trkpt>
<trkpt lat="45.584935" lon="0.250648"><ele>150.6</ele><time>2010-04-02T10:28:22Z</time></trkpt>
<trkpt lat="45.585033" lon="0.250873"><ele>150.9</ele><time>2010-04-02T10:28:27Z</time></trkpt>
<trkpt lat="45.585143" lon="0.251097"><ele>150.2</ele><time>2010-04-02T10:28:32Z</time></trkpt>
<trkpt lat="45.585235" lon="0.251295"><ele>150.2</ele><time>2010-04-02T10:28:37Z</time></trkpt>
<trkpt lat="45.585342" lon="0.251482"><ele>148.6</ele><time>2010-04-02T10:28:42Z</time></trkpt>
<trkpt lat="45.585433" lon="0.251638"><ele>146.2</ele><time>2010-04-02T10:28:47Z</time></trkpt>
<trkpt lat="45.585480" lon="0.251798"><ele>147.8</ele><time>2010-04-02T10:28:52Z</time></trkpt>
<trkpt lat="45.585530" lon="0.251933"><ele>148.5</ele><time>2010-04-02T10:28:57Z</time></trkpt>
<trkpt lat="45.585563" lon="0.252043"><ele>150.6</ele><time>2010-04-02T10:29:02Z</time></trkpt>
<trkpt lat="45.585602" lon="0.252133"><ele>151.8</ele><time>2010-04-02T10:29:07Z</time></trkpt>
<trkpt lat="45.585667" lon="0.252203"><ele>154.1</ele><time>2010-04-02T10:29:12Z</time></trkpt>
<trkpt lat="45.585738" lon="0.252140"><ele>154.6</ele><time>2010-04-02T10:29:17Z</time></trkpt>
<trkpt lat="45.585812" lon="0.252060"><ele>154.9</ele><time>2010-04-02T10:29:22Z</time></trkpt>
<trkpt lat="45.585883" lon="0.251993"><ele>155.6</ele><time>2010-04-02T10:29:27Z</time></trkpt>
<trkpt lat="45.585957" lon="0.251983"><ele>156.3</ele><time>2010-04-02T10:29:32Z</time></trkpt>
<trkpt lat="45.586025" lon="0.252062"><ele>156.7</ele><time>2010-04-02T10:29:37Z</time></trkpt>
<trkpt lat="45.586090" lon="0.252130"><ele>157.2</ele><time>2010-04-02T10:29:42Z</time></trkpt>
<trkpt lat="45.586152" lon="0.252217"><ele>158.7</ele><time>2010-04-02T10:29:47Z</time></trkpt>
<trkpt lat="45.586227" lon="0.252318"><ele>159.2</ele><time>2010-04-02T10:29:52Z</time></trkpt>
<trkpt lat="45.586288" lon="0.252415"><ele>161.5</ele><time>2010-04-02T10:29:57Z</time></trkpt>
<trkpt lat="45.586368" lon="0.252535"><ele>161.9</ele><time>2010-04-02T10:30:02Z</time></trkpt>
<trkpt lat="45.586457" lon="0.252672"><ele>161.5</ele><time>2010-04-02T10:30:07Z</time></trkpt>
<trkpt lat="45.586533" lon="0.252817"><ele>161.3</ele><time>2010-04-02T10:30:12Z</time></trkpt>
<trkpt lat="45.586602" lon="0.252938"><ele>162.5</ele><time>2010-04-02T10:30:17Z</time></trkpt>
<trkpt lat="45.586673" lon="0.253080"><ele>163.6</ele><time>2010-04-02T10:30:22Z</time></trkpt>
<trkpt lat="45.586742" lon="0.253235"><ele>164.3</ele><time>2010-04-02T10:30:27Z</time></trkpt>
<trkpt lat="45.586807" lon="0.253398"><ele>165.8</ele><time>2010-04-02T10:30:32Z</time></trkpt>
<trkpt lat="45.586827" lon="0.253492"><ele>165.9</ele><time>2010-04-02T10:30:37Z</time></trkpt>
<trkpt lat="45.586853" lon="0.253488"><ele>165.3</ele><time>2010-04-02T10:30:42Z</time></trkpt>
<trkpt lat="45.586872" lon="0.253425"><ele>165.4</ele><time>2010-04-02T10:30:47Z</time></trkpt>
<trkpt lat="45.586865" lon="0.253443"><ele>166.6</ele><time>2010-04-02T10:30:52Z</time></trkpt>
<trkpt lat="45.586853" lon="0.253428"><ele>168.7</ele><time>2010-04-02T10:30:57Z</time></trkpt>
<trkpt lat="45.586857" lon="0.253457"><ele>169.1</ele><time>2010-04-02T10:31:02Z</time></trkpt>
<trkpt lat="45.586853" lon="0.253473"><ele>168.8</ele><time>2010-04-02T10:31:07Z</time></trkpt>
<trkpt lat="45.586853" lon="0.253478"><ele>167.5</ele><time>2010-04-02T10:31:12Z</time></trkpt>
<trkpt lat="45.586850" lon="0.253482"><ele>166.6</ele><time>2010-04-02T10:31:17Z</time></trkpt>
<trkpt lat="45.586860" lon="0.253458"><ele>163.5</ele><time>2010-04-02T10:31:22Z</time></trkpt>
<trkpt lat="45.586880" lon="0.253430"><ele>160.5</ele><time>2010-04-02T10:31:27Z</time></trkpt>
<trkpt lat="45.586872" lon="0.253422"><ele>159.8</ele><time>2010-04-02T10:31:32Z</time></trkpt>
<trkpt lat="45.586872" lon="0.253405"><ele>158.1</ele><time>2010-04-02T10:31:37Z</time></trkpt>
<trkpt lat="45.586857" lon="0.253405"><ele>164.1</ele><time>2010-04-02T10:31:42Z</time></trkpt>
<trkpt lat="45.586853" lon="0.253393"><ele>164.2</ele><time>2010-04-02T10:31:47Z</time></trkpt>
<trkpt lat="45.586857" lon="0.253372"><ele>162.9</ele><time>2010-04-02T10:31:52Z</time></trkpt>
<trkpt lat="45.586850" lon="0.253350"><ele>162</ele><time>2010-04-02T10:31:57Z</time></trkpt>
<trkpt lat="45.586838" lon="0.253365"><ele>163.7</ele><time>2010-04-02T10:32:02Z</time></trkpt>
<trkpt lat="45.586830" lon="0.253355"><ele>165.4</ele><time>2010-04-02T10:32:07Z</time></trkpt>
<trkpt lat="45.586833" lon="0.253348"><ele>165.9</ele><time>2010-04-02T10:32:12Z</time></trkpt>
<trkpt lat="45.586830" lon="0.253343"><ele>166.2</ele><time>2010-04-02T10:32:17Z</time></trkpt>
<trkpt lat="45.586850" lon="0.253350"><ele>163.8</ele><time>2010-04-02T10:32:22Z</time></trkpt>
<trkpt lat="45.586860" lon="0.253343"><ele>162.8</ele><time>2010-04-02T10:32:27Z</time></trkpt>
<trkpt lat="45.586868" lon="0.253352"><ele>159.8</ele><time>2010-04-02T10:32:32Z</time></trkpt>
<trkpt lat="45.586887" lon="0.253363"><ele>158</ele><time>2010-04-02T10:32:37Z</time></trkpt>
<trkpt lat="45.586887" lon="0.253395"><ele>156.5</ele><time>2010-04-02T10:32:42Z</time></trkpt>
<trkpt lat="45.586887" lon="0.253407"><ele>156</ele><time>2010-04-02T10:32:47Z</time></trkpt>
<trkpt lat="45.586887" lon="0.253423"><ele>156.6</ele><time>2010-04-02T10:32:52Z</time></trkpt>
<trkpt lat="45.586868" lon="0.253435"><ele>160.3</ele><time>2010-04-02T10:32:57Z</time></trkpt>
<trkpt lat="45.586857" lon="0.253435"><ele>161.8</ele><time>2010-04-02T10:33:02Z</time></trkpt>
<trkpt lat="45.586857" lon="0.253453"><ele>161.9</ele><time>2010-04-02T10:33:07Z</time></trkpt>
<trkpt lat="45.586853" lon="0.253477"><ele>163.6</ele><time>2010-04-02T10:33:12Z</time></trkpt>
<trkpt lat="45.586838" lon="0.253592"><ele>163.9</ele><time>2010-04-02T10:33:17Z</time></trkpt>
<trkpt lat="45.586865" lon="0.253740"><ele>163.7</ele><time>2010-04-02T10:33:22Z</time></trkpt>
<trkpt lat="45.586907" lon="0.253883"><ele>163.3</ele><time>2010-04-02T10:33:27Z</time></trkpt>
<trkpt lat="45.586963" lon="0.254005"><ele>164.7</ele><time>2010-04-02T10:33:32Z</time></trkpt>
<trkpt lat="45.587013" lon="0.254140"><ele>166</ele><time>2010-04-02T10:33:37Z</time></trkpt>
<trkpt lat="45.587082" lon="0.254290"><ele>166.8</ele><time>2010-04-02T10:33:42Z</time></trkpt>
<trkpt lat="45.587162" lon="0.254425"><ele>168.4</ele><time>2010-04-02T10:33:47Z</time></trkpt>
<trkpt lat="45.587227" lon="0.254550"><ele>170.3</ele><time>2010-04-02T10:33:52Z</time></trkpt>
<trkpt lat="45.587292" lon="0.254663"><ele>170.3</ele><time>2010-04-02T10:33:57Z</time></trkpt>
<trkpt lat="45.587365" lon="0.254800"><ele>170.6</ele><time>2010-04-02T10:34:02Z</time></trkpt>
<trkpt lat="45.587472" lon="0.254955"><ele>171.6</ele><time>2010-04-02T10:34:07Z</time></trkpt>
<trkpt lat="45.587558" lon="0.255053"><ele>170.3</ele><time>2010-04-02T10:34:12Z</time></trkpt>
<trkpt lat="45.587638" lon="0.255113"><ele>169.7</ele><time>2010-04-02T10:34:17Z</time></trkpt>
<trkpt lat="45.587730" lon="0.255225"><ele>168</ele><time>2010-04-02T10:34:22Z</time></trkpt>
<trkpt lat="45.587833" lon="0.255362"><ele>165.3</ele><time>2010-04-02T10:34:27Z</time></trkpt>
<trkpt lat="45.587910" lon="0.255497"><ele>164.1</ele><time>2010-04-02T10:34:32Z</time></trkpt>
<trkpt lat="45.587967" lon="0.255600"><ele>163.8</ele><time>2010-04-02T10:34:37Z</time></trkpt>
<trkpt lat="45.587997" lon="0.255655"><ele>163.8</ele><time>2010-04-02T10:34:42Z</time></trkpt>
<trkpt lat="45.588028" lon="0.255697"><ele>164.5</ele><time>2010-04-02T10:34:47Z</time></trkpt>
<trkpt lat="45.588035" lon="0.255717"><ele>164.1</ele><time>2010-04-02T10:34:52Z</time></trkpt>
<trkpt lat="45.588055" lon="0.255740"><ele>164.3</ele><time>2010-04-02T10:34:57Z</time></trkpt>
<trkpt lat="45.588093" lon="0.255767"><ele>163.5</ele><time>2010-04-02T10:35:02Z</time></trkpt>
<trkpt lat="45.588120" lon="0.255783"><ele>162</ele><time>2010-04-02T10:35:07Z</time></trkpt>
<trkpt lat="45.588150" lon="0.255850"><ele>161.3</ele><time>2010-04-02T10:35:12Z</time></trkpt>
<trkpt lat="45.588227" lon="0.255970"><ele>163.2</ele><time>2010-04-02T10:35:17Z</time></trkpt>
<trkpt lat="45.588307" lon="0.256050"><ele>164.8</ele><time>2010-04-02T10:35:22Z</time></trkpt>
<trkpt lat="45.588410" lon="0.256157"><ele>165.1</ele><time>2010-04-02T10:35:27Z</time></trkpt>
<trkpt lat="45.588497" lon="0.256250"><ele>164.7</ele><time>2010-04-02T10:35:32Z</time></trkpt>
<trkpt lat="45.588585" lon="0.256382"><ele>164.5</ele><time>2010-04-02T10:35:37Z</time></trkpt>
<trkpt lat="45.588662" lon="0.256522"><ele>162.9</ele><time>2010-04-02T10:35:42Z</time></trkpt>
<trkpt lat="45.588730" lon="0.256635"><ele>162</ele><time>2010-04-02T10:35:47Z</time></trkpt>
<trkpt lat="45.588792" lon="0.256727"><ele>162.5</ele><time>2010-04-02T10:35:52Z</time></trkpt>
<trkpt lat="45.588828" lon="0.256830"><ele>161.9</ele><time>2010-04-02T10:35:57Z</time></trkpt>
<trkpt lat="45.588840" lon="0.256925"><ele>162.6</ele><time>2010-04-02T10:36:02Z</time></trkpt>
<trkpt lat="45.588878" lon="0.257042"><ele>163.6</ele><time>2010-04-02T10:36:07Z</time></trkpt>
<trkpt lat="45.588955" lon="0.257167"><ele>164.1</ele><time>2010-04-02T10:36:12Z</time></trkpt>
<trkpt lat="45.589073" lon="0.257267"><ele>164.4</ele><time>2010-04-02T10:36:17Z</time></trkpt>
<trkpt lat="45.589207" lon="0.257348"><ele>164.7</ele><time>2010-04-02T10:36:22Z</time></trkpt>
<trkpt lat="45.589268" lon="0.257535"><ele>163.9</ele><time>2010-04-02T10:36:27Z</time></trkpt>
<trkpt lat="45.589328" lon="0.257715"><ele>164.1</ele><time>2010-04-02T10:36:32Z</time></trkpt>
<trkpt lat="45.589420" lon="0.257883"><ele>165.4</ele><time>2010-04-02T10:36:37Z</time></trkpt>
<trkpt lat="45.589512" lon="0.258060"><ele>166</ele><time>2010-04-02T10:36:42Z</time></trkpt>
<trkpt lat="45.589603" lon="0.258232"><ele>166.3</ele><time>2010-04-02T10:36:47Z</time></trkpt>
<trkpt lat="45.589713" lon="0.258408"><ele>165.6</ele><time>2010-04-02T10:36:52Z</time></trkpt>
<trkpt lat="45.589813" lon="0.258558"><ele>164.4</ele><time>2010-04-02T10:36:57Z</time></trkpt>
<trkpt lat="45.589897" lon="0.258657"><ele>165.6</ele><time>2010-04-02T10:37:02Z</time></trkpt>
<trkpt lat="45.589970" lon="0.258782"><ele>165.8</ele><time>2010-04-02T10:37:07Z</time></trkpt>
<trkpt lat="45.590042" lon="0.258895"><ele>167.7</ele><time>2010-04-02T10:37:12Z</time></trkpt>
<trkpt lat="45.590180" lon="0.258972"><ele>166.2</ele><time>2010-04-02T10:37:17Z</time></trkpt>
<trkpt lat="45.590343" lon="0.259002"><ele>164.8</ele><time>2010-04-02T10:37:22Z</time></trkpt>
<trkpt lat="45.590527" lon="0.259028"><ele>163.2</ele><time>2010-04-02T10:37:27Z</time></trkpt>
<trkpt lat="45.590713" lon="0.259132"><ele>162.7</ele><time>2010-04-02T10:37:32Z</time></trkpt>
<trkpt lat="45.590882" lon="0.259243"><ele>162</ele><time>2010-04-02T10:37:37Z</time></trkpt>
<trkpt lat="45.591053" lon="0.259358"><ele>158.8</ele><time>2010-04-02T10:37:42Z</time></trkpt>
<trkpt lat="45.591210" lon="0.259478"><ele>156.9</ele><time>2010-04-02T10:37:47Z</time></trkpt>
<trkpt lat="45.591377" lon="0.259642"><ele>156.6</ele><time>2010-04-02T10:37:52Z</time></trkpt>
<trkpt lat="45.591568" lon="0.259743"><ele>155.8</ele><time>2010-04-02T10:37:57Z</time></trkpt>
<trkpt lat="45.591793" lon="0.259883"><ele>155.4</ele><time>2010-04-02T10:38:02Z</time></trkpt>
<trkpt lat="45.591968" lon="0.259973"><ele>157</ele><time>2010-04-02T10:38:07Z</time></trkpt>
<trkpt lat="45.592140" lon="0.260070"><ele>159.7</ele><time>2010-04-02T10:38:12Z</time></trkpt>
<trkpt lat="45.592350" lon="0.260188"><ele>160.6</ele><time>2010-04-02T10:38:17Z</time></trkpt>
<trkpt lat="45.592587" lon="0.260263"><ele>160.3</ele><time>2010-04-02T10:38:22Z</time></trkpt>
<trkpt lat="45.592823" lon="0.260368"><ele>158</ele><time>2010-04-02T10:38:27Z</time></trkpt>
<trkpt lat="45.593063" lon="0.260467"><ele>155.5</ele><time>2010-04-02T10:38:32Z</time></trkpt>
<trkpt lat="45.593288" lon="0.260527"><ele>157.1</ele><time>2010-04-02T10:38:37Z</time></trkpt>
<trkpt lat="45.593543" lon="0.260600"><ele>156.2</ele><time>2010-04-02T10:38:42Z</time></trkpt>
<trkpt lat="45.593765" lon="0.260673"><ele>156.1</ele><time>2010-04-02T10:38:47Z</time></trkpt>
<trkpt lat="45.593987" lon="0.260765"><ele>156.2</ele><time>2010-04-02T10:38:52Z</time></trkpt>
<trkpt lat="45.594223" lon="0.260848"><ele>155.7</ele><time>2010-04-02T10:38:57Z</time></trkpt>
<trkpt lat="45.594422" lon="0.260942"><ele>155.5</ele><time>2010-04-02T10:39:02Z</time></trkpt>
<trkpt lat="45.594600" lon="0.260808"><ele>153.3</ele><time>2010-04-02T10:39:07Z</time></trkpt>
<trkpt lat="45.594818" lon="0.260628"><ele>152</ele><time>2010-04-02T10:39:12Z</time></trkpt>
<trkpt lat="45.595062" lon="0.260438"><ele>150.1</ele><time>2010-04-02T10:39:17Z</time></trkpt>
<trkpt lat="45.595277" lon="0.260288"><ele>148.1</ele><time>2010-04-02T10:39:22Z</time></trkpt>
<trkpt lat="45.595528" lon="0.260090"><ele>144.8</ele><time>2010-04-02T10:39:27Z</time></trkpt>
<trkpt lat="45.595763" lon="0.259885"><ele>143.8</ele><time>2010-04-02T10:39:32Z</time></trkpt>
<trkpt lat="45.596000" lon="0.259725"><ele>143.3</ele><time>2010-04-02T10:39:37Z</time></trkpt>
<trkpt lat="45.596245" lon="0.259512"><ele>142.8</ele><time>2010-04-02T10:39:42Z</time></trkpt>
<trkpt lat="45.596458" lon="0.259275"><ele>142</ele><time>2010-04-02T10:39:47Z</time></trkpt>
<trkpt lat="45.596695" lon="0.259030"><ele>140.8</ele><time>2010-04-02T10:39:52Z</time></trkpt>
<trkpt lat="45.596947" lon="0.258803"><ele>140</ele><time>2010-04-02T10:39:57Z</time></trkpt>
<trkpt lat="45.597207" lon="0.258613"><ele>139.6</ele><time>2010-04-02T10:40:02Z</time></trkpt>
<trkpt lat="45.597462" lon="0.258465"><ele>138.8</ele><time>2010-04-02T10:40:07Z</time></trkpt>
<trkpt lat="45.597722" lon="0.258332"><ele>138.5</ele><time>2010-04-02T10:40:12Z</time></trkpt>
<trkpt lat="45.597900" lon="0.258073"><ele>137.8</ele><time>2010-04-02T10:40:17Z</time></trkpt>
<trkpt lat="45.598000" lon="0.257720"><ele>137.4</ele><time>2010-04-02T10:40:22Z</time></trkpt>
<trkpt lat="45.598087" lon="0.257383"><ele>137</ele><time>2010-04-02T10:40:27Z</time></trkpt>
<trkpt lat="45.598187" lon="0.257065"><ele>136.6</ele><time>2010-04-02T10:40:32Z</time></trkpt>
<trkpt lat="45.598302" lon="0.256750"><ele>136.4</ele><time>2010-04-02T10:40:37Z</time></trkpt>
<trkpt lat="45.598343" lon="0.256392"><ele>136.2</ele><time>2010-04-02T10:40:42Z</time></trkpt>
<trkpt lat="45.598320" lon="0.256033"><ele>136</ele><time>2010-04-02T10:40:47Z</time></trkpt>
<trkpt lat="45.598312" lon="0.255685"><ele>135.6</ele><time>2010-04-02T10:40:52Z</time></trkpt>
<trkpt lat="45.598397" lon="0.255350"><ele>135.1</ele><time>2010-04-02T10:40:57Z</time></trkpt>
<trkpt lat="45.598507" lon="0.255025"><ele>134.6</ele><time>2010-04-02T10:41:02Z</time></trkpt>
<trkpt lat="45.598625" lon="0.254675"><ele>133.6</ele><time>2010-04-02T10:41:07Z</time></trkpt>
<trkpt lat="45.598752" lon="0.254315"><ele>132</ele><time>2010-04-02T10:41:12Z</time></trkpt>
<trkpt lat="45.598897" lon="0.253965"><ele>130.3</ele><time>2010-04-02T10:41:17Z</time></trkpt>
<trkpt lat="45.599075" lon="0.253652"><ele>129.1</ele><time>2010-04-02T10:41:22Z</time></trkpt>
<trkpt lat="45.599305" lon="0.253367"><ele>127.7</ele><time>2010-04-02T10:41:27Z</time></trkpt>
<trkpt lat="45.599540" lon="0.253127"><ele>126.1</ele><time>2010-04-02T10:41:32Z</time></trkpt>
<trkpt lat="45.599800" lon="0.252948"><ele>125.2</ele><time>2010-04-02T10:41:37Z</time></trkpt>
<trkpt lat="45.600067" lon="0.252890"><ele>124.1</ele><time>2010-04-02T10:41:42Z</time></trkpt>
<trkpt lat="45.600345" lon="0.253027"><ele>123</ele><time>2010-04-02T10:41:47Z</time></trkpt>
<trkpt lat="45.600643" lon="0.253142"><ele>121.6</ele><time>2010-04-02T10:41:52Z</time></trkpt>
<trkpt lat="45.600957" lon="0.253225"><ele>120.3</ele><time>2010-04-02T10:41:57Z</time></trkpt>
<trkpt lat="45.601235" lon="0.253242"><ele>120.3</ele><time>2010-04-02T10:42:02Z</time></trkpt>
<trkpt lat="45.601288" lon="0.252993"><ele>119.9</ele><time>2010-04-02T10:42:07Z</time></trkpt>
<trkpt lat="45.601265" lon="0.252665"><ele>120.4</ele><time>2010-04-02T10:42:12Z</time></trkpt>
<trkpt lat="45.601437" lon="0.252575"><ele>120.2</ele><time>2010-04-02T10:42:17Z</time></trkpt>
<trkpt lat="45.601677" lon="0.252550"><ele>119.9</ele><time>2010-04-02T10:42:22Z</time></trkpt>
<trkpt lat="45.601910" lon="0.252540"><ele>119.3</ele><time>2010-04-02T10:42:27Z</time></trkpt>
<trkpt lat="45.602162" lon="0.252558"><ele>118.5</ele><time>2010-04-02T10:42:32Z</time></trkpt>
<trkpt lat="45.602405" lon="0.252602"><ele>117.8</ele><time>2010-04-02T10:42:37Z</time></trkpt>
<trkpt lat="45.602608" lon="0.252592"><ele>118</ele><time>2010-04-02T10:42:42Z</time></trkpt>
<trkpt lat="45.602703" lon="0.252533"><ele>120</ele><time>2010-04-02T10:42:47Z</time></trkpt>
<trkpt lat="45.602763" lon="0.252490"><ele>122.4</ele><time>2010-04-02T10:42:52Z</time></trkpt>
<trkpt lat="45.602795" lon="0.252435"><ele>125.8</ele><time>2010-04-02T10:42:57Z</time></trkpt>
<trkpt lat="45.602848" lon="0.252363"><ele>126.8</ele><time>2010-04-02T10:43:02Z</time></trkpt>
<trkpt lat="45.602905" lon="0.252292"><ele>127.6</ele><time>2010-04-02T10:43:07Z</time></trkpt>
<trkpt lat="45.602967" lon="0.252215"><ele>127.5</ele><time>2010-04-02T10:43:12Z</time></trkpt>
<trkpt lat="45.603000" lon="0.252127"><ele>128.6</ele><time>2010-04-02T10:43:17Z</time></trkpt>
<trkpt lat="45.603017" lon="0.252023"><ele>128.9</ele><time>2010-04-02T10:43:22Z</time></trkpt>
<trkpt lat="45.603027" lon="0.251933"><ele>129.5</ele><time>2010-04-02T10:43:27Z</time></trkpt>
<trkpt lat="45.603058" lon="0.251852"><ele>130.1</ele><time>2010-04-02T10:43:32Z</time></trkpt>
<trkpt lat="45.603080" lon="0.251748"><ele>132.4</ele><time>2010-04-02T10:43:37Z</time></trkpt>
<trkpt lat="45.603088" lon="0.251635"><ele>133.5</ele><time>2010-04-02T10:43:42Z</time></trkpt>
<trkpt lat="45.603088" lon="0.251525"><ele>133.8</ele><time>2010-04-02T10:43:47Z</time></trkpt>
<trkpt lat="45.603070" lon="0.251428"><ele>134.9</ele><time>2010-04-02T10:43:52Z</time></trkpt>
<trkpt lat="45.603050" lon="0.251328"><ele>136.1</ele><time>2010-04-02T10:43:57Z</time></trkpt>
<trkpt lat="45.603027" lon="0.251225"><ele>136.4</ele><time>2010-04-02T10:44:02Z</time></trkpt>
<trkpt lat="45.603000" lon="0.251123"><ele>137.1</ele><time>2010-04-02T10:44:07Z</time></trkpt>
<trkpt lat="45.602978" lon="0.251015"><ele>137.1</ele><time>2010-04-02T10:44:12Z</time></trkpt>
<trkpt lat="45.602943" lon="0.250903"><ele>136.9</ele><time>2010-04-02T10:44:17Z</time></trkpt>
<trkpt lat="45.602908" lon="0.250780"><ele>137.8</ele><time>2010-04-02T10:44:22Z</time></trkpt>
<trkpt lat="45.602878" lon="0.250653"><ele>138.2</ele><time>2010-04-02T10:44:27Z</time></trkpt>
<trkpt lat="45.602837" lon="0.250533"><ele>138.7</ele><time>2010-04-02T10:44:32Z</time></trkpt>
<trkpt lat="45.602802" lon="0.250420"><ele>139.6</ele><time>2010-04-02T10:44:37Z</time></trkpt>
<trkpt lat="45.602760" lon="0.250302"><ele>139.5</ele><time>2010-04-02T10:44:42Z</time></trkpt>
<trkpt lat="45.602715" lon="0.250173"><ele>139.9</ele><time>2010-04-02T10:44:47Z</time></trkpt>
<trkpt lat="45.602673" lon="0.250025"><ele>140.5</ele><time>2010-04-02T10:44:52Z</time></trkpt>
<trkpt lat="45.602635" lon="0.249868"><ele>140.6</ele><time>2010-04-02T10:44:57Z</time></trkpt>
<trkpt lat="45.602620" lon="0.249668"><ele>140.3</ele><time>2010-04-02T10:45:02Z</time></trkpt>
<trkpt lat="45.602608" lon="0.249458"><ele>141.2</ele><time>2010-04-02T10:45:07Z</time></trkpt>
<trkpt lat="45.602597" lon="0.249272"><ele>141.6</ele><time>2010-04-02T10:45:12Z</time></trkpt>
<trkpt lat="45.602638" lon="0.249155"><ele>141.7</ele><time>2010-04-02T10:45:17Z</time></trkpt>
<trkpt lat="45.602748" lon="0.249093"><ele>141.9</ele><time>2010-04-02T10:45:22Z</time></trkpt>
<trkpt lat="45.602872" lon="0.249008"><ele>142.1</ele><time>2010-04-02T10:45:27Z</time></trkpt>
<trkpt lat="45.603017" lon="0.248935"><ele>142.4</ele><time>2010-04-02T10:45:32Z</time></trkpt>
<trkpt lat="45.603153" lon="0.248842"><ele>143</ele><time>2010-04-02T10:45:37Z</time></trkpt>
<trkpt lat="45.603268" lon="0.248690"><ele>143.6</ele><time>2010-04-02T10:45:42Z</time></trkpt>
<trkpt lat="45.603333" lon="0.248480"><ele>144</ele><time>2010-04-02T10:45:47Z</time></trkpt>
<trkpt lat="45.603363" lon="0.248252"><ele>144.5</ele><time>2010-04-02T10:45:52Z</time></trkpt>
<trkpt lat="45.603387" lon="0.248090"><ele>145.1</ele><time>2010-04-02T10:45:57Z</time></trkpt>
<trkpt lat="45.603328" lon="0.247967"><ele>145.3</ele><time>2010-04-02T10:46:02Z</time></trkpt>
<trkpt lat="45.603145" lon="0.248025"><ele>144.8</ele><time>2010-04-02T10:46:07Z</time></trkpt>
<trkpt lat="45.602947" lon="0.248133"><ele>144</ele><time>2010-04-02T10:46:12Z</time></trkpt>
<trkpt lat="45.602763" lon="0.248220"><ele>143.5</ele><time>2010-04-02T10:46:17Z</time></trkpt>
<trkpt lat="45.602600" lon="0.248303"><ele>143</ele><time>2010-04-02T10:46:22Z</time></trkpt>
<trkpt lat="45.602463" lon="0.248160"><ele>143.1</ele><time>2010-04-02T10:46:27Z</time></trkpt>
<trkpt lat="45.602413" lon="0.247903"><ele>143.4</ele><time>2010-04-02T10:46:32Z</time></trkpt>
<trkpt lat="45.602375" lon="0.247672"><ele>143.6</ele><time>2010-04-02T10:46:37Z</time></trkpt>
<trkpt lat="45.602375" lon="0.247670"><ele>143.4</ele><time>2010-04-02T10:46:42Z</time></trkpt>
<trkpt lat="45.602375" lon="0.247668"><ele>143.1</ele><time>2010-04-02T10:46:47Z</time></trkpt>
<trkpt lat="45.602340" lon="0.247563"><ele>143</ele><time>2010-04-02T10:46:52Z</time></trkpt>
<trkpt lat="45.602295" lon="0.247317"><ele>143.1</ele><time>2010-04-02T10:46:57Z</time></trkpt>
<trkpt lat="45.602233" lon="0.247047"><ele>143.3</ele><time>2010-04-02T10:47:02Z</time></trkpt>
<trkpt lat="45.602153" lon="0.246793"><ele>143.7</ele><time>2010-04-02T10:47:07Z</time></trkpt>
<trkpt lat="45.602047" lon="0.246557"><ele>143.6</ele><time>2010-04-02T10:47:12Z</time></trkpt>
<trkpt lat="45.601922" lon="0.246337"><ele>143.6</ele><time>2010-04-02T10:47:17Z</time></trkpt>
<trkpt lat="45.601772" lon="0.246143"><ele>143.5</ele><time>2010-04-02T10:47:22Z</time></trkpt>
<trkpt lat="45.601623" lon="0.245955"><ele>143.5</ele><time>2010-04-02T10:47:27Z</time></trkpt>
<trkpt lat="45.601472" lon="0.245765"><ele>143.6</ele><time>2010-04-02T10:47:32Z</time></trkpt>
<trkpt lat="45.601310" lon="0.245587"><ele>143.8</ele><time>2010-04-02T10:47:37Z</time></trkpt>
<trkpt lat="45.601143" lon="0.245427"><ele>144</ele><time>2010-04-02T10:47:42Z</time></trkpt>
<trkpt lat="45.600972" lon="0.245277"><ele>144.2</ele><time>2010-04-02T10:47:47Z</time></trkpt>
<trkpt lat="45.600803" lon="0.245133"><ele>144.4</ele><time>2010-04-02T10:47:52Z</time></trkpt>
<trkpt lat="45.600628" lon="0.244988"><ele>144.7</ele><time>2010-04-02T10:47:57Z</time></trkpt>
<trkpt lat="45.600452" lon="0.244843"><ele>144.9</ele><time>2010-04-02T10:48:02Z</time></trkpt>
<trkpt lat="45.600277" lon="0.244705"><ele>145.4</ele><time>2010-04-02T10:48:07Z</time></trkpt>
<trkpt lat="45.600117" lon="0.244555"><ele>146.2</ele><time>2010-04-02T10:48:12Z</time></trkpt>
<trkpt lat="45.599963" lon="0.244363"><ele>147</ele><time>2010-04-02T10:48:17Z</time></trkpt>
<trkpt lat="45.599857" lon="0.244122"><ele>147.7</ele><time>2010-04-02T10:48:22Z</time></trkpt>
<trkpt lat="45.599765" lon="0.243857"><ele>147.6</ele><time>2010-04-02T10:48:27Z</time></trkpt>
<trkpt lat="45.599675" lon="0.243595"><ele>147.7</ele><time>2010-04-02T10:48:32Z</time></trkpt>
<trkpt lat="45.599583" lon="0.243337"><ele>147.9</ele><time>2010-04-02T10:48:37Z</time></trkpt>
<trkpt lat="45.599492" lon="0.243087"><ele>148.5</ele><time>2010-04-02T10:48:42Z</time></trkpt>
<trkpt lat="45.599392" lon="0.242838"><ele>149.7</ele><time>2010-04-02T10:48:47Z</time></trkpt>
<trkpt lat="45.599282" lon="0.242613"><ele>150.5</ele><time>2010-04-02T10:48:52Z</time></trkpt>
<trkpt lat="45.599167" lon="0.242405"><ele>151.8</ele><time>2010-04-02T10:48:57Z</time></trkpt>
<trkpt lat="45.599045" lon="0.242205"><ele>152</ele><time>2010-04-02T10:49:02Z</time></trkpt>
<trkpt lat="45.598927" lon="0.242010"><ele>153.2</ele><time>2010-04-02T10:49:07Z</time></trkpt>
<trkpt lat="45.598812" lon="0.241817"><ele>155</ele><time>2010-04-02T10:49:12Z</time></trkpt>
<trkpt lat="45.598682" lon="0.241603"><ele>154.6</ele><time>2010-04-02T10:49:17Z</time></trkpt>
<trkpt lat="45.598553" lon="0.241393"><ele>154.1</ele><time>2010-04-02T10:49:22Z</time></trkpt>
<trkpt lat="45.598415" lon="0.241197"><ele>154.1</ele><time>2010-04-02T10:49:27Z</time></trkpt>
<trkpt lat="45.598293" lon="0.240973"><ele>153.7</ele><time>2010-04-02T10:49:32Z</time></trkpt>
<trkpt lat="45.598157" lon="0.240753"><ele>153.4</ele><time>2010-04-02T10:49:37Z</time></trkpt>
<trkpt lat="45.598007" lon="0.240542"><ele>153.2</ele><time>2010-04-02T10:49:42Z</time></trkpt>
<trkpt lat="45.597843" lon="0.240342"><ele>153.1</ele><time>2010-04-02T10:49:47Z</time></trkpt>
<trkpt lat="45.597675" lon="0.240153"><ele>153.1</ele><time>2010-04-02T10:49:52Z</time></trkpt>
<trkpt lat="45.597515" lon="0.239952"><ele>153.2</ele><time>2010-04-02T10:49:57Z</time></trkpt>
<trkpt lat="45.597393" lon="0.239717"><ele>153.2</ele><time>2010-04-02T10:50:02Z</time></trkpt>
<trkpt lat="45.597302" lon="0.239458"><ele>153.4</ele><time>2010-04-02T10:50:07Z</time></trkpt>
<trkpt lat="45.597218" lon="0.239197"><ele>154.2</ele><time>2010-04-02T10:50:12Z</time></trkpt>
<trkpt lat="45.597142" lon="0.238947"><ele>156.2</ele><time>2010-04-02T10:50:17Z</time></trkpt>
<trkpt lat="45.597065" lon="0.238715"><ele>157.8</ele><time>2010-04-02T10:50:22Z</time></trkpt>
<trkpt lat="45.596992" lon="0.238500"><ele>158.5</ele><time>2010-04-02T10:50:27Z</time></trkpt>
<trkpt lat="45.596920" lon="0.238295"><ele>159.5</ele><time>2010-04-02T10:50:32Z</time></trkpt>
<trkpt lat="45.596870" lon="0.238097"><ele>160.3</ele><time>2010-04-02T10:50:37Z</time></trkpt>
<trkpt lat="45.596840" lon="0.237890"><ele>161.4</ele><time>2010-04-02T10:50:42Z</time></trkpt>
<trkpt lat="45.596837" lon="0.237670"><ele>162.3</ele><time>2010-04-02T10:50:47Z</time></trkpt>
<trkpt lat="45.596840" lon="0.237437"><ele>162.9</ele><time>2010-04-02T10:50:52Z</time></trkpt>
<trkpt lat="45.596832" lon="0.237190"><ele>163.5</ele><time>2010-04-02T10:50:57Z</time></trkpt>
<trkpt lat="45.596798" lon="0.236942"><ele>163.9</ele><time>2010-04-02T10:51:02Z</time></trkpt>
<trkpt lat="45.596763" lon="0.236687"><ele>164.4</ele><time>2010-04-02T10:51:07Z</time></trkpt>
<trkpt lat="45.596718" lon="0.236417"><ele>164.7</ele><time>2010-04-02T10:51:12Z</time></trkpt>
<trkpt lat="45.596668" lon="0.236127"><ele>164.9</ele><time>2010-04-02T10:51:17Z</time></trkpt>
<trkpt lat="45.596612" lon="0.235818"><ele>165.2</ele><time>2010-04-02T10:51:22Z</time></trkpt>
<trkpt lat="45.596547" lon="0.235498"><ele>165.3</ele><time>2010-04-02T10:51:27Z</time></trkpt>
<trkpt lat="45.596470" lon="0.235170"><ele>165.6</ele><time>2010-04-02T10:51:32Z</time></trkpt>
<trkpt lat="45.596408" lon="0.234827"><ele>166.1</ele><time>2010-04-02T10:51:37Z</time></trkpt>
<trkpt lat="45.596352" lon="0.234462"><ele>166.2</ele><time>2010-04-02T10:51:42Z</time></trkpt>
<trkpt lat="45.596302" lon="0.234087"><ele>166</ele><time>2010-04-02T10:51:47Z</time></trkpt>
<trkpt lat="45.596245" lon="0.233728"><ele>166</ele><time>2010-04-02T10:51:52Z</time></trkpt>
<trkpt lat="45.596195" lon="0.233383"><ele>166.2</ele><time>2010-04-02T10:51:57Z</time></trkpt>
<trkpt lat="45.596153" lon="0.233042"><ele>166.2</ele><time>2010-04-02T10:52:02Z</time></trkpt>
<trkpt lat="45.596142" lon="0.232673"><ele>165.8</ele><time>2010-04-02T10:52:07Z</time></trkpt>
<trkpt lat="45.596138" lon="0.232300"><ele>165.3</ele><time>2010-04-02T10:52:12Z</time></trkpt>
<trkpt lat="45.596092" lon="0.231918"><ele>164.4</ele><time>2010-04-02T10:52:17Z</time></trkpt>
<trkpt lat="45.596008" lon="0.231507"><ele>163.1</ele><time>2010-04-02T10:52:22Z</time></trkpt>
<trkpt lat="45.595928" lon="0.231100"><ele>161.9</ele><time>2010-04-02T10:52:27Z</time></trkpt>
<trkpt lat="45.595855" lon="0.230703"><ele>160.3</ele><time>2010-04-02T10:52:32Z</time></trkpt>
<trkpt lat="45.595783" lon="0.230313"><ele>158.8</ele><time>2010-04-02T10:52:37Z</time></trkpt>
<trkpt lat="45.595745" lon="0.229907"><ele>158</ele><time>2010-04-02T10:52:42Z</time></trkpt>
<trkpt lat="45.595722" lon="0.229487"><ele>156.7</ele><time>2010-04-02T10:52:47Z</time></trkpt>
<trkpt lat="45.595757" lon="0.229068"><ele>156</ele><time>2010-04-02T10:52:52Z</time></trkpt>
<trkpt lat="45.595807" lon="0.228675"><ele>156.5</ele><time>2010-04-02T10:52:57Z</time></trkpt>
<trkpt lat="45.595920" lon="0.228288"><ele>156.4</ele><time>2010-04-02T10:53:02Z</time></trkpt>
<trkpt lat="45.596058" lon="0.227935"><ele>155.2</ele><time>2010-04-02T10:53:07Z</time></trkpt>
<trkpt lat="45.596198" lon="0.227595"><ele>154.5</ele><time>2010-04-02T10:53:12Z</time></trkpt>
<trkpt lat="45.596343" lon="0.227282"><ele>154.2</ele><time>2010-04-02T10:53:17Z</time></trkpt>
<trkpt lat="45.596482" lon="0.226950"><ele>153.6</ele><time>2010-04-02T10:53:22Z</time></trkpt>
<trkpt lat="45.596615" lon="0.226602"><ele>153.3</ele><time>2010-04-02T10:53:27Z</time></trkpt>
<trkpt lat="45.596783" lon="0.226332"><ele>153.1</ele><time>2010-04-02T10:53:32Z</time></trkpt>
<trkpt lat="45.597000" lon="0.226250"><ele>154.2</ele><time>2010-04-02T10:53:37Z</time></trkpt>
<trkpt lat="45.597192" lon="0.226122"><ele>155.6</ele><time>2010-04-02T10:53:42Z</time></trkpt>
<trkpt lat="45.597290" lon="0.225827"><ele>154.3</ele><time>2010-04-02T10:53:47Z</time></trkpt>
<trkpt lat="45.597340" lon="0.225483"><ele>152.9</ele><time>2010-04-02T10:53:52Z</time></trkpt>
<trkpt lat="45.597432" lon="0.225123"><ele>151.3</ele><time>2010-04-02T10:53:57Z</time></trkpt>
<trkpt lat="45.597542" lon="0.224807"><ele>150.3</ele><time>2010-04-02T10:54:02Z</time></trkpt>
<trkpt lat="45.597473" lon="0.224433"><ele>149.4</ele><time>2010-04-02T10:54:07Z</time></trkpt>
<trkpt lat="45.597405" lon="0.224047"><ele>147.4</ele><time>2010-04-02T10:54:12Z</time></trkpt>
<trkpt lat="45.597320" lon="0.223648"><ele>144.1</ele><time>2010-04-02T10:54:17Z</time></trkpt>
<trkpt lat="45.597222" lon="0.223247"><ele>141.1</ele><time>2010-04-02T10:54:22Z</time></trkpt>
<trkpt lat="45.597057" lon="0.222838"><ele>136.4</ele><time>2010-04-02T10:54:27Z</time></trkpt>
<trkpt lat="45.596863" lon="0.222505"><ele>131.9</ele><time>2010-04-02T10:54:32Z</time></trkpt>
<trkpt lat="45.596810" lon="0.222223"><ele>129</ele><time>2010-04-02T10:54:37Z</time></trkpt>
<trkpt lat="45.596855" lon="0.221957"><ele>126.5</ele><time>2010-04-02T10:54:42Z</time></trkpt>
<trkpt lat="45.597015" lon="0.221743"><ele>123.7</ele><time>2010-04-02T10:54:47Z</time></trkpt>
<trkpt lat="45.597145" lon="0.221487"><ele>120.7</ele><time>2010-04-02T10:54:52Z</time></trkpt>
<trkpt lat="45.597298" lon="0.221173"><ele>117.2</ele><time>2010-04-02T10:54:57Z</time></trkpt>
<trkpt lat="45.597462" lon="0.220875"><ele>114.1</ele><time>2010-04-02T10:55:02Z</time></trkpt>
<trkpt lat="45.597645" lon="0.220617"><ele>111.4</ele><time>2010-04-02T10:55:07Z</time></trkpt>
<trkpt lat="45.597687" lon="0.220403"><ele>111.6</ele><time>2010-04-02T10:55:12Z</time></trkpt>
<trkpt lat="45.597710" lon="0.220195"><ele>111.1</ele><time>2010-04-02T10:55:17Z</time></trkpt>
<trkpt lat="45.597698" lon="0.219893"><ele>111</ele><time>2010-04-02T10:55:22Z</time></trkpt>
<trkpt lat="45.597787" lon="0.219607"><ele>111.5</ele><time>2010-04-02T10:55:27Z</time></trkpt>
<trkpt lat="45.597878" lon="0.219412"><ele>111.8</ele><time>2010-04-02T10:55:32Z</time></trkpt>
<trkpt lat="45.597992" lon="0.219210"><ele>111.5</ele><time>2010-04-02T10:55:37Z</time></trkpt>
<trkpt lat="45.598087" lon="0.218967"><ele>111.1</ele><time>2010-04-02T10:55:42Z</time></trkpt>
<trkpt lat="45.598130" lon="0.218748"><ele>111.2</ele><time>2010-04-02T10:55:47Z</time></trkpt>
<trkpt lat="45.598118" lon="0.218393"><ele>109.9</ele><time>2010-04-02T10:55:52Z</time></trkpt>
<trkpt lat="45.598048" lon="0.217902"><ele>106.9</ele><time>2010-04-02T10:55:57Z</time></trkpt>
<trkpt lat="45.597980" lon="0.217410"><ele>104.2</ele><time>2010-04-02T10:56:02Z</time></trkpt>
<trkpt lat="45.597932" lon="0.217022"><ele>104.7</ele><time>2010-04-02T10:56:07Z</time></trkpt>
<trkpt lat="45.597908" lon="0.216685"><ele>105.4</ele><time>2010-04-02T10:56:12Z</time></trkpt>
<trkpt lat="45.597900" lon="0.216343"><ele>105.2</ele><time>2010-04-02T10:56:17Z</time></trkpt>
<trkpt lat="45.597908" lon="0.216020"><ele>105.9</ele><time>2010-04-02T10:56:22Z</time></trkpt>
<trkpt lat="45.597908" lon="0.215702"><ele>105.2</ele><time>2010-04-02T10:56:27Z</time></trkpt>
<trkpt lat="45.597920" lon="0.215397"><ele>105.1</ele><time>2010-04-02T10:56:32Z</time></trkpt>
<trkpt lat="45.597897" lon="0.215090"><ele>104.2</ele><time>2010-04-02T10:56:37Z</time></trkpt>
<trkpt lat="45.597858" lon="0.214777"><ele>102.1</ele><time>2010-04-02T10:56:42Z</time></trkpt>
<trkpt lat="45.597778" lon="0.214475"><ele>102.9</ele><time>2010-04-02T10:56:47Z</time></trkpt>
<trkpt lat="45.597695" lon="0.214195"><ele>103</ele><time>2010-04-02T10:56:52Z</time></trkpt>
<trkpt lat="45.597523" lon="0.213982"><ele>102</ele><time>2010-04-02T10:56:57Z</time></trkpt>
<trkpt lat="45.597358" lon="0.213727"><ele>104.8</ele><time>2010-04-02T10:57:02Z</time></trkpt>
<trkpt lat="45.597233" lon="0.213438"><ele>108.3</ele><time>2010-04-02T10:57:07Z</time></trkpt>
<trkpt lat="45.597110" lon="0.213235"><ele>109</ele><time>2010-04-02T10:57:12Z</time></trkpt>
<trkpt lat="45.597020" lon="0.213080"><ele>109.4</ele><time>2010-04-02T10:57:17Z</time></trkpt>
<trkpt lat="45.596950" lon="0.212910"><ele>109.2</ele><time>2010-04-02T10:57:22Z</time></trkpt>
<trkpt lat="45.596855" lon="0.212708"><ele>109.3</ele><time>2010-04-02T10:57:27Z</time></trkpt>
<trkpt lat="45.596778" lon="0.212507"><ele>108</ele><time>2010-04-02T10:57:32Z</time></trkpt>
<trkpt lat="45.596695" lon="0.212280"><ele>108</ele><time>2010-04-02T10:57:37Z</time></trkpt>
<trkpt lat="45.596607" lon="0.212090"><ele>109.1</ele><time>2010-04-02T10:57:42Z</time></trkpt>
<trkpt lat="45.596505" lon="0.211885"><ele>108.2</ele><time>2010-04-02T10:57:47Z</time></trkpt>
<trkpt lat="45.596408" lon="0.211732"><ele>108.2</ele><time>2010-04-02T10:57:52Z</time></trkpt>
<trkpt lat="45.596310" lon="0.211582"><ele>111.7</ele><time>2010-04-02T10:57:57Z</time></trkpt>
<trkpt lat="45.596177" lon="0.211438"><ele>111</ele><time>2010-04-02T10:58:02Z</time></trkpt>
<trkpt lat="45.595997" lon="0.211268"><ele>109.8</ele><time>2010-04-02T10:58:07Z</time></trkpt>
<trkpt lat="45.595837" lon="0.211113"><ele>107.7</ele><time>2010-04-02T10:58:12Z</time></trkpt>
<trkpt lat="45.595680" lon="0.210927"><ele>106.2</ele><time>2010-04-02T10:58:17Z</time></trkpt>
<trkpt lat="45.595508" lon="0.210695"><ele>107.6</ele><time>2010-04-02T10:58:22Z</time></trkpt>
<trkpt lat="45.595363" lon="0.210463"><ele>107.9</ele><time>2010-04-02T10:58:27Z</time></trkpt>
<trkpt lat="45.595207" lon="0.210195"><ele>108.2</ele><time>2010-04-02T10:58:32Z</time></trkpt>
<trkpt lat="45.595020" lon="0.209908"><ele>106.4</ele><time>2010-04-02T10:58:37Z</time></trkpt>
<trkpt lat="45.594860" lon="0.209648"><ele>103.9</ele><time>2010-04-02T10:58:42Z</time></trkpt>
<trkpt lat="45.594837" lon="0.209602"><ele>103.1</ele><time>2010-04-02T10:58:47Z</time></trkpt>
<trkpt lat="45.594842" lon="0.209602"><ele>102.8</ele><time>2010-04-02T10:58:52Z</time></trkpt>
<trkpt lat="45.594845" lon="0.209602"><ele>102.7</ele><time>2010-04-02T10:58:57Z</time></trkpt>
<trkpt lat="45.594845" lon="0.209598"><ele>102</ele><time>2010-04-02T10:59:02Z</time></trkpt>
<trkpt lat="45.594845" lon="0.209597"><ele>101.6</ele><time>2010-04-02T10:59:07Z</time></trkpt>
<trkpt lat="45.594845" lon="0.209597"><ele>101.4</ele><time>2010-04-02T10:59:12Z</time></trkpt>
<trkpt lat="45.594842" lon="0.209597"><ele>101.2</ele><time>2010-04-02T10:59:17Z</time></trkpt>
<trkpt lat="45.594842" lon="0.209597"><ele>101</ele><time>2010-04-02T10:59:22Z</time></trkpt>
<trkpt lat="45.594842" lon="0.209595"><ele>101.1</ele><time>2010-04-02T10:59:27Z</time></trkpt>
<trkpt lat="45.594848" lon="0.209600"><ele>101.1</ele><time>2010-04-02T10:59:32Z</time></trkpt>
<trkpt lat="45.594860" lon="0.209598"><ele>100.9</ele><time>2010-04-02T10:59:37Z</time></trkpt>
<trkpt lat="45.594868" lon="0.209602"><ele>100.7</ele><time>2010-04-02T10:59:42Z</time></trkpt>
<trkpt lat="45.594875" lon="0.209597"><ele>100.1</ele><time>2010-04-02T10:59:47Z</time></trkpt>
<trkpt lat="45.594883" lon="0.209563"><ele>99.3</ele><time>2010-04-02T10:59:52Z</time></trkpt>
<trkpt lat="45.594933" lon="0.209345"><ele>97.5</ele><time>2010-04-02T10:59:57Z</time></trkpt>
<trkpt lat="45.594948" lon="0.209270"><ele>97.2</ele><time>2010-04-02T11:00:02Z</time></trkpt>
<trkpt lat="45.594975" lon="0.209127"><ele>97.7</ele><time>2010-04-02T11:00:07Z</time></trkpt>
<trkpt lat="45.594982" lon="0.208907"><ele>97.1</ele><time>2010-04-02T11:00:12Z</time></trkpt>
<trkpt lat="45.594987" lon="0.208672"><ele>97.1</ele><time>2010-04-02T11:00:17Z</time></trkpt>
<trkpt lat="45.594993" lon="0.208412"><ele>96.8</ele><time>2010-04-02T11:00:22Z</time></trkpt>
<trkpt lat="45.595002" lon="0.208147"><ele>96.9</ele><time>2010-04-02T11:00:27Z</time></trkpt>
<trkpt lat="45.595035" lon="0.207910"><ele>97.1</ele><time>2010-04-02T11:00:32Z</time></trkpt>
<trkpt lat="45.595127" lon="0.207687"><ele>97.1</ele><time>2010-04-02T11:00:37Z</time></trkpt>
<trkpt lat="45.595268" lon="0.207508"><ele>97.6</ele><time>2010-04-02T11:00:42Z</time></trkpt>
<trkpt lat="45.595425" lon="0.207350"><ele>97.9</ele><time>2010-04-02T11:00:47Z</time></trkpt>
<trkpt lat="45.595592" lon="0.207180"><ele>97.9</ele><time>2010-04-02T11:00:52Z</time></trkpt>
<trkpt lat="45.595783" lon="0.206992"><ele>97.3</ele><time>2010-04-02T11:00:57Z</time></trkpt>
<trkpt lat="45.595985" lon="0.206783"><ele>96.7</ele><time>2010-04-02T11:01:02Z</time></trkpt>
<trkpt lat="45.596172" lon="0.206533"><ele>96.4</ele><time>2010-04-02T11:01:07Z</time></trkpt>
<trkpt lat="45.596333" lon="0.206233"><ele>96</ele><time>2010-04-02T11:01:12Z</time></trkpt>
<trkpt lat="45.596473" lon="0.205935"><ele>95.8</ele><time>2010-04-02T11:01:17Z</time></trkpt>
<trkpt lat="45.596615" lon="0.205633"><ele>95.5</ele><time>2010-04-02T11:01:22Z</time></trkpt>
<trkpt lat="45.596748" lon="0.205347"><ele>95.4</ele><time>2010-04-02T11:01:27Z</time></trkpt>
<trkpt lat="45.596863" lon="0.205067"><ele>95.3</ele><time>2010-04-02T11:01:32Z</time></trkpt>
<trkpt lat="45.596955" lon="0.204797"><ele>95.3</ele><time>2010-04-02T11:01:37Z</time></trkpt>
<trkpt lat="45.597035" lon="0.204515"><ele>95.3</ele><time>2010-04-02T11:01:42Z</time></trkpt>
<trkpt lat="45.597118" lon="0.204243"><ele>95.7</ele><time>2010-04-02T11:01:47Z</time></trkpt>
<trkpt lat="45.597183" lon="0.204072"><ele>96.2</ele><time>2010-04-02T11:01:52Z</time></trkpt>
<trkpt lat="45.597267" lon="0.204003"><ele>97.2</ele><time>2010-04-02T11:01:57Z</time></trkpt>
<trkpt lat="45.597320" lon="0.203918"><ele>98.3</ele><time>2010-04-02T11:02:02Z</time></trkpt>
<trkpt lat="45.597373" lon="0.203837"><ele>99.4</ele><time>2010-04-02T11:02:07Z</time></trkpt>
<trkpt lat="45.597447" lon="0.203792"><ele>100.5</ele><time>2010-04-02T11:02:12Z</time></trkpt>
<trkpt lat="45.597507" lon="0.203850"><ele>101.7</ele><time>2010-04-02T11:02:17Z</time></trkpt>
<trkpt lat="45.597530" lon="0.203943"><ele>103</ele><time>2010-04-02T11:02:22Z</time></trkpt>
<trkpt lat="45.597530" lon="0.203962"><ele>103.2</ele><time>2010-04-02T11:02:27Z</time></trkpt>
<trkpt lat="45.597527" lon="0.203965"><ele>103</ele><time>2010-04-02T11:02:32Z</time></trkpt>
<trkpt lat="45.597523" lon="0.203965"><ele>102.9</ele><time>2010-04-02T11:02:37Z</time></trkpt>
<trkpt lat="45.597523" lon="0.203963"><ele>102.7</ele><time>2010-04-02T11:02:42Z</time></trkpt>
<trkpt lat="45.597527" lon="0.203965"><ele>102.6</ele><time>2010-04-02T11:02:47Z</time></trkpt>
<trkpt lat="45.597527" lon="0.203967"><ele>102.3</ele><time>2010-04-02T11:02:52Z</time></trkpt>
<trkpt lat="45.597523" lon="0.203970"><ele>102.2</ele><time>2010-04-02T11:02:57Z</time></trkpt>
<trkpt lat="45.597523" lon="0.203972"><ele>102.2</ele><time>2010-04-02T11:03:02Z</time></trkpt>
<trkpt lat="45.597523" lon="0.203972"><ele>102.3</ele><time>2010-04-02T11:03:07Z</time></trkpt>
<trkpt lat="45.597518" lon="0.203972"><ele>102.5</ele><time>2010-04-02T11:03:12Z</time></trkpt>
<trkpt lat="45.597518" lon="0.203973"><ele>102.4</ele><time>2010-04-02T11:03:17Z</time></trkpt>
<trkpt lat="45.597518" lon="0.203975"><ele>102.4</ele><time>2010-04-02T11:03:22Z</time></trkpt>
<trkpt lat="45.597518" lon="0.203977"><ele>102.5</ele><time>2010-04-02T11:03:27Z</time></trkpt>
<trkpt lat="45.597515" lon="0.203977"><ele>102.4</ele><time>2010-04-02T11:03:32Z</time></trkpt>
<trkpt lat="45.597515" lon="0.203980"><ele>102.4</ele><time>2010-04-02T11:03:37Z</time></trkpt>
<trkpt lat="45.597518" lon="0.203983"><ele>102.2</ele><time>2010-04-02T11:03:42Z</time></trkpt>
<trkpt lat="45.597523" lon="0.203985"><ele>102.1</ele><time>2010-04-02T11:03:47Z</time></trkpt>
<trkpt lat="45.597523" lon="0.203960"><ele>102.1</ele><time>2010-04-02T11:03:52Z</time></trkpt>
<trkpt lat="45.597550" lon="0.203863"><ele>102</ele><time>2010-04-02T11:03:57Z</time></trkpt>
<trkpt lat="45.597598" lon="0.203805"><ele>102.9</ele><time>2010-04-02T11:04:02Z</time></trkpt>
<trkpt lat="45.597668" lon="0.203760"><ele>104</ele><time>2010-04-02T11:04:07Z</time></trkpt>
<trkpt lat="45.597743" lon="0.203727"><ele>105</ele><time>2010-04-02T11:04:12Z</time></trkpt>
<trkpt lat="45.597823" lon="0.203697"><ele>105.9</ele><time>2010-04-02T11:04:17Z</time></trkpt>
<trkpt lat="45.597905" lon="0.203672"><ele>106.8</ele><time>2010-04-02T11:04:22Z</time></trkpt>
<trkpt lat="45.597977" lon="0.203635"><ele>108.2</ele><time>2010-04-02T11:04:27Z</time></trkpt>
<trkpt lat="45.598045" lon="0.203598"><ele>109.1</ele><time>2010-04-02T11:04:32Z</time></trkpt>
<trkpt lat="45.598118" lon="0.203572"><ele>110.2</ele><time>2010-04-02T11:04:37Z</time></trkpt>
<trkpt lat="45.598198" lon="0.203547"><ele>111.2</ele><time>2010-04-02T11:04:42Z</time></trkpt>
<trkpt lat="45.598275" lon="0.203512"><ele>112</ele><time>2010-04-02T11:04:47Z</time></trkpt>
<trkpt lat="45.598358" lon="0.203477"><ele>112.9</ele><time>2010-04-02T11:04:52Z</time></trkpt>
<trkpt lat="45.598435" lon="0.203433"><ele>114</ele><time>2010-04-02T11:04:57Z</time></trkpt>
<trkpt lat="45.598510" lon="0.203392"><ele>115.1</ele><time>2010-04-02T11:05:02Z</time></trkpt>
<trkpt lat="45.598592" lon="0.203358"><ele>116.2</ele><time>2010-04-02T11:05:07Z</time></trkpt>
<trkpt lat="45.598667" lon="0.203318"><ele>117.2</ele><time>2010-04-02T11:05:12Z</time></trkpt>
<trkpt lat="45.598728" lon="0.203285"><ele>118.6</ele><time>2010-04-02T11:05:17Z</time></trkpt>
<trkpt lat="45.598805" lon="0.203247"><ele>119.4</ele><time>2010-04-02T11:05:22Z</time></trkpt>
<trkpt lat="45.598850" lon="0.203225"><ele>119.6</ele><time>2010-04-02T11:05:27Z</time></trkpt>
<trkpt lat="45.598847" lon="0.203223"><ele>119.6</ele><time>2010-04-02T11:05:32Z</time></trkpt>
<trkpt lat="45.598847" lon="0.203222"><ele>119.5</ele><time>2010-04-02T11:05:37Z</time></trkpt>
<trkpt lat="45.598912" lon="0.203190"><ele>120.1</ele><time>2010-04-02T11:05:42Z</time></trkpt>
<trkpt lat="45.599018" lon="0.203143"><ele>120.8</ele><time>2010-04-02T11:05:47Z</time></trkpt>
<trkpt lat="45.599128" lon="0.203092"><ele>121.3</ele><time>2010-04-02T11:05:52Z</time></trkpt>
<trkpt lat="45.599240" lon="0.203055"><ele>121.6</ele><time>2010-04-02T11:05:57Z</time></trkpt>
<trkpt lat="45.599342" lon="0.203015"><ele>122.3</ele><time>2010-04-02T11:06:02Z</time></trkpt>
<trkpt lat="45.599438" lon="0.202975"><ele>123.6</ele><time>2010-04-02T11:06:07Z</time></trkpt>
<trkpt lat="45.599548" lon="0.202925"><ele>124.6</ele><time>2010-04-02T11:06:12Z</time></trkpt>
<trkpt lat="45.599658" lon="0.202830"><ele>125.1</ele><time>2010-04-02T11:06:17Z</time></trkpt>
<trkpt lat="45.599765" lon="0.202738"><ele>125.8</ele><time>2010-04-02T11:06:22Z</time></trkpt>
<trkpt lat="45.599877" lon="0.202658"><ele>127</ele><time>2010-04-02T11:06:27Z</time></trkpt>
<trkpt lat="45.599992" lon="0.202582"><ele>128</ele><time>2010-04-02T11:06:32Z</time></trkpt>
<trkpt lat="45.600102" lon="0.202480"><ele>128.7</ele><time>2010-04-02T11:06:37Z</time></trkpt>
<trkpt lat="45.600212" lon="0.202410"><ele>128.9</ele><time>2010-04-02T11:06:42Z</time></trkpt>
<trkpt lat="45.600288" lon="0.202375"><ele>128.4</ele><time>2010-04-02T11:06:47Z</time></trkpt>
<trkpt lat="45.600362" lon="0.202383"><ele>128.8</ele><time>2010-04-02T11:06:52Z</time></trkpt>
<trkpt lat="45.600425" lon="0.202405"><ele>129.2</ele><time>2010-04-02T11:06:57Z</time></trkpt>
<trkpt lat="45.600483" lon="0.202467"><ele>129.8</ele><time>2010-04-02T11:07:02Z</time></trkpt>
<trkpt lat="45.600543" lon="0.202467"><ele>130.6</ele><time>2010-04-02T11:07:07Z</time></trkpt>
<trkpt lat="45.600593" lon="0.202495"><ele>131.5</ele><time>2010-04-02T11:07:12Z</time></trkpt>
<trkpt lat="45.600655" lon="0.202515"><ele>132.1</ele><time>2010-04-02T11:07:17Z</time></trkpt>
<trkpt lat="45.600712" lon="0.202510"><ele>133.1</ele><time>2010-04-02T11:07:22Z</time></trkpt>
<trkpt lat="45.600780" lon="0.202528"><ele>133.6</ele><time>2010-04-02T11:07:27Z</time></trkpt>
<trkpt lat="45.600857" lon="0.202575"><ele>134</ele><time>2010-04-02T11:07:32Z</time></trkpt>
<trkpt lat="45.600937" lon="0.202612"><ele>134.7</ele><time>2010-04-02T11:07:37Z</time></trkpt>
<trkpt lat="45.601020" lon="0.202645"><ele>135</ele><time>2010-04-02T11:07:42Z</time></trkpt>
<trkpt lat="45.601102" lon="0.202672"><ele>135</ele><time>2010-04-02T11:07:47Z</time></trkpt>
<trkpt lat="45.601188" lon="0.202690"><ele>135.3</ele><time>2010-04-02T11:07:52Z</time></trkpt>
<trkpt lat="45.601273" lon="0.202685"><ele>135.9</ele><time>2010-04-02T11:07:57Z</time></trkpt>
<trkpt lat="45.601363" lon="0.202678"><ele>136.9</ele><time>2010-04-02T11:08:02Z</time></trkpt>
<trkpt lat="45.601440" lon="0.202683"><ele>137.2</ele><time>2010-04-02T11:08:07Z</time></trkpt>
<trkpt lat="45.601528" lon="0.202677"><ele>137.7</ele><time>2010-04-02T11:08:12Z</time></trkpt>
<trkpt lat="45.601623" lon="0.202662"><ele>137.8</ele><time>2010-04-02T11:08:17Z</time></trkpt>
<trkpt lat="45.601718" lon="0.202650"><ele>137.8</ele><time>2010-04-02T11:08:22Z</time></trkpt>
<trkpt lat="45.601807" lon="0.202647"><ele>138.2</ele><time>2010-04-02T11:08:27Z</time></trkpt>
<trkpt lat="45.601898" lon="0.202637"><ele>138.5</ele><time>2010-04-02T11:08:32Z</time></trkpt>
<trkpt lat="45.601990" lon="0.202623"><ele>139</ele><time>2010-04-02T11:08:37Z</time></trkpt>
<trkpt lat="45.602085" lon="0.202620"><ele>139.6</ele><time>2010-04-02T11:08:42Z</time></trkpt>
<trkpt lat="45.602185" lon="0.202610"><ele>140</ele><time>2010-04-02T11:08:47Z</time></trkpt>
<trkpt lat="45.602292" lon="0.202598"><ele>140.4</ele><time>2010-04-02T11:08:52Z</time></trkpt>
<trkpt lat="45.602390" lon="0.202597"><ele>140.9</ele><time>2010-04-02T11:08:57Z</time></trkpt>
<trkpt lat="45.602502" lon="0.202575"><ele>141.6</ele><time>2010-04-02T11:09:02Z</time></trkpt>
<trkpt lat="45.602603" lon="0.202560"><ele>142.3</ele><time>2010-04-02T11:09:07Z</time></trkpt>
<trkpt lat="45.602707" lon="0.202543"><ele>143</ele><time>2010-04-02T11:09:12Z</time></trkpt>
<trkpt lat="45.602818" lon="0.202518"><ele>143.5</ele><time>2010-04-02T11:09:17Z</time></trkpt>
<trkpt lat="45.602935" lon="0.202493"><ele>143.8</ele><time>2010-04-02T11:09:22Z</time></trkpt>
<trkpt lat="45.603065" lon="0.202447"><ele>144</ele><time>2010-04-02T11:09:27Z</time></trkpt>
<trkpt lat="45.603198" lon="0.202380"><ele>144.2</ele><time>2010-04-02T11:09:32Z</time></trkpt>
<trkpt lat="45.603343" lon="0.202300"><ele>144.4</ele><time>2010-04-02T11:09:37Z</time></trkpt>
<trkpt lat="45.603435" lon="0.202240"><ele>144.5</ele><time>2010-04-02T11:09:42Z</time></trkpt>
<trkpt lat="45.603547" lon="0.202153"><ele>144.3</ele><time>2010-04-02T11:09:47Z</time></trkpt>
<trkpt lat="45.603672" lon="0.202048"><ele>143.9</ele><time>2010-04-02T11:09:52Z</time></trkpt>
<trkpt lat="45.603817" lon="0.201922"><ele>143.4</ele><time>2010-04-02T11:09:57Z</time></trkpt>
<trkpt lat="45.603982" lon="0.201763"><ele>142.8</ele><time>2010-04-02T11:10:02Z</time></trkpt>
<trkpt lat="45.604168" lon="0.201590"><ele>142</ele><time>2010-04-02T11:10:07Z</time></trkpt>
<trkpt lat="45.604352" lon="0.201443"><ele>140.9</ele><time>2010-04-02T11:10:12Z</time></trkpt>
<trkpt lat="45.604538" lon="0.201318"><ele>139.9</ele><time>2010-04-02T11:10:17Z</time></trkpt>
<trkpt lat="45.604722" lon="0.201192"><ele>139.1</ele><time>2010-04-02T11:10:22Z</time></trkpt>
<trkpt lat="45.604932" lon="0.201063"><ele>137.2</ele><time>2010-04-02T11:10:27Z</time></trkpt>
<trkpt lat="45.605145" lon="0.200988"><ele>135.8</ele><time>2010-04-02T11:10:32Z</time></trkpt>
<trkpt lat="45.605388" lon="0.200948"><ele>134</ele><time>2010-04-02T11:10:37Z</time></trkpt>
<trkpt lat="45.605633" lon="0.200765"><ele>132.5</ele><time>2010-04-02T11:10:42Z</time></trkpt>
<trkpt lat="45.605805" lon="0.200547"><ele>132</ele><time>2010-04-02T11:10:47Z</time></trkpt>
<trkpt lat="45.605915" lon="0.200347"><ele>131</ele><time>2010-04-02T11:10:52Z</time></trkpt>
<trkpt lat="45.606072" lon="0.200278"><ele>131.6</ele><time>2010-04-02T11:10:57Z</time></trkpt>
<trkpt lat="45.606235" lon="0.200402"><ele>132.9</ele><time>2010-04-02T11:11:02Z</time></trkpt>
<trkpt lat="45.606385" lon="0.200558"><ele>134</ele><time>2010-04-02T11:11:07Z</time></trkpt>
<trkpt lat="45.606530" lon="0.200705"><ele>135.4</ele><time>2010-04-02T11:11:12Z</time></trkpt>
<trkpt lat="45.606655" lon="0.200838"><ele>136.6</ele><time>2010-04-02T11:11:17Z</time></trkpt>
<trkpt lat="45.606788" lon="0.200970"><ele>137.6</ele><time>2010-04-02T11:11:22Z</time></trkpt>
<trkpt lat="45.606915" lon="0.201110"><ele>138.4</ele><time>2010-04-02T11:11:27Z</time></trkpt>
<trkpt lat="45.607048" lon="0.201248"><ele>139.2</ele><time>2010-04-02T11:11:32Z</time></trkpt>
<trkpt lat="45.607185" lon="0.201397"><ele>139.9</ele><time>2010-04-02T11:11:37Z</time></trkpt>
<trkpt lat="45.607330" lon="0.201562"><ele>140.6</ele><time>2010-04-02T11:11:42Z</time></trkpt>
<trkpt lat="45.607487" lon="0.201732"><ele>141.4</ele><time>2010-04-02T11:11:47Z</time></trkpt>
<trkpt lat="45.607640" lon="0.201900"><ele>142.4</ele><time>2010-04-02T11:11:52Z</time></trkpt>
<trkpt lat="45.607795" lon="0.202068"><ele>143</ele><time>2010-04-02T11:11:57Z</time></trkpt>
<trkpt lat="45.607952" lon="0.202235"><ele>143.5</ele><time>2010-04-02T11:12:02Z</time></trkpt>
<trkpt lat="45.608112" lon="0.202413"><ele>144</ele><time>2010-04-02T11:12:07Z</time></trkpt>
<trkpt lat="45.608273" lon="0.202583"><ele>144.6</ele><time>2010-04-02T11:12:12Z</time></trkpt>
<trkpt lat="45.608428" lon="0.202760"><ele>145.2</ele><time>2010-04-02T11:12:17Z</time></trkpt>
<trkpt lat="45.608582" lon="0.202927"><ele>146.1</ele><time>2010-04-02T11:12:22Z</time></trkpt>
<trkpt lat="45.608730" lon="0.203103"><ele>147.1</ele><time>2010-04-02T11:12:27Z</time></trkpt>
<trkpt lat="45.608890" lon="0.203293"><ele>148.1</ele><time>2010-04-02T11:12:32Z</time></trkpt>
<trkpt lat="45.609050" lon="0.203498"><ele>148.7</ele><time>2010-04-02T11:12:37Z</time></trkpt>
<trkpt lat="45.609218" lon="0.203707"><ele>149.5</ele><time>2010-04-02T11:12:42Z</time></trkpt>
<trkpt lat="45.609372" lon="0.203915"><ele>150.2</ele><time>2010-04-02T11:12:47Z</time></trkpt>
<trkpt lat="45.609497" lon="0.204098"><ele>150.6</ele><time>2010-04-02T11:12:52Z</time></trkpt>
<trkpt lat="45.609497" lon="0.204332"><ele>151.3</ele><time>2010-04-02T11:12:57Z</time></trkpt>
<trkpt lat="45.609413" lon="0.204602"><ele>151.6</ele><time>2010-04-02T11:13:02Z</time></trkpt>
<trkpt lat="45.609348" lon="0.204887"><ele>151.7</ele><time>2010-04-02T11:13:07Z</time></trkpt>
<trkpt lat="45.609292" lon="0.205185"><ele>151.9</ele><time>2010-04-02T11:13:12Z</time></trkpt>
<trkpt lat="45.609253" lon="0.205502"><ele>152.2</ele><time>2010-04-02T11:13:17Z</time></trkpt>
<trkpt lat="45.609227" lon="0.205832"><ele>152.5</ele><time>2010-04-02T11:13:22Z</time></trkpt>
<trkpt lat="45.609212" lon="0.206172"><ele>152.6</ele><time>2010-04-02T11:13:27Z</time></trkpt>
<trkpt lat="45.609195" lon="0.206532"><ele>152.4</ele><time>2010-04-02T11:13:32Z</time></trkpt>
<trkpt lat="45.609185" lon="0.206917"><ele>152</ele><time>2010-04-02T11:13:37Z</time></trkpt>
<trkpt lat="45.609177" lon="0.207288"><ele>151.4</ele><time>2010-04-02T11:13:42Z</time></trkpt>
<trkpt lat="45.609287" lon="0.207588"><ele>150.7</ele><time>2010-04-02T11:13:47Z</time></trkpt>
<trkpt lat="45.609505" lon="0.207872"><ele>149.6</ele><time>2010-04-02T11:13:52Z</time></trkpt>
<trkpt lat="45.609760" lon="0.208188"><ele>147.8</ele><time>2010-04-02T11:13:57Z</time></trkpt>
<trkpt lat="45.610047" lon="0.208575"><ele>145.3</ele><time>2010-04-02T11:14:02Z</time></trkpt>
<trkpt lat="45.610332" lon="0.208950"><ele>143</ele><time>2010-04-02T11:14:07Z</time></trkpt>
<trkpt lat="45.610515" lon="0.209143"><ele>141.7</ele><time>2010-04-02T11:14:12Z</time></trkpt>
<trkpt lat="45.610675" lon="0.209032"><ele>141.4</ele><time>2010-04-02T11:14:17Z</time></trkpt>
<trkpt lat="45.610852" lon="0.208852"><ele>141.2</ele><time>2010-04-02T11:14:22Z</time></trkpt>
<trkpt lat="45.611035" lon="0.208628"><ele>140.8</ele><time>2010-04-02T11:14:27Z</time></trkpt>
<trkpt lat="45.611190" lon="0.208337"><ele>140</ele><time>2010-04-02T11:14:32Z</time></trkpt>
<trkpt lat="45.611305" lon="0.207998"><ele>138.8</ele><time>2010-04-02T11:14:37Z</time></trkpt>
<trkpt lat="45.611438" lon="0.207672"><ele>137.8</ele><time>2010-04-02T11:14:42Z</time></trkpt>
<trkpt lat="45.611577" lon="0.207342"><ele>137.2</ele><time>2010-04-02T11:14:47Z</time></trkpt>
<trkpt lat="45.611678" lon="0.206983"><ele>137.2</ele><time>2010-04-02T11:14:52Z</time></trkpt>
<trkpt lat="45.611770" lon="0.206625"><ele>136.6</ele><time>2010-04-02T11:14:57Z</time></trkpt>
<trkpt lat="45.611915" lon="0.206327"><ele>137.1</ele><time>2010-04-02T11:15:02Z</time></trkpt>
<trkpt lat="45.612122" lon="0.206097"><ele>137.4</ele><time>2010-04-02T11:15:07Z</time></trkpt>
<trkpt lat="45.612297" lon="0.205823"><ele>137.5</ele><time>2010-04-02T11:15:12Z</time></trkpt>
<trkpt lat="45.612445" lon="0.205523"><ele>137.3</ele><time>2010-04-02T11:15:17Z</time></trkpt>
<trkpt lat="45.612580" lon="0.205200"><ele>137</ele><time>2010-04-02T11:15:22Z</time></trkpt>
<trkpt lat="45.612717" lon="0.204877"><ele>136.3</ele><time>2010-04-02T11:15:27Z</time></trkpt>
<trkpt lat="45.612850" lon="0.204547"><ele>135.8</ele><time>2010-04-02T11:15:32Z</time></trkpt>
<trkpt lat="45.612988" lon="0.204218"><ele>135.3</ele><time>2010-04-02T11:15:37Z</time></trkpt>
<trkpt lat="45.613122" lon="0.203910"><ele>135.2</ele><time>2010-04-02T11:15:42Z</time></trkpt>
<trkpt lat="45.613232" lon="0.203622"><ele>135.2</ele><time>2010-04-02T11:15:47Z</time></trkpt>
<trkpt lat="45.613353" lon="0.203360"><ele>135.9</ele><time>2010-04-02T11:15:52Z</time></trkpt>
<trkpt lat="45.613457" lon="0.203083"><ele>136.3</ele><time>2010-04-02T11:15:57Z</time></trkpt>
<trkpt lat="45.613572" lon="0.202795"><ele>135.9</ele><time>2010-04-02T11:16:02Z</time></trkpt>
<trkpt lat="45.613712" lon="0.202498"><ele>135</ele><time>2010-04-02T11:16:07Z</time></trkpt>
<trkpt lat="45.613862" lon="0.202198"><ele>134.4</ele><time>2010-04-02T11:16:12Z</time></trkpt>
<trkpt lat="45.614022" lon="0.201897"><ele>133.8</ele><time>2010-04-02T11:16:17Z</time></trkpt>
<trkpt lat="45.614173" lon="0.201557"><ele>132.6</ele><time>2010-04-02T11:16:22Z</time></trkpt>
<trkpt lat="45.614330" lon="0.201170"><ele>131</ele><time>2010-04-02T11:16:27Z</time></trkpt>
<trkpt lat="45.614448" lon="0.200768"><ele>129.9</ele><time>2010-04-02T11:16:32Z</time></trkpt>
<trkpt lat="45.614502" lon="0.200538"><ele>130.3</ele><time>2010-04-02T11:16:37Z</time></trkpt>
<trkpt lat="45.614608" lon="0.200250"><ele>129.4</ele><time>2010-04-02T11:16:42Z</time></trkpt>
<trkpt lat="45.614727" lon="0.199940"><ele>128.7</ele><time>2010-04-02T11:16:47Z</time></trkpt>
<trkpt lat="45.614807" lon="0.199573"><ele>128.6</ele><time>2010-04-02T11:16:52Z</time></trkpt>
<trkpt lat="45.614963" lon="0.199235"><ele>128</ele><time>2010-04-02T11:16:57Z</time></trkpt>
<trkpt lat="45.615112" lon="0.198917"><ele>128.7</ele><time>2010-04-02T11:17:02Z</time></trkpt>
<trkpt lat="45.615262" lon="0.198632"><ele>129.2</ele><time>2010-04-02T11:17:07Z</time></trkpt>
<trkpt lat="45.615390" lon="0.198402"><ele>130.7</ele><time>2010-04-02T11:17:12Z</time></trkpt>
<trkpt lat="45.615513" lon="0.198113"><ele>131.8</ele><time>2010-04-02T11:17:17Z</time></trkpt>
<trkpt lat="45.615620" lon="0.197845"><ele>132.1</ele><time>2010-04-02T11:17:22Z</time></trkpt>
<trkpt lat="45.615742" lon="0.197605"><ele>132.9</ele><time>2010-04-02T11:17:27Z</time></trkpt>
<trkpt lat="45.615872" lon="0.197343"><ele>133</ele><time>2010-04-02T11:17:32Z</time></trkpt>
<trkpt lat="45.616023" lon="0.197137"><ele>133.2</ele><time>2010-04-02T11:17:37Z</time></trkpt>
<trkpt lat="45.616212" lon="0.196937"><ele>132.4</ele><time>2010-04-02T11:17:42Z</time></trkpt>
<trkpt lat="45.616413" lon="0.196720"><ele>131.5</ele><time>2010-04-02T11:17:47Z</time></trkpt>
<trkpt lat="45.616597" lon="0.196540"><ele>131.1</ele><time>2010-04-02T11:17:52Z</time></trkpt>
<trkpt lat="45.616795" lon="0.196398"><ele>130.1</ele><time>2010-04-02T11:17:57Z</time></trkpt>
<trkpt lat="45.617008" lon="0.196222"><ele>129.3</ele><time>2010-04-02T11:18:02Z</time></trkpt>
<trkpt lat="45.617177" lon="0.195973"><ele>127.9</ele><time>2010-04-02T11:18:07Z</time></trkpt>
<trkpt lat="45.617370" lon="0.195730"><ele>126.4</ele><time>2010-04-02T11:18:12Z</time></trkpt>
<trkpt lat="45.617600" lon="0.195510"><ele>125.6</ele><time>2010-04-02T11:18:17Z</time></trkpt>
<trkpt lat="45.617832" lon="0.195282"><ele>124.5</ele><time>2010-04-02T11:18:22Z</time></trkpt>
<trkpt lat="45.618053" lon="0.195148"><ele>124.5</ele><time>2010-04-02T11:18:27Z</time></trkpt>
<trkpt lat="45.618282" lon="0.195192"><ele>125.5</ele><time>2010-04-02T11:18:32Z</time></trkpt>
<trkpt lat="45.618485" lon="0.195157"><ele>127</ele><time>2010-04-02T11:18:37Z</time></trkpt>
<trkpt lat="45.618690" lon="0.195092"><ele>128.6</ele><time>2010-04-02T11:18:42Z</time></trkpt>
<trkpt lat="45.618900" lon="0.194988"><ele>129.4</ele><time>2010-04-02T11:18:47Z</time></trkpt>
<trkpt lat="45.619122" lon="0.194875"><ele>130.1</ele><time>2010-04-02T11:18:52Z</time></trkpt>
<trkpt lat="45.619355" lon="0.194728"><ele>130.4</ele><time>2010-04-02T11:18:57Z</time></trkpt>
<trkpt lat="45.619580" lon="0.194548"><ele>131</ele><time>2010-04-02T11:19:02Z</time></trkpt>
<trkpt lat="45.619797" lon="0.194348"><ele>131</ele><time>2010-04-02T11:19:07Z</time></trkpt>
<trkpt lat="45.619903" lon="0.194080"><ele>131.2</ele><time>2010-04-02T11:19:12Z</time></trkpt>
<trkpt lat="45.619950" lon="0.193927"><ele>131.7</ele><time>2010-04-02T11:19:17Z</time></trkpt>
<trkpt lat="45.619957" lon="0.193897"><ele>131.6</ele><time>2010-04-02T11:19:22Z</time></trkpt>
<trkpt lat="45.619968" lon="0.193895"><ele>132.6</ele><time>2010-04-02T11:19:27Z</time></trkpt>
<trkpt lat="45.619972" lon="0.193893"><ele>132.6</ele><time>2010-04-02T11:19:32Z</time></trkpt>
<trkpt lat="45.619980" lon="0.193892"><ele>132.7</ele><time>2010-04-02T11:19:37Z</time></trkpt>
<trkpt lat="45.619980" lon="0.193893"><ele>132</ele><time>2010-04-02T11:19:42Z</time></trkpt>
<trkpt lat="45.619980" lon="0.193893"><ele>131.2</ele><time>2010-04-02T11:19:47Z</time></trkpt>
<trkpt lat="45.619980" lon="0.193897"><ele>130.9</ele><time>2010-04-02T11:19:52Z</time></trkpt>
<trkpt lat="45.619980" lon="0.193908"><ele>132.2</ele><time>2010-04-02T11:19:57Z</time></trkpt>
<trkpt lat="45.619972" lon="0.193920"><ele>133.5</ele><time>2010-04-02T11:20:02Z</time></trkpt>
<trkpt lat="45.619972" lon="0.193923"><ele>133.9</ele><time>2010-04-02T11:20:07Z</time></trkpt>
<trkpt lat="45.619972" lon="0.193918"><ele>133.6</ele><time>2010-04-02T11:20:12Z</time></trkpt>
<trkpt lat="45.619968" lon="0.193915"><ele>133.3</ele><time>2010-04-02T11:20:17Z</time></trkpt>
<trkpt lat="45.619960" lon="0.193920"><ele>133.4</ele><time>2010-04-02T11:20:22Z</time></trkpt>
<trkpt lat="45.619953" lon="0.193918"><ele>133</ele><time>2010-04-02T11:20:27Z</time></trkpt>
<trkpt lat="45.619957" lon="0.193917"><ele>133.8</ele><time>2010-04-02T11:20:32Z</time></trkpt>
<trkpt lat="45.619953" lon="0.193912"><ele>133.3</ele><time>2010-04-02T11:20:37Z</time></trkpt>
<trkpt lat="45.619957" lon="0.193883"><ele>133.3</ele><time>2010-04-02T11:20:42Z</time></trkpt>
<trkpt lat="45.620010" lon="0.193725"><ele>132.6</ele><time>2010-04-02T11:20:47Z</time></trkpt>
<trkpt lat="45.620110" lon="0.193480"><ele>132.4</ele><time>2010-04-02T11:20:52Z</time></trkpt>
<trkpt lat="45.620228" lon="0.193205"><ele>132</ele><time>2010-04-02T11:20:57Z</time></trkpt>
<trkpt lat="45.620385" lon="0.192910"><ele>131.6</ele><time>2010-04-02T11:21:02Z</time></trkpt>
<trkpt lat="45.620530" lon="0.192592"><ele>130.4</ele><time>2010-04-02T11:21:07Z</time></trkpt>
<trkpt lat="45.620735" lon="0.192298"><ele>127.7</ele><time>2010-04-02T11:21:12Z</time></trkpt>
<trkpt lat="45.620998" lon="0.192107"><ele>124.1</ele><time>2010-04-02T11:21:17Z</time></trkpt>
<trkpt lat="45.621285" lon="0.191992"><ele>121.3</ele><time>2010-04-02T11:21:22Z</time></trkpt>
<trkpt lat="45.621552" lon="0.191777"><ele>119.7</ele><time>2010-04-02T11:21:27Z</time></trkpt>
<trkpt lat="45.621815" lon="0.191577"><ele>117.8</ele><time>2010-04-02T11:21:32Z</time></trkpt>
<trkpt lat="45.622052" lon="0.191372"><ele>117.7</ele><time>2010-04-02T11:21:37Z</time></trkpt>
<trkpt lat="45.622283" lon="0.191183"><ele>117.8</ele><time>2010-04-02T11:21:42Z</time></trkpt>
<trkpt lat="45.622508" lon="0.190955"><ele>117.1</ele><time>2010-04-02T11:21:47Z</time></trkpt>
<trkpt lat="45.622727" lon="0.190715"><ele>117.8</ele><time>2010-04-02T11:21:52Z</time></trkpt>
<trkpt lat="45.622952" lon="0.190500"><ele>118.4</ele><time>2010-04-02T11:21:57Z</time></trkpt>
<trkpt lat="45.623200" lon="0.190280"><ele>118.1</ele><time>2010-04-02T11:22:02Z</time></trkpt>
<trkpt lat="45.623398" lon="0.190020"><ele>118.1</ele><time>2010-04-02T11:22:07Z</time></trkpt>
<trkpt lat="45.623547" lon="0.189663"><ele>117.8</ele><time>2010-04-02T11:22:12Z</time></trkpt>
<trkpt lat="45.623597" lon="0.189238"><ele>117.5</ele><time>2010-04-02T11:22:17Z</time></trkpt>
<trkpt lat="45.623668" lon="0.188805"><ele>115.6</ele><time>2010-04-02T11:22:22Z</time></trkpt>
<trkpt lat="45.623795" lon="0.188362"><ele>112.2</ele><time>2010-04-02T11:22:27Z</time></trkpt>
<trkpt lat="45.623902" lon="0.187953"><ele>108.6</ele><time>2010-04-02T11:22:32Z</time></trkpt>
<trkpt lat="45.623982" lon="0.187675"><ele>105.6</ele><time>2010-04-02T11:22:37Z</time></trkpt>
<trkpt lat="45.624027" lon="0.187603"><ele>103.2</ele><time>2010-04-02T11:22:42Z</time></trkpt>
<trkpt lat="45.624183" lon="0.187785"><ele>97.4</ele><time>2010-04-02T11:22:47Z</time></trkpt>
<trkpt lat="45.624508" lon="0.187872"><ele>96.3</ele><time>2010-04-02T11:22:52Z</time></trkpt>
<trkpt lat="45.624772" lon="0.187753"><ele>95.7</ele><time>2010-04-02T11:22:57Z</time></trkpt>
<trkpt lat="45.625062" lon="0.187575"><ele>93.4</ele><time>2010-04-02T11:23:02Z</time></trkpt>
<trkpt lat="45.625367" lon="0.187382"><ele>93.7</ele><time>2010-04-02T11:23:07Z</time></trkpt>
<trkpt lat="45.625587" lon="0.187233"><ele>92.8</ele><time>2010-04-02T11:23:12Z</time></trkpt>
<trkpt lat="45.625797" lon="0.187133"><ele>92.9</ele><time>2010-04-02T11:23:17Z</time></trkpt>
<trkpt lat="45.626003" lon="0.186888"><ele>91</ele><time>2010-04-02T11:23:22Z</time></trkpt>
<trkpt lat="45.626290" lon="0.186612"><ele>88.8</ele><time>2010-04-02T11:23:27Z</time></trkpt>
<trkpt lat="45.626595" lon="0.186400"><ele>87.2</ele><time>2010-04-02T11:23:32Z</time></trkpt>
<trkpt lat="45.626870" lon="0.186155"><ele>86.2</ele><time>2010-04-02T11:23:37Z</time></trkpt>
<trkpt lat="45.627117" lon="0.185878"><ele>84.8</ele><time>2010-04-02T11:23:42Z</time></trkpt>
<trkpt lat="45.627427" lon="0.185605"><ele>82.6</ele><time>2010-04-02T11:23:47Z</time></trkpt>
<trkpt lat="45.627800" lon="0.185312"><ele>78</ele><time>2010-04-02T11:23:52Z</time></trkpt>
<trkpt lat="45.628185" lon="0.185117"><ele>75.4</ele><time>2010-04-02T11:23:57Z</time></trkpt>
<trkpt lat="45.628517" lon="0.184973"><ele>74.1</ele><time>2010-04-02T11:24:02Z</time></trkpt>
<trkpt lat="45.628857" lon="0.184968"><ele>71.5</ele><time>2010-04-02T11:24:07Z</time></trkpt>
<trkpt lat="45.629230" lon="0.184995"><ele>70.3</ele><time>2010-04-02T11:24:12Z</time></trkpt>
<trkpt lat="45.629532" lon="0.185017"><ele>69.7</ele><time>2010-04-02T11:24:17Z</time></trkpt>
<trkpt lat="45.629745" lon="0.185187"><ele>68.2</ele><time>2010-04-02T11:24:22Z</time></trkpt>
<trkpt lat="45.629958" lon="0.185445"><ele>67.7</ele><time>2010-04-02T11:24:27Z</time></trkpt>
<trkpt lat="45.630188" lon="0.185748"><ele>66.5</ele><time>2010-04-02T11:24:32Z</time></trkpt>
<trkpt lat="45.630428" lon="0.186037"><ele>66</ele><time>2010-04-02T11:24:37Z</time></trkpt>
<trkpt lat="45.630645" lon="0.186358"><ele>65.5</ele><time>2010-04-02T11:24:42Z</time></trkpt>
<trkpt lat="45.630837" lon="0.186715"><ele>65.4</ele><time>2010-04-02T11:24:47Z</time></trkpt>
<trkpt lat="45.631015" lon="0.187063"><ele>65.6</ele><time>2010-04-02T11:24:52Z</time></trkpt>
<trkpt lat="45.631198" lon="0.187355"><ele>66</ele><time>2010-04-02T11:24:57Z</time></trkpt>
<trkpt lat="45.631443" lon="0.187432"><ele>66.8</ele><time>2010-04-02T11:25:02Z</time></trkpt>
<trkpt lat="45.631668" lon="0.187248"><ele>67.7</ele><time>2010-04-02T11:25:07Z</time></trkpt>
<trkpt lat="45.631882" lon="0.187007"><ele>68.6</ele><time>2010-04-02T11:25:12Z</time></trkpt>
<trkpt lat="45.632107" lon="0.186773"><ele>69.5</ele><time>2010-04-02T11:25:17Z</time></trkpt>
<trkpt lat="45.632325" lon="0.186508"><ele>70.7</ele><time>2010-04-02T11:25:22Z</time></trkpt>
<trkpt lat="45.632553" lon="0.186277"><ele>71.9</ele><time>2010-04-02T11:25:27Z</time></trkpt>
<trkpt lat="45.632770" lon="0.186017"><ele>72.1</ele><time>2010-04-02T11:25:32Z</time></trkpt>
<trkpt lat="45.633003" lon="0.185752"><ele>71.8</ele><time>2010-04-02T11:25:37Z</time></trkpt>
<trkpt lat="45.633205" lon="0.185457"><ele>71.8</ele><time>2010-04-02T11:25:42Z</time></trkpt>
<trkpt lat="45.633397" lon="0.185163"><ele>71.8</ele><time>2010-04-02T11:25:47Z</time></trkpt>
<trkpt lat="45.633607" lon="0.184833"><ele>71.8</ele><time>2010-04-02T11:25:52Z</time></trkpt>
<trkpt lat="45.633812" lon="0.184462"><ele>71</ele><time>2010-04-02T11:25:57Z</time></trkpt>
<trkpt lat="45.634030" lon="0.184097"><ele>70.5</ele><time>2010-04-02T11:26:02Z</time></trkpt>
<trkpt lat="45.634220" lon="0.183743"><ele>70.4</ele><time>2010-04-02T11:26:07Z</time></trkpt>
<trkpt lat="45.634400" lon="0.183430"><ele>69.6</ele><time>2010-04-02T11:26:12Z</time></trkpt>
<trkpt lat="45.634678" lon="0.183247"><ele>68</ele><time>2010-04-02T11:26:17Z</time></trkpt>
<trkpt lat="45.635002" lon="0.183090"><ele>66.5</ele><time>2010-04-02T11:26:22Z</time></trkpt>
<trkpt lat="45.635232" lon="0.182755"><ele>66.1</ele><time>2010-04-02T11:26:27Z</time></trkpt>
<trkpt lat="45.635250" lon="0.182308"><ele>66</ele><time>2010-04-02T11:26:32Z</time></trkpt>
<trkpt lat="45.635152" lon="0.181868"><ele>66.5</ele><time>2010-04-02T11:26:37Z</time></trkpt>
<trkpt lat="45.635052" lon="0.181470"><ele>67</ele><time>2010-04-02T11:26:42Z</time></trkpt>
<trkpt lat="45.634960" lon="0.181098"><ele>67.3</ele><time>2010-04-02T11:26:47Z</time></trkpt>
<trkpt lat="45.634853" lon="0.180712"><ele>67.3</ele><time>2010-04-02T11:26:52Z</time></trkpt>
<trkpt lat="45.634755" lon="0.180322"><ele>67.1</ele><time>2010-04-02T11:26:57Z</time></trkpt>
<trkpt lat="45.634670" lon="0.179938"><ele>66.9</ele><time>2010-04-02T11:27:02Z</time></trkpt>
<trkpt lat="45.634593" lon="0.179537"><ele>66.5</ele><time>2010-04-02T11:27:07Z</time></trkpt>
<trkpt lat="45.634567" lon="0.179100"><ele>66.2</ele><time>2010-04-02T11:27:12Z</time></trkpt>
<trkpt lat="45.634590" lon="0.178665"><ele>65.6</ele><time>2010-04-02T11:27:17Z</time></trkpt>
<trkpt lat="45.634685" lon="0.178318"><ele>67.7</ele><time>2010-04-02T11:27:22Z</time></trkpt>
<trkpt lat="45.634640" lon="0.178325"><ele>69.1</ele><time>2010-04-02T11:27:27Z</time></trkpt>
<trkpt lat="45.634578" lon="0.178392"><ele>69.7</ele><time>2010-04-02T11:27:32Z</time></trkpt>
<trkpt lat="45.634492" lon="0.178442"><ele>66.6</ele><time>2010-04-02T11:27:37Z</time></trkpt>
<trkpt lat="45.634412" lon="0.178422"><ele>63.3</ele><time>2010-04-02T11:27:42Z</time></trkpt>
<trkpt lat="45.634362" lon="0.178410"><ele>62</ele><time>2010-04-02T11:27:47Z</time></trkpt>
<trkpt lat="45.634365" lon="0.178403"><ele>61.8</ele><time>2010-04-02T11:27:52Z</time></trkpt>
<trkpt lat="45.634388" lon="0.178390"><ele>62.2</ele><time>2010-04-02T11:27:57Z</time></trkpt>
<trkpt lat="45.634380" lon="0.178402"><ele>61.7</ele><time>2010-04-02T11:28:02Z</time></trkpt>
<trkpt lat="45.634377" lon="0.178413"><ele>61.7</ele><time>2010-04-02T11:28:07Z</time></trkpt>
<trkpt lat="45.634388" lon="0.178407"><ele>61.8</ele><time>2010-04-02T11:28:12Z</time></trkpt>
<trkpt lat="45.634388" lon="0.178402"><ele>62</ele><time>2010-04-02T11:28:17Z</time></trkpt>
<trkpt lat="45.634388" lon="0.178392"><ele>63</ele><time>2010-04-02T11:28:22Z</time></trkpt>
<trkpt lat="45.634388" lon="0.178390"><ele>63.2</ele><time>2010-04-02T11:28:27Z</time></trkpt>
<trkpt lat="45.634388" lon="0.178407"><ele>63</ele><time>2010-04-02T11:28:32Z</time></trkpt>
<trkpt lat="45.634383" lon="0.178418"><ele>61.5</ele><time>2010-04-02T11:28:37Z</time></trkpt>
<trkpt lat="45.634383" lon="0.178423"><ele>60.7</ele><time>2010-04-02T11:28:42Z</time></trkpt>
<trkpt lat="45.634388" lon="0.178425"><ele>60.5</ele><time>2010-04-02T11:28:47Z</time></trkpt>
<trkpt lat="45.634388" lon="0.178417"><ele>60.4</ele><time>2010-04-02T11:28:52Z</time></trkpt>
<trkpt lat="45.634388" lon="0.178410"><ele>60</ele><time>2010-04-02T11:28:57Z</time></trkpt>
<trkpt lat="45.634395" lon="0.178403"><ele>59.7</ele><time>2010-04-02T11:29:02Z</time></trkpt>
<trkpt lat="45.634400" lon="0.178402"><ele>59.6</ele><time>2010-04-02T11:29:07Z</time></trkpt>
<trkpt lat="45.634403" lon="0.178403"><ele>59.9</ele><time>2010-04-02T11:29:12Z</time></trkpt>
<trkpt lat="45.634400" lon="0.178405"><ele>60.2</ele><time>2010-04-02T11:29:17Z</time></trkpt>
<trkpt lat="45.634403" lon="0.178405"><ele>60.5</ele><time>2010-04-02T11:29:22Z</time></trkpt>
<trkpt lat="45.634403" lon="0.178405"><ele>60.7</ele><time>2010-04-02T11:29:27Z</time></trkpt>
<trkpt lat="45.634403" lon="0.178405"><ele>60.7</ele><time>2010-04-02T11:29:32Z</time></trkpt>
<trkpt lat="45.634400" lon="0.178405"><ele>60.8</ele><time>2010-04-02T11:29:37Z</time></trkpt>
<trkpt lat="45.634400" lon="0.178405"><ele>60.9</ele><time>2010-04-02T11:29:42Z</time></trkpt>
<trkpt lat="45.634400" lon="0.178405"><ele>61</ele><time>2010-04-02T11:29:47Z</time></trkpt>
<trkpt lat="45.634403" lon="0.178405"><ele>61.1</ele><time>2010-04-02T11:29:52Z</time></trkpt>
<trkpt lat="45.634403" lon="0.178405"><ele>61.2</ele><time>2010-04-02T11:29:57Z</time></trkpt>
<trkpt lat="45.634403" lon="0.178407"><ele>61.3</ele><time>2010-04-02T11:30:02Z</time></trkpt>
<trkpt lat="45.634400" lon="0.178407"><ele>61.4</ele><time>2010-04-02T11:30:07Z</time></trkpt>
<trkpt lat="45.634400" lon="0.178405"><ele>61.3</ele><time>2010-04-02T11:30:12Z</time></trkpt>
<trkpt lat="45.634400" lon="0.178405"><ele>61.4</ele><time>2010-04-02T11:30:17Z</time></trkpt>
<trkpt lat="45.634400" lon="0.178405"><ele>61.4</ele><time>2010-04-02T11:30:22Z</time></trkpt>
<trkpt lat="45.634400" lon="0.178405"><ele>61.6</ele><time>2010-04-02T11:30:27Z</time></trkpt>
<trkpt lat="45.634400" lon="0.178407"><ele>61.7</ele><time>2010-04-02T11:30:32Z</time></trkpt>
<trkpt lat="45.634400" lon="0.178407"><ele>61.7</ele><time>2010-04-02T11:30:37Z</time></trkpt>
<trkpt lat="45.634400" lon="0.178407"><ele>61.7</ele><time>2010-04-02T11:30:42Z</time></trkpt>
<trkpt lat="45.634395" lon="0.178407"><ele>61.6</ele><time>2010-04-02T11:30:47Z</time></trkpt>
<trkpt lat="45.634395" lon="0.178403"><ele>61.3</ele><time>2010-04-02T11:30:52Z</time></trkpt>
<trkpt lat="45.634395" lon="0.178402"><ele>61</ele><time>2010-04-02T11:30:57Z</time></trkpt>
<trkpt lat="45.634395" lon="0.178402"><ele>61</ele><time>2010-04-02T11:31:02Z</time></trkpt>
<trkpt lat="45.634400" lon="0.178400"><ele>61</ele><time>2010-04-02T11:31:07Z</time></trkpt>
<trkpt lat="45.634395" lon="0.178400"><ele>60.8</ele><time>2010-04-02T11:31:12Z</time></trkpt>
<trkpt lat="45.634395" lon="0.178400"><ele>60.8</ele><time>2010-04-02T11:31:17Z</time></trkpt>
<trkpt lat="45.634400" lon="0.178400"><ele>61</ele><time>2010-04-02T11:31:22Z</time></trkpt>
<trkpt lat="45.634400" lon="0.178398"><ele>60.7</ele><time>2010-04-02T11:31:27Z</time></trkpt>
<trkpt lat="45.634395" lon="0.178398"><ele>60.5</ele><time>2010-04-02T11:31:32Z</time></trkpt>
<trkpt lat="45.634400" lon="0.178398"><ele>60.5</ele><time>2010-04-02T11:31:37Z</time></trkpt>
<trkpt lat="45.634400" lon="0.178400"><ele>60.4</ele><time>2010-04-02T11:31:42Z</time></trkpt>
<trkpt lat="45.634400" lon="0.178407"><ele>60.9</ele><time>2010-04-02T11:31:47Z</time></trkpt>
<trkpt lat="45.634400" lon="0.178410"><ele>61.1</ele><time>2010-04-02T11:31:52Z</time></trkpt>
<trkpt lat="45.634400" lon="0.178408"><ele>60.8</ele><time>2010-04-02T11:31:57Z</time></trkpt>
<trkpt lat="45.634403" lon="0.178408"><ele>61</ele><time>2010-04-02T11:32:02Z</time></trkpt>
<trkpt lat="45.634403" lon="0.178413"><ele>61.5</ele><time>2010-04-02T11:32:07Z</time></trkpt>
<trkpt lat="45.634403" lon="0.178420"><ele>62</ele><time>2010-04-02T11:32:12Z</time></trkpt>
<trkpt lat="45.634400" lon="0.178427"><ele>62.6</ele><time>2010-04-02T11:32:17Z</time></trkpt>
<trkpt lat="45.634400" lon="0.178432"><ele>62.9</ele><time>2010-04-02T11:32:22Z</time></trkpt>
<trkpt lat="45.634400" lon="0.178432"><ele>62.4</ele><time>2010-04-02T11:32:27Z</time></trkpt>
<trkpt lat="45.634400" lon="0.178428"><ele>61.8</ele><time>2010-04-02T11:32:32Z</time></trkpt>
<trkpt lat="45.634400" lon="0.178427"><ele>61.3</ele><time>2010-04-02T11:32:37Z</time></trkpt>
<trkpt lat="45.634400" lon="0.178425"><ele>60.9</ele><time>2010-04-02T11:32:42Z</time></trkpt>
<trkpt lat="45.634400" lon="0.178423"><ele>60.5</ele><time>2010-04-02T11:32:47Z</time></trkpt>
<trkpt lat="45.634400" lon="0.178420"><ele>60.2</ele><time>2010-04-02T11:32:52Z</time></trkpt>
<trkpt lat="45.634400" lon="0.178418"><ele>59.9</ele><time>2010-04-02T11:32:57Z</time></trkpt>
<trkpt lat="45.634400" lon="0.178417"><ele>59.8</ele><time>2010-04-02T11:33:02Z</time></trkpt>
<trkpt lat="45.634400" lon="0.178415"><ele>59.6</ele><time>2010-04-02T11:33:07Z</time></trkpt>
<trkpt lat="45.634412" lon="0.178393"><ele>58.6</ele><time>2010-04-02T11:33:12Z</time></trkpt>
<trkpt lat="45.634415" lon="0.178387"><ele>58.1</ele><time>2010-04-02T11:33:17Z</time></trkpt>
<trkpt lat="45.634415" lon="0.178383"><ele>57.9</ele><time>2010-04-02T11:33:22Z</time></trkpt>
<trkpt lat="45.634418" lon="0.178380"><ele>57.6</ele><time>2010-04-02T11:33:27Z</time></trkpt>
<trkpt lat="45.634418" lon="0.178378"><ele>57.4</ele><time>2010-04-02T11:33:32Z</time></trkpt>
<trkpt lat="45.634418" lon="0.178377"><ele>57.3</ele><time>2010-04-02T11:33:37Z</time></trkpt>
<trkpt lat="45.634418" lon="0.178377"><ele>57.3</ele><time>2010-04-02T11:33:42Z</time></trkpt>
<trkpt lat="45.634422" lon="0.178377"><ele>57.3</ele><time>2010-04-02T11:33:47Z</time></trkpt>
<trkpt lat="45.634422" lon="0.178378"><ele>57.2</ele><time>2010-04-02T11:33:52Z</time></trkpt>
<trkpt lat="45.634422" lon="0.178378"><ele>57.3</ele><time>2010-04-02T11:33:57Z</time></trkpt>
<trkpt lat="45.634418" lon="0.178380"><ele>57.3</ele><time>2010-04-02T11:34:02Z</time></trkpt>
<trkpt lat="45.634418" lon="0.178380"><ele>57.3</ele><time>2010-04-02T11:34:07Z</time></trkpt>
<trkpt lat="45.634418" lon="0.178380"><ele>57.1</ele><time>2010-04-02T11:34:12Z</time></trkpt>
<trkpt lat="45.634418" lon="0.178380"><ele>56.9</ele><time>2010-04-02T11:34:17Z</time></trkpt>
<trkpt lat="45.634415" lon="0.178378"><ele>56.8</ele><time>2010-04-02T11:34:22Z</time></trkpt>
<trkpt lat="45.634415" lon="0.178380"><ele>56.8</ele><time>2010-04-02T11:34:27Z</time></trkpt>
<trkpt lat="45.634415" lon="0.178380"><ele>56.8</ele><time>2010-04-02T11:34:32Z</time></trkpt>
<trkpt lat="45.634415" lon="0.178382"><ele>57</ele><time>2010-04-02T11:34:37Z</time></trkpt>
<trkpt lat="45.634415" lon="0.178383"><ele>57.1</ele><time>2010-04-02T11:34:42Z</time></trkpt>
<trkpt lat="45.634412" lon="0.178385"><ele>57.1</ele><time>2010-04-02T11:34:47Z</time></trkpt>
<trkpt lat="45.634412" lon="0.178387"><ele>57.2</ele><time>2010-04-02T11:34:52Z</time></trkpt>
<trkpt lat="45.634412" lon="0.178387"><ele>57.2</ele><time>2010-04-02T11:34:57Z</time></trkpt>
<trkpt lat="45.634412" lon="0.178388"><ele>57.2</ele><time>2010-04-02T11:35:02Z</time></trkpt>
<trkpt lat="45.634412" lon="0.178390"><ele>57.3</ele><time>2010-04-02T11:35:07Z</time></trkpt>
<trkpt lat="45.634415" lon="0.178390"><ele>57.4</ele><time>2010-04-02T11:35:12Z</time></trkpt>
<trkpt lat="45.634415" lon="0.178392"><ele>57.5</ele><time>2010-04-02T11:35:17Z</time></trkpt>
<trkpt lat="45.634415" lon="0.178395"><ele>57.7</ele><time>2010-04-02T11:35:22Z</time></trkpt>
<trkpt lat="45.634415" lon="0.178397"><ele>57.9</ele><time>2010-04-02T11:35:27Z</time></trkpt>
<trkpt lat="45.634418" lon="0.178398"><ele>58.2</ele><time>2010-04-02T11:35:32Z</time></trkpt>
<trkpt lat="45.634418" lon="0.178398"><ele>58.5</ele><time>2010-04-02T11:35:37Z</time></trkpt>
<trkpt lat="45.634422" lon="0.178398"><ele>58.8</ele><time>2010-04-02T11:35:42Z</time></trkpt>
<trkpt lat="45.634418" lon="0.178398"><ele>58.8</ele><time>2010-04-02T11:35:47Z</time></trkpt>
<trkpt lat="45.634418" lon="0.178398"><ele>58.9</ele><time>2010-04-02T11:35:52Z</time></trkpt>
<trkpt lat="45.634415" lon="0.178398"><ele>59</ele><time>2010-04-02T11:35:57Z</time></trkpt>
<trkpt lat="45.634415" lon="0.178398"><ele>59.1</ele><time>2010-04-02T11:36:02Z</time></trkpt>
<trkpt lat="45.634412" lon="0.178397"><ele>59.1</ele><time>2010-04-02T11:36:07Z</time></trkpt>
<trkpt lat="45.634412" lon="0.178397"><ele>59.5</ele><time>2010-04-02T11:36:12Z</time></trkpt>
<trkpt lat="45.634418" lon="0.178398"><ele>61.2</ele><time>2010-04-02T11:36:17Z</time></trkpt>
<trkpt lat="45.634422" lon="0.178400"><ele>62.7</ele><time>2010-04-02T11:36:22Z</time></trkpt>
<trkpt lat="45.634430" lon="0.178402"><ele>63.7</ele><time>2010-04-02T11:36:27Z</time></trkpt>
<trkpt lat="45.634433" lon="0.178402"><ele>64.6</ele><time>2010-04-02T11:36:32Z</time></trkpt>
<trkpt lat="45.634438" lon="0.178402"><ele>65.2</ele><time>2010-04-02T11:36:37Z</time></trkpt>
<trkpt lat="45.634442" lon="0.178402"><ele>65.7</ele><time>2010-04-02T11:36:42Z</time></trkpt>
<trkpt lat="45.634442" lon="0.178402"><ele>65.8</ele><time>2010-04-02T11:36:47Z</time></trkpt>
<trkpt lat="45.634438" lon="0.178400"><ele>65.4</ele><time>2010-04-02T11:36:52Z</time></trkpt>
<trkpt lat="45.634430" lon="0.178398"><ele>64.9</ele><time>2010-04-02T11:36:57Z</time></trkpt>
<trkpt lat="45.634430" lon="0.178397"><ele>64.5</ele><time>2010-04-02T11:37:02Z</time></trkpt>
<trkpt lat="45.634433" lon="0.178395"><ele>64.2</ele><time>2010-04-02T11:37:07Z</time></trkpt>
<trkpt lat="45.634433" lon="0.178393"><ele>63.9</ele><time>2010-04-02T11:37:12Z</time></trkpt>
<trkpt lat="45.634433" lon="0.178393"><ele>63.9</ele><time>2010-04-02T11:37:17Z</time></trkpt>
<trkpt lat="45.634433" lon="0.178393"><ele>63.9</ele><time>2010-04-02T11:37:22Z</time></trkpt>
<trkpt lat="45.634430" lon="0.178392"><ele>63.5</ele><time>2010-04-02T11:37:27Z</time></trkpt>
<trkpt lat="45.634430" lon="0.178392"><ele>63.6</ele><time>2010-04-02T11:37:32Z</time></trkpt>
<trkpt lat="45.634433" lon="0.178392"><ele>63.7</ele><time>2010-04-02T11:37:37Z</time></trkpt>
<trkpt lat="45.634430" lon="0.178390"><ele>63.4</ele><time>2010-04-02T11:37:42Z</time></trkpt>
<trkpt lat="45.634430" lon="0.178387"><ele>62.6</ele><time>2010-04-02T11:37:47Z</time></trkpt>
<trkpt lat="45.634430" lon="0.178383"><ele>61.9</ele><time>2010-04-02T11:37:52Z</time></trkpt>
<trkpt lat="45.634430" lon="0.178382"><ele>61.5</ele><time>2010-04-02T11:37:57Z</time></trkpt>
<trkpt lat="45.634427" lon="0.178380"><ele>61.2</ele><time>2010-04-02T11:38:02Z</time></trkpt>
<trkpt lat="45.634427" lon="0.178377"><ele>60.8</ele><time>2010-04-02T11:38:07Z</time></trkpt>
<trkpt lat="45.634427" lon="0.178375"><ele>60.4</ele><time>2010-04-02T11:38:12Z</time></trkpt>
<trkpt lat="45.634427" lon="0.178375"><ele>60.1</ele><time>2010-04-02T11:38:17Z</time></trkpt>
<trkpt lat="45.634427" lon="0.178373"><ele>59.8</ele><time>2010-04-02T11:38:22Z</time></trkpt>
<trkpt lat="45.634422" lon="0.178372"><ele>59.6</ele><time>2010-04-02T11:38:27Z</time></trkpt>
<trkpt lat="45.634422" lon="0.178372"><ele>59.3</ele><time>2010-04-02T11:38:32Z</time></trkpt>
<trkpt lat="45.634422" lon="0.178370"><ele>59</ele><time>2010-04-02T11:38:37Z</time></trkpt>
<trkpt lat="45.634422" lon="0.178370"><ele>59</ele><time>2010-04-02T11:38:42Z</time></trkpt>
<trkpt lat="45.634422" lon="0.178368"><ele>59</ele><time>2010-04-02T11:38:47Z</time></trkpt>
<trkpt lat="45.634422" lon="0.178367"><ele>59</ele><time>2010-04-02T11:38:52Z</time></trkpt>
<trkpt lat="45.634422" lon="0.178367"><ele>58.9</ele><time>2010-04-02T11:38:57Z</time></trkpt>
<trkpt lat="45.634422" lon="0.178365"><ele>58.9</ele><time>2010-04-02T11:39:02Z</time></trkpt>
<trkpt lat="45.634422" lon="0.178365"><ele>59</ele><time>2010-04-02T11:39:07Z</time></trkpt>
<trkpt lat="45.634427" lon="0.178365"><ele>59</ele><time>2010-04-02T11:39:12Z</time></trkpt>
<trkpt lat="45.634427" lon="0.178367"><ele>59.1</ele><time>2010-04-02T11:39:17Z</time></trkpt>
<trkpt lat="45.634422" lon="0.178367"><ele>59.1</ele><time>2010-04-02T11:39:22Z</time></trkpt>
<trkpt lat="45.634427" lon="0.178368"><ele>59.3</ele><time>2010-04-02T11:39:27Z</time></trkpt>
<trkpt lat="45.634427" lon="0.178370"><ele>59.5</ele><time>2010-04-02T11:39:32Z</time></trkpt>
<trkpt lat="45.634427" lon="0.178370"><ele>59.6</ele><time>2010-04-02T11:39:37Z</time></trkpt>
<trkpt lat="45.634427" lon="0.178372"><ele>59.7</ele><time>2010-04-02T11:39:42Z</time></trkpt>
<trkpt lat="45.634427" lon="0.178373"><ele>59.6</ele><time>2010-04-02T11:39:47Z</time></trkpt>
<trkpt lat="45.634430" lon="0.178373"><ele>59.5</ele><time>2010-04-02T11:39:52Z</time></trkpt>
<trkpt lat="45.634427" lon="0.178375"><ele>59.5</ele><time>2010-04-02T11:39:57Z</time></trkpt>
<trkpt lat="45.634427" lon="0.178375"><ele>59.6</ele><time>2010-04-02T11:40:02Z</time></trkpt>
<trkpt lat="45.634427" lon="0.178377"><ele>59.6</ele><time>2010-04-02T11:40:07Z</time></trkpt>
<trkpt lat="45.634427" lon="0.178378"><ele>59.7</ele><time>2010-04-02T11:40:12Z</time></trkpt>
<trkpt lat="45.634427" lon="0.178380"><ele>59.7</ele><time>2010-04-02T11:40:17Z</time></trkpt>
<trkpt lat="45.634427" lon="0.178382"><ele>59.8</ele><time>2010-04-02T11:40:22Z</time></trkpt>
<trkpt lat="45.634427" lon="0.178382"><ele>59.8</ele><time>2010-04-02T11:40:27Z</time></trkpt>
<trkpt lat="45.634427" lon="0.178382"><ele>59.7</ele><time>2010-04-02T11:40:32Z</time></trkpt>
<trkpt lat="45.634430" lon="0.178382"><ele>59.4</ele><time>2010-04-02T11:40:37Z</time></trkpt>
<trkpt lat="45.634430" lon="0.178382"><ele>59.2</ele><time>2010-04-02T11:40:42Z</time></trkpt>
<trkpt lat="45.634430" lon="0.178382"><ele>58.8</ele><time>2010-04-02T11:40:47Z</time></trkpt>
<trkpt lat="45.634430" lon="0.178380"><ele>58.3</ele><time>2010-04-02T11:40:52Z</time></trkpt>
<trkpt lat="45.634430" lon="0.178380"><ele>57.8</ele><time>2010-04-02T11:40:57Z</time></trkpt>
<trkpt lat="45.634433" lon="0.178380"><ele>57.5</ele><time>2010-04-02T11:41:02Z</time></trkpt>
<trkpt lat="45.634433" lon="0.178380"><ele>57.4</ele><time>2010-04-02T11:41:07Z</time></trkpt>
<trkpt lat="45.634430" lon="0.178382"><ele>57.2</ele><time>2010-04-02T11:41:12Z</time></trkpt>
<trkpt lat="45.634430" lon="0.178382"><ele>57.2</ele><time>2010-04-02T11:41:17Z</time></trkpt>
<trkpt lat="45.634430" lon="0.178383"><ele>57.1</ele><time>2010-04-02T11:41:22Z</time></trkpt>
<trkpt lat="45.634430" lon="0.178383"><ele>57.1</ele><time>2010-04-02T11:41:27Z</time></trkpt>
<trkpt lat="45.634430" lon="0.178383"><ele>56.9</ele><time>2010-04-02T11:41:32Z</time></trkpt>
<trkpt lat="45.634427" lon="0.178383"><ele>56.5</ele><time>2010-04-02T11:41:37Z</time></trkpt>
<trkpt lat="45.634427" lon="0.178382"><ele>56.1</ele><time>2010-04-02T11:41:42Z</time></trkpt>
<trkpt lat="45.634422" lon="0.178382"><ele>55.7</ele><time>2010-04-02T11:41:47Z</time></trkpt>
<trkpt lat="45.634422" lon="0.178380"><ele>55.3</ele><time>2010-04-02T11:41:52Z</time></trkpt>
<trkpt lat="45.634422" lon="0.178378"><ele>55</ele><time>2010-04-02T11:41:57Z</time></trkpt>
<trkpt lat="45.634422" lon="0.178378"><ele>54.7</ele><time>2010-04-02T11:42:02Z</time></trkpt>
<trkpt lat="45.634422" lon="0.178378"><ele>54.4</ele><time>2010-04-02T11:42:07Z</time></trkpt>
<trkpt lat="45.634422" lon="0.178378"><ele>54.1</ele><time>2010-04-02T11:42:12Z</time></trkpt>
<trkpt lat="45.634418" lon="0.178377"><ele>53.9</ele><time>2010-04-02T11:42:17Z</time></trkpt>
<trkpt lat="45.634418" lon="0.178377"><ele>53.7</ele><time>2010-04-02T11:42:22Z</time></trkpt>
<trkpt lat="45.634418" lon="0.178377"><ele>53.5</ele><time>2010-04-02T11:42:27Z</time></trkpt>
<trkpt lat="45.634415" lon="0.178375"><ele>53.4</ele><time>2010-04-02T11:42:32Z</time></trkpt>
<trkpt lat="45.634415" lon="0.178375"><ele>53.2</ele><time>2010-04-02T11:42:37Z</time></trkpt>
<trkpt lat="45.634415" lon="0.178375"><ele>53.1</ele><time>2010-04-02T11:42:42Z</time></trkpt>
<trkpt lat="45.634415" lon="0.178375"><ele>53.1</ele><time>2010-04-02T11:42:47Z</time></trkpt>
<trkpt lat="45.634415" lon="0.178373"><ele>53.1</ele><time>2010-04-02T11:42:52Z</time></trkpt>
<trkpt lat="45.634415" lon="0.178373"><ele>53.2</ele><time>2010-04-02T11:42:57Z</time></trkpt>
<trkpt lat="45.634415" lon="0.178373"><ele>53.4</ele><time>2010-04-02T11:43:02Z</time></trkpt>
<trkpt lat="45.634418" lon="0.178373"><ele>53.7</ele><time>2010-04-02T11:43:07Z</time></trkpt>
<trkpt lat="45.634418" lon="0.178373"><ele>53.9</ele><time>2010-04-02T11:43:12Z</time></trkpt>
<trkpt lat="45.634418" lon="0.178373"><ele>54.1</ele><time>2010-04-02T11:43:17Z</time></trkpt>
<trkpt lat="45.634418" lon="0.178373"><ele>54.2</ele><time>2010-04-02T11:43:22Z</time></trkpt>
<trkpt lat="45.634415" lon="0.178373"><ele>54.2</ele><time>2010-04-02T11:43:27Z</time></trkpt>
<trkpt lat="45.634415" lon="0.178373"><ele>54.4</ele><time>2010-04-02T11:43:32Z</time></trkpt>
<trkpt lat="45.634418" lon="0.178373"><ele>54.4</ele><time>2010-04-02T11:43:37Z</time></trkpt>
<trkpt lat="45.634412" lon="0.178378"><ele>54.9</ele><time>2010-04-02T11:43:42Z</time></trkpt>
<trkpt lat="45.634412" lon="0.178380"><ele>56.4</ele><time>2010-04-02T11:43:47Z</time></trkpt>
<trkpt lat="45.634407" lon="0.178382"><ele>58.4</ele><time>2010-04-02T11:43:52Z</time></trkpt>
<trkpt lat="45.634415" lon="0.178388"><ele>58.8</ele><time>2010-04-02T11:43:57Z</time></trkpt>
<trkpt lat="45.634415" lon="0.178393"><ele>59</ele><time>2010-04-02T11:44:02Z</time></trkpt>
<trkpt lat="45.634407" lon="0.178395"><ele>59.9</ele><time>2010-04-02T11:44:07Z</time></trkpt>
<trkpt lat="45.634407" lon="0.178390"><ele>60.8</ele><time>2010-04-02T11:44:12Z</time></trkpt>
<trkpt lat="45.634407" lon="0.178388"><ele>61.4</ele><time>2010-04-02T11:44:17Z</time></trkpt>
<trkpt lat="45.634407" lon="0.178392"><ele>62.3</ele><time>2010-04-02T11:44:22Z</time></trkpt>
<trkpt lat="45.634412" lon="0.178390"><ele>62.3</ele><time>2010-04-02T11:44:27Z</time></trkpt>
<trkpt lat="45.634412" lon="0.178393"><ele>61.5</ele><time>2010-04-02T11:44:32Z</time></trkpt>
<trkpt lat="45.634407" lon="0.178408"><ele>61.7</ele><time>2010-04-02T11:44:37Z</time></trkpt>
<trkpt lat="45.634392" lon="0.178420"><ele>61.1</ele><time>2010-04-02T11:44:42Z</time></trkpt>
<trkpt lat="45.634392" lon="0.178410"><ele>61.3</ele><time>2010-04-02T11:44:47Z</time></trkpt>
<trkpt lat="45.634388" lon="0.178397"><ele>62.2</ele><time>2010-04-02T11:44:52Z</time></trkpt>
<trkpt lat="45.634388" lon="0.178388"><ele>62.9</ele><time>2010-04-02T11:44:57Z</time></trkpt>
<trkpt lat="45.634388" lon="0.178383"><ele>63.2</ele><time>2010-04-02T11:45:02Z</time></trkpt>
<trkpt lat="45.634400" lon="0.178383"><ele>63.2</ele><time>2010-04-02T11:45:07Z</time></trkpt>
<trkpt lat="45.634400" lon="0.178382"><ele>62.9</ele><time>2010-04-02T11:45:12Z</time></trkpt>
<trkpt lat="45.634412" lon="0.178380"><ele>62</ele><time>2010-04-02T11:45:17Z</time></trkpt>
<trkpt lat="45.634412" lon="0.178383"><ele>61</ele><time>2010-04-02T11:45:22Z</time></trkpt>
<trkpt lat="45.634403" lon="0.178382"><ele>59.4</ele><time>2010-04-02T11:45:27Z</time></trkpt>
<trkpt lat="45.634395" lon="0.178382"><ele>58.8</ele><time>2010-04-02T11:45:32Z</time></trkpt>
<trkpt lat="45.634388" lon="0.178383"><ele>56.2</ele><time>2010-04-02T11:45:37Z</time></trkpt>
<trkpt lat="45.634373" lon="0.178400"><ele>56.9</ele><time>2010-04-02T11:45:42Z</time></trkpt>
<trkpt lat="45.634357" lon="0.178407"><ele>57</ele><time>2010-04-02T11:45:47Z</time></trkpt>
<trkpt lat="45.634357" lon="0.178403"><ele>56.5</ele><time>2010-04-02T11:45:52Z</time></trkpt>
<trkpt lat="45.634353" lon="0.178408"><ele>57.1</ele><time>2010-04-02T11:45:57Z</time></trkpt>
<trkpt lat="45.634350" lon="0.178408"><ele>57</ele><time>2010-04-02T11:46:02Z</time></trkpt>
<trkpt lat="45.634353" lon="0.178410"><ele>57</ele><time>2010-04-02T11:46:07Z</time></trkpt>
<trkpt lat="45.634362" lon="0.178422"><ele>57.8</ele><time>2010-04-02T11:46:12Z</time></trkpt>
<trkpt lat="45.634388" lon="0.178448"><ele>59.5</ele><time>2010-04-02T11:46:17Z</time></trkpt>
<trkpt lat="45.634407" lon="0.178470"><ele>61.1</ele><time>2010-04-02T11:46:22Z</time></trkpt>
<trkpt lat="45.634442" lon="0.178482"><ele>62.3</ele><time>2010-04-02T11:46:27Z</time></trkpt>
<trkpt lat="45.634487" lon="0.178492"><ele>63.7</ele><time>2010-04-02T11:46:32Z</time></trkpt>
<trkpt lat="45.634518" lon="0.178477"><ele>65.9</ele><time>2010-04-02T11:46:37Z</time></trkpt>
<trkpt lat="45.634555" lon="0.178433"><ele>68.1</ele><time>2010-04-02T11:46:42Z</time></trkpt>
<trkpt lat="45.634572" lon="0.178462"><ele>68.7</ele><time>2010-04-02T11:46:47Z</time></trkpt>
<trkpt lat="45.634552" lon="0.178547"><ele>68.9</ele><time>2010-04-02T11:46:52Z</time></trkpt>
<trkpt lat="45.634525" lon="0.178627"><ele>68.6</ele><time>2010-04-02T11:46:57Z</time></trkpt>
<trkpt lat="45.634528" lon="0.178628"><ele>67.9</ele><time>2010-04-02T11:47:02Z</time></trkpt>
<trkpt lat="45.634528" lon="0.178627"><ele>67.5</ele><time>2010-04-02T11:47:07Z</time></trkpt>
<trkpt lat="45.634548" lon="0.178647"><ele>68.1</ele><time>2010-04-02T11:47:12Z</time></trkpt>
<trkpt lat="45.634583" lon="0.178580"><ele>68.2</ele><time>2010-04-02T11:47:17Z</time></trkpt>
<trkpt lat="45.634620" lon="0.178477"><ele>68.1</ele><time>2010-04-02T11:47:22Z</time></trkpt>
<trkpt lat="45.634670" lon="0.178368"><ele>67.9</ele><time>2010-04-02T11:47:27Z</time></trkpt>
<trkpt lat="45.634682" lon="0.178347"><ele>67.9</ele><time>2010-04-02T11:47:32Z</time></trkpt>
<trkpt lat="45.634682" lon="0.178345"><ele>68</ele><time>2010-04-02T11:47:37Z</time></trkpt>
<trkpt lat="45.634682" lon="0.178347"><ele>68.1</ele><time>2010-04-02T11:47:42Z</time></trkpt>
<trkpt lat="45.634682" lon="0.178347"><ele>68.3</ele><time>2010-04-02T11:47:47Z</time></trkpt>
<trkpt lat="45.634682" lon="0.178343"><ele>68.6</ele><time>2010-04-02T11:47:52Z</time></trkpt>
<trkpt lat="45.634682" lon="0.178342"><ele>68.8</ele><time>2010-04-02T11:47:57Z</time></trkpt>
<trkpt lat="45.634682" lon="0.178342"><ele>68.9</ele><time>2010-04-02T11:48:02Z</time></trkpt>
<trkpt lat="45.634682" lon="0.178342"><ele>68.9</ele><time>2010-04-02T11:48:07Z</time></trkpt>
<trkpt lat="45.634682" lon="0.178342"><ele>69</ele><time>2010-04-02T11:48:12Z</time></trkpt>
<trkpt lat="45.634685" lon="0.178343"><ele>69.2</ele><time>2010-04-02T11:48:17Z</time></trkpt>
<trkpt lat="45.634700" lon="0.178282"><ele>69.4</ele><time>2010-04-02T11:48:22Z</time></trkpt>
<trkpt lat="45.634782" lon="0.178107"><ele>69.9</ele><time>2010-04-02T11:48:27Z</time></trkpt>
<trkpt lat="45.634918" lon="0.177922"><ele>70.8</ele><time>2010-04-02T11:48:32Z</time></trkpt>
<trkpt lat="45.635082" lon="0.177767"><ele>71.7</ele><time>2010-04-02T11:48:37Z</time></trkpt>
<trkpt lat="45.635242" lon="0.177645"><ele>72.5</ele><time>2010-04-02T11:48:42Z</time></trkpt>
<trkpt lat="45.635413" lon="0.177520"><ele>72.5</ele><time>2010-04-02T11:48:47Z</time></trkpt>
<trkpt lat="45.635620" lon="0.177543"><ele>72.8</ele><time>2010-04-02T11:48:52Z</time></trkpt>
<trkpt lat="45.635795" lon="0.177695"><ele>74.3</ele><time>2010-04-02T11:48:57Z</time></trkpt>
<trkpt lat="45.635952" lon="0.177845"><ele>75.8</ele><time>2010-04-02T11:49:02Z</time></trkpt>
<trkpt lat="45.636097" lon="0.178003"><ele>77.1</ele><time>2010-04-02T11:49:07Z</time></trkpt>
<trkpt lat="45.636218" lon="0.178167"><ele>77.5</ele><time>2010-04-02T11:49:12Z</time></trkpt>
<trkpt lat="45.636333" lon="0.178318"><ele>78.3</ele><time>2010-04-02T11:49:17Z</time></trkpt>
<trkpt lat="45.636443" lon="0.178473"><ele>79.1</ele><time>2010-04-02T11:49:22Z</time></trkpt>
<trkpt lat="45.636543" lon="0.178635"><ele>80.2</ele><time>2010-04-02T11:49:27Z</time></trkpt>
<trkpt lat="45.636608" lon="0.178827"><ele>80.8</ele><time>2010-04-02T11:49:32Z</time></trkpt>
<trkpt lat="45.636627" lon="0.179030"><ele>82.1</ele><time>2010-04-02T11:49:37Z</time></trkpt>
<trkpt lat="45.636615" lon="0.179242"><ele>83.2</ele><time>2010-04-02T11:49:42Z</time></trkpt>
<trkpt lat="45.636612" lon="0.179448"><ele>84.1</ele><time>2010-04-02T11:49:47Z</time></trkpt>
<trkpt lat="45.636615" lon="0.179652"><ele>85</ele><time>2010-04-02T11:49:52Z</time></trkpt>
<trkpt lat="45.636627" lon="0.179862"><ele>85.9</ele><time>2010-04-02T11:49:57Z</time></trkpt>
<trkpt lat="45.636642" lon="0.180063"><ele>87</ele><time>2010-04-02T11:50:02Z</time></trkpt>
<trkpt lat="45.636662" lon="0.180270"><ele>88.1</ele><time>2010-04-02T11:50:07Z</time></trkpt>
<trkpt lat="45.636680" lon="0.180475"><ele>89.1</ele><time>2010-04-02T11:50:12Z</time></trkpt>
<trkpt lat="45.636697" lon="0.180658"><ele>90</ele><time>2010-04-02T11:50:17Z</time></trkpt>
<trkpt lat="45.636757" lon="0.180755"><ele>90.2</ele><time>2010-04-02T11:50:22Z</time></trkpt>
<trkpt lat="45.636895" lon="0.180628"><ele>90.1</ele><time>2010-04-02T11:50:27Z</time></trkpt>
<trkpt lat="45.637005" lon="0.180462"><ele>90.8</ele><time>2010-04-02T11:50:32Z</time></trkpt>
<trkpt lat="45.637100" lon="0.180310"><ele>91.4</ele><time>2010-04-02T11:50:37Z</time></trkpt>
<trkpt lat="45.637192" lon="0.180183"><ele>92.1</ele><time>2010-04-02T11:50:42Z</time></trkpt>
<trkpt lat="45.637260" lon="0.180080"><ele>92.8</ele><time>2010-04-02T11:50:47Z</time></trkpt>
<trkpt lat="45.637322" lon="0.179988"><ele>93.5</ele><time>2010-04-02T11:50:52Z</time></trkpt>
<trkpt lat="45.637387" lon="0.179903"><ele>94.3</ele><time>2010-04-02T11:50:57Z</time></trkpt>
<trkpt lat="45.637447" lon="0.179812"><ele>95.3</ele><time>2010-04-02T11:51:02Z</time></trkpt>
<trkpt lat="45.637508" lon="0.179730"><ele>96.4</ele><time>2010-04-02T11:51:07Z</time></trkpt>
<trkpt lat="45.637570" lon="0.179637"><ele>97.2</ele><time>2010-04-02T11:51:12Z</time></trkpt>
<trkpt lat="45.637638" lon="0.179548"><ele>98</ele><time>2010-04-02T11:51:17Z</time></trkpt>
<trkpt lat="45.637698" lon="0.179457"><ele>98.7</ele><time>2010-04-02T11:51:22Z</time></trkpt>
<trkpt lat="45.637763" lon="0.179368"><ele>99.5</ele><time>2010-04-02T11:51:27Z</time></trkpt>
<trkpt lat="45.637825" lon="0.179280"><ele>100.3</ele><time>2010-04-02T11:51:32Z</time></trkpt>
<trkpt lat="45.637887" lon="0.179190"><ele>101</ele><time>2010-04-02T11:51:37Z</time></trkpt>
<trkpt lat="45.637952" lon="0.179105"><ele>102.1</ele><time>2010-04-02T11:51:42Z</time></trkpt>
<trkpt lat="45.638020" lon="0.179007"><ele>103.1</ele><time>2010-04-02T11:51:47Z</time></trkpt>
<trkpt lat="45.638092" lon="0.178895"><ele>104.1</ele><time>2010-04-02T11:51:52Z</time></trkpt>
<trkpt lat="45.638160" lon="0.178775"><ele>105</ele><time>2010-04-02T11:51:57Z</time></trkpt>
<trkpt lat="45.638230" lon="0.178647"><ele>105.9</ele><time>2010-04-02T11:52:02Z</time></trkpt>
<trkpt lat="45.638310" lon="0.178515"><ele>106.7</ele><time>2010-04-02T11:52:07Z</time></trkpt>
<trkpt lat="45.638393" lon="0.178373"><ele>107.5</ele><time>2010-04-02T11:52:12Z</time></trkpt>
<trkpt lat="45.638462" lon="0.178237"><ele>108.4</ele><time>2010-04-02T11:52:17Z</time></trkpt>
<trkpt lat="45.638538" lon="0.178085"><ele>108.9</ele><time>2010-04-02T11:52:22Z</time></trkpt>
<trkpt lat="45.638627" lon="0.177922"><ele>108.3</ele><time>2010-04-02T11:52:27Z</time></trkpt>
<trkpt lat="45.638710" lon="0.177733"><ele>109.5</ele><time>2010-04-02T11:52:32Z</time></trkpt>
<trkpt lat="45.638832" lon="0.177535"><ele>110.1</ele><time>2010-04-02T11:52:37Z</time></trkpt>
<trkpt lat="45.638988" lon="0.177337"><ele>110.9</ele><time>2010-04-02T11:52:42Z</time></trkpt>
<trkpt lat="45.639175" lon="0.177170"><ele>112</ele><time>2010-04-02T11:52:47Z</time></trkpt>
<trkpt lat="45.639355" lon="0.177030"><ele>112.2</ele><time>2010-04-02T11:52:52Z</time></trkpt>
<trkpt lat="45.639557" lon="0.176872"><ele>111.7</ele><time>2010-04-02T11:52:57Z</time></trkpt>
<trkpt lat="45.639758" lon="0.176730"><ele>111.2</ele><time>2010-04-02T11:53:02Z</time></trkpt>
<trkpt lat="45.639938" lon="0.176600"><ele>110.8</ele><time>2010-04-02T11:53:07Z</time></trkpt>
<trkpt lat="45.640125" lon="0.176455"><ele>110.5</ele><time>2010-04-02T11:53:12Z</time></trkpt>
<trkpt lat="45.640300" lon="0.176272"><ele>110.5</ele><time>2010-04-02T11:53:17Z</time></trkpt>
<trkpt lat="45.640477" lon="0.176067"><ele>111.1</ele><time>2010-04-02T11:53:22Z</time></trkpt>
<trkpt lat="45.640655" lon="0.175853"><ele>112.3</ele><time>2010-04-02T11:53:27Z</time></trkpt>
<trkpt lat="45.640847" lon="0.175658"><ele>113</ele><time>2010-04-02T11:53:32Z</time></trkpt>
<trkpt lat="45.641018" lon="0.175510"><ele>113.2</ele><time>2010-04-02T11:53:37Z</time></trkpt>
<trkpt lat="45.641018" lon="0.175508"><ele>113.2</ele><time>2010-04-02T11:53:42Z</time></trkpt>
<trkpt lat="45.641013" lon="0.175512"><ele>113.2</ele><time>2010-04-02T11:53:47Z</time></trkpt>
<trkpt lat="45.641010" lon="0.175512"><ele>113.9</ele><time>2010-04-02T11:53:52Z</time></trkpt>
<trkpt lat="45.641010" lon="0.175515"><ele>114</ele><time>2010-04-02T11:53:57Z</time></trkpt>
<trkpt lat="45.641007" lon="0.175517"><ele>113.8</ele><time>2010-04-02T11:54:02Z</time></trkpt>
<trkpt lat="45.641007" lon="0.175517"><ele>113.8</ele><time>2010-04-02T11:54:07Z</time></trkpt>
<trkpt lat="45.641007" lon="0.175518"><ele>113.8</ele><time>2010-04-02T11:54:12Z</time></trkpt>
<trkpt lat="45.641007" lon="0.175518"><ele>114</ele><time>2010-04-02T11:54:17Z</time></trkpt>
<trkpt lat="45.640998" lon="0.175520"><ele>116.3</ele><time>2010-04-02T11:54:22Z</time></trkpt>
<trkpt lat="45.640995" lon="0.175527"><ele>116.2</ele><time>2010-04-02T11:54:27Z</time></trkpt>
<trkpt lat="45.640983" lon="0.175527"><ele>119.4</ele><time>2010-04-02T11:54:32Z</time></trkpt>
<trkpt lat="45.640977" lon="0.175523"><ele>122.7</ele><time>2010-04-02T11:54:37Z</time></trkpt>
<trkpt lat="45.640977" lon="0.175525"><ele>121.5</ele><time>2010-04-02T11:54:42Z</time></trkpt>
<trkpt lat="45.640980" lon="0.175527"><ele>120.5</ele><time>2010-04-02T11:54:47Z</time></trkpt>
<trkpt lat="45.640977" lon="0.175552"><ele>119.4</ele><time>2010-04-02T11:54:52Z</time></trkpt>
<trkpt lat="45.640972" lon="0.175567"><ele>119.1</ele><time>2010-04-02T11:54:57Z</time></trkpt>
<trkpt lat="45.640968" lon="0.175575"><ele>118.5</ele><time>2010-04-02T11:55:02Z</time></trkpt>
<trkpt lat="45.640965" lon="0.175587"><ele>118.4</ele><time>2010-04-02T11:55:07Z</time></trkpt>
<trkpt lat="45.640968" lon="0.175587"><ele>117.5</ele><time>2010-04-02T11:55:12Z</time></trkpt>
<trkpt lat="45.640965" lon="0.175582"><ele>118.8</ele><time>2010-04-02T11:55:17Z</time></trkpt>
<trkpt lat="45.640968" lon="0.175572"><ele>118.6</ele><time>2010-04-02T11:55:22Z</time></trkpt>
<trkpt lat="45.640965" lon="0.175558"><ele>121.9</ele><time>2010-04-02T11:55:27Z</time></trkpt>
<trkpt lat="45.640968" lon="0.175553"><ele>120.6</ele><time>2010-04-02T11:55:32Z</time></trkpt>
<trkpt lat="45.640972" lon="0.175555"><ele>119.7</ele><time>2010-04-02T11:55:37Z</time></trkpt>
<trkpt lat="45.640972" lon="0.175558"><ele>119.4</ele><time>2010-04-02T11:55:42Z</time></trkpt>
<trkpt lat="45.640968" lon="0.175563"><ele>119.5</ele><time>2010-04-02T11:55:47Z</time></trkpt>
<trkpt lat="45.640968" lon="0.175563"><ele>119.7</ele><time>2010-04-02T11:55:52Z</time></trkpt>
<trkpt lat="45.640972" lon="0.175563"><ele>119.8</ele><time>2010-04-02T11:55:57Z</time></trkpt>
<trkpt lat="45.640987" lon="0.175537"><ele>119.4</ele><time>2010-04-02T11:56:02Z</time></trkpt>
<trkpt lat="45.641040" lon="0.175487"><ele>118.2</ele><time>2010-04-02T11:56:07Z</time></trkpt>
<trkpt lat="45.641110" lon="0.175418"><ele>117.2</ele><time>2010-04-02T11:56:12Z</time></trkpt>
<trkpt lat="45.641238" lon="0.175283"><ele>116.4</ele><time>2010-04-02T11:56:17Z</time></trkpt>
<trkpt lat="45.641433" lon="0.175083"><ele>115.9</ele><time>2010-04-02T11:56:22Z</time></trkpt>
<trkpt lat="45.641663" lon="0.174852"><ele>115.1</ele><time>2010-04-02T11:56:27Z</time></trkpt>
<trkpt lat="45.641898" lon="0.174605"><ele>114.2</ele><time>2010-04-02T11:56:32Z</time></trkpt>
<trkpt lat="45.642143" lon="0.174350"><ele>112.4</ele><time>2010-04-02T11:56:37Z</time></trkpt>
<trkpt lat="45.642407" lon="0.174105"><ele>111.2</ele><time>2010-04-02T11:56:42Z</time></trkpt>
<trkpt lat="45.642688" lon="0.173848"><ele>109.9</ele><time>2010-04-02T11:56:47Z</time></trkpt>
<trkpt lat="45.642880" lon="0.173732"><ele>109</ele><time>2010-04-02T11:56:52Z</time></trkpt>
<trkpt lat="45.643017" lon="0.173878"><ele>108.2</ele><time>2010-04-02T11:56:57Z</time></trkpt>
<trkpt lat="45.643135" lon="0.173813"><ele>107.6</ele><time>2010-04-02T11:57:02Z</time></trkpt>
<trkpt lat="45.643223" lon="0.173515"><ele>106.1</ele><time>2010-04-02T11:57:07Z</time></trkpt>
<trkpt lat="45.643307" lon="0.173155"><ele>104.7</ele><time>2010-04-02T11:57:12Z</time></trkpt>
<trkpt lat="45.643322" lon="0.172887"><ele>103.8</ele><time>2010-04-02T11:57:17Z</time></trkpt>
<trkpt lat="45.643315" lon="0.172797"><ele>103.6</ele><time>2010-04-02T11:57:22Z</time></trkpt>
<trkpt lat="45.643353" lon="0.172642"><ele>102.7</ele><time>2010-04-02T11:57:27Z</time></trkpt>
<trkpt lat="45.643380" lon="0.172483"><ele>102.8</ele><time>2010-04-02T11:57:32Z</time></trkpt>
<trkpt lat="45.643363" lon="0.172435"><ele>105.3</ele><time>2010-04-02T11:57:37Z</time></trkpt>
<trkpt lat="45.643363" lon="0.172427"><ele>106.7</ele><time>2010-04-02T11:57:42Z</time></trkpt>
<trkpt lat="45.643380" lon="0.172420"><ele>106.7</ele><time>2010-04-02T11:57:47Z</time></trkpt>
<trkpt lat="45.643428" lon="0.172442"><ele>109.8</ele><time>2010-04-02T11:57:52Z</time></trkpt>
<trkpt lat="45.643443" lon="0.172437"><ele>111.7</ele><time>2010-04-02T11:57:57Z</time></trkpt>
<trkpt lat="45.643467" lon="0.172447"><ele>113.7</ele><time>2010-04-02T11:58:02Z</time></trkpt>
<trkpt lat="45.643475" lon="0.172413"><ele>115.9</ele><time>2010-04-02T11:58:07Z</time></trkpt>
<trkpt lat="45.643440" lon="0.172423"><ele>116.6</ele><time>2010-04-02T11:58:12Z</time></trkpt>
<trkpt lat="45.643417" lon="0.172435"><ele>116.7</ele><time>2010-04-02T11:58:17Z</time></trkpt>
<trkpt lat="45.643460" lon="0.172463"><ele>117.7</ele><time>2010-04-02T11:58:23Z</time></trkpt>
<trkpt lat="45.643482" lon="0.172467"><ele>125.2</ele><time>2010-04-02T11:58:28Z</time></trkpt>
<trkpt lat="45.643497" lon="0.172467"><ele>127.6</ele><time>2010-04-02T11:58:33Z</time></trkpt>
<trkpt lat="45.643470" lon="0.172490"><ele>130.2</ele><time>2010-04-02T11:58:38Z</time></trkpt>
<trkpt lat="45.643425" lon="0.172533"><ele>129.7</ele><time>2010-04-02T11:58:43Z</time></trkpt>
<trkpt lat="45.643402" lon="0.172522"><ele>130.6</ele><time>2010-04-02T11:58:48Z</time></trkpt>
<trkpt lat="45.643353" lon="0.172527"><ele>129.1</ele><time>2010-04-02T11:58:53Z</time></trkpt>
<trkpt lat="45.643283" lon="0.172488"><ele>124.2</ele><time>2010-04-02T11:58:58Z</time></trkpt>
<trkpt lat="45.643223" lon="0.172482"><ele>108</ele><time>2010-04-02T11:59:03Z</time></trkpt>
<trkpt lat="45.643147" lon="0.172487"><ele>102.8</ele><time>2010-04-02T11:59:09Z</time></trkpt>
<trkpt lat="45.643097" lon="0.172415"><ele>95.4</ele><time>2010-04-02T11:59:14Z</time></trkpt>
<trkpt lat="45.643058" lon="0.172398"><ele>88.6</ele><time>2010-04-02T11:59:19Z</time></trkpt>
<trkpt lat="45.643043" lon="0.172397"><ele>88.1</ele><time>2010-04-02T11:59:24Z</time></trkpt>
<trkpt lat="45.643082" lon="0.172388"><ele>85</ele><time>2010-04-02T11:59:30Z</time></trkpt>
<trkpt lat="45.643063" lon="0.172355"><ele>86.5</ele><time>2010-04-02T11:59:36Z</time></trkpt>
<trkpt lat="45.643073" lon="0.172370"><ele>91.6</ele><time>2010-04-02T11:59:41Z</time></trkpt>
<trkpt lat="45.643105" lon="0.172413"><ele>92.7</ele><time>2010-04-02T11:59:46Z</time></trkpt>
<trkpt lat="45.643105" lon="0.172402"><ele>93.1</ele><time>2010-04-02T11:59:51Z</time></trkpt>
<trkpt lat="45.643112" lon="0.172375"><ele>89.9</ele><time>2010-04-02T11:59:56Z</time></trkpt>
<trkpt lat="45.643108" lon="0.172358"><ele>87.7</ele><time>2010-04-02T12:00:01Z</time></trkpt>
<trkpt lat="45.643127" lon="0.172368"><ele>85.6</ele><time>2010-04-02T12:00:06Z</time></trkpt>
<trkpt lat="45.643093" lon="0.172395"><ele>90</ele><time>2010-04-02T12:00:11Z</time></trkpt>
<trkpt lat="45.643097" lon="0.172393"><ele>98.3</ele><time>2010-04-02T12:00:16Z</time></trkpt>
<trkpt lat="45.643117" lon="0.172385"><ele>106.5</ele><time>2010-04-02T12:00:21Z</time></trkpt>
<trkpt lat="45.643132" lon="0.172365"><ele>102.8</ele><time>2010-04-02T12:00:26Z</time></trkpt>
<trkpt lat="45.643158" lon="0.172352"><ele>103.1</ele><time>2010-04-02T12:00:31Z</time></trkpt>
<trkpt lat="45.643177" lon="0.172340"><ele>106.2</ele><time>2010-04-02T12:00:36Z</time></trkpt>
<trkpt lat="45.643177" lon="0.172330"><ele>112.3</ele><time>2010-04-02T12:00:41Z</time></trkpt>
<trkpt lat="45.643173" lon="0.172360"><ele>107.5</ele><time>2010-04-02T12:00:46Z</time></trkpt>
<trkpt lat="45.643070" lon="0.172392"><ele>99.2</ele><time>2010-04-02T12:00:51Z</time></trkpt>
<trkpt lat="45.642928" lon="0.172428"><ele>95.6</ele><time>2010-04-02T12:00:56Z</time></trkpt>
</trkseg></trk></gpx>